<?xml version='1.0' encoding='UTF-8'?><gpx version="1.1" creator="JPX - https://github.com/jenetics/jpx" xmlns="http://www.topografix.com/GPX/1/1"><trk><trkseg><trkpt lat="43.1083274" lon="12.4419255"><ele>243.0</ele><time>2026-05-01T09:10:13.514Z</time></trkpt><trkpt lat="43.1082829" lon="12.4419948"><ele>243.0</ele><time>2026-05-01T09:10:15.527Z</time></trkpt><trkpt lat="43.1082537" lon="12.4420875"><ele>243.0</ele><time>2026-05-01T09:10:17.542Z</time></trkpt><trkpt lat="43.1081968" lon="12.4421488"><ele>243.0</ele><time>2026-05-01T09:10:20.537Z</time></trkpt><trkpt lat="43.1081303" lon="12.4422209"><ele>243.0</ele><time>2026-05-01T09:10:23.543Z</time></trkpt><trkpt lat="43.1080761" lon="12.4422878"><ele>243.0</ele><time>2026-05-01T09:10:27.54Z</time></trkpt><trkpt lat="43.1079337" lon="12.4424187"><ele>241.2</ele><time>2026-05-01T09:10:46.569Z</time></trkpt><trkpt lat="43.1078519" lon="12.4425034"><ele>239.4</ele><time>2026-05-01T09:10:47.527Z</time></trkpt><trkpt lat="43.1077757" lon="12.4425947"><ele>237.59999999999997</ele><time>2026-05-01T09:10:48.515Z</time></trkpt><trkpt lat="43.1077036" lon="12.4426975"><ele>235.79999999999998</ele><time>2026-05-01T09:10:49.516Z</time></trkpt><trkpt lat="43.1076285" lon="12.4428053"><ele>234.0</ele><time>2026-05-01T09:10:50.525Z</time></trkpt><trkpt lat="43.1075556" lon="12.4429282"><ele>230.25</ele><time>2026-05-01T09:10:51.552Z</time></trkpt><trkpt lat="43.1074997" lon="12.4430754"><ele>226.5</ele><time>2026-05-01T09:10:52.508Z</time></trkpt><trkpt lat="43.1074723" lon="12.4432654"><ele>222.75</ele><time>2026-05-01T09:10:53.56Z</time></trkpt><trkpt lat="43.1074808" lon="12.4434413"><ele>219.0</ele><time>2026-05-01T09:10:54.51Z</time></trkpt><trkpt lat="43.1075052" lon="12.4436246"><ele>216.0</ele><time>2026-05-01T09:10:55.519Z</time></trkpt><trkpt lat="43.1075292" lon="12.443803"><ele>213.0</ele><time>2026-05-01T09:10:56.556Z</time></trkpt><trkpt lat="43.1075508" lon="12.4439418"><ele>210.0</ele><time>2026-05-01T09:10:57.524Z</time></trkpt><trkpt lat="43.107572" lon="12.4440729"><ele>207.0</ele><time>2026-05-01T09:10:58.696Z</time></trkpt><trkpt lat="43.1075989" lon="12.444228"><ele>207.0</ele><time>2026-05-01T09:11:00.552Z</time></trkpt><trkpt lat="43.1076096" lon="12.4443309"><ele>207.0</ele><time>2026-05-01T09:11:02.53Z</time></trkpt><trkpt lat="43.1076305" lon="12.4444604"><ele>207.0</ele><time>2026-05-01T09:11:34.565Z</time></trkpt><trkpt lat="43.1076692" lon="12.4445764"><ele>207.0</ele><time>2026-05-01T09:11:37.593Z</time></trkpt><trkpt lat="43.1076953" lon="12.4446711"><ele>207.0</ele><time>2026-05-01T09:11:39.551Z</time></trkpt><trkpt lat="43.1078928" lon="12.4446208"><ele>205.2</ele><time>2026-05-01T09:11:41.562Z</time></trkpt><trkpt lat="43.1079829" lon="12.4446578"><ele>203.39999999999998</ele><time>2026-05-01T09:11:43.57Z</time></trkpt><trkpt lat="43.108053" lon="12.4447255"><ele>201.60000000000002</ele><time>2026-05-01T09:11:45.549Z</time></trkpt><trkpt lat="43.1081324" lon="12.4447901"><ele>199.8</ele><time>2026-05-01T09:11:47.522Z</time></trkpt><trkpt lat="43.10821" lon="12.4448576"><ele>198.0</ele><time>2026-05-01T09:11:49.505Z</time></trkpt><trkpt lat="43.1082942" lon="12.4449258"><ele>196.8</ele><time>2026-05-01T09:11:51.547Z</time></trkpt><trkpt lat="43.1083768" lon="12.444999"><ele>195.60000000000002</ele><time>2026-05-01T09:11:53.601Z</time></trkpt><trkpt lat="43.1084607" lon="12.4450645"><ele>194.39999999999998</ele><time>2026-05-01T09:11:55.547Z</time></trkpt><trkpt lat="43.1085453" lon="12.4451324"><ele>193.2</ele><time>2026-05-01T09:11:57.548Z</time></trkpt><trkpt lat="43.1086272" lon="12.4452063"><ele>192.0</ele><time>2026-05-01T09:11:59.563Z</time></trkpt><trkpt lat="43.1087216" lon="12.4452857"><ele>192.0</ele><time>2026-05-01T09:12:01.531Z</time></trkpt><trkpt lat="43.1088295" lon="12.4453737"><ele>192.0</ele><time>2026-05-01T09:12:03.53Z</time></trkpt><trkpt lat="43.1088852" lon="12.445426"><ele>192.0</ele><time>2026-05-01T09:12:04.531Z</time></trkpt><trkpt lat="43.1089464" lon="12.4454765"><ele>192.0</ele><time>2026-05-01T09:12:05.56Z</time></trkpt><trkpt lat="43.1090067" lon="12.4455274"><ele>192.0</ele><time>2026-05-01T09:12:06.545Z</time></trkpt><trkpt lat="43.1090695" lon="12.4455787"><ele>192.0</ele><time>2026-05-01T09:12:07.538Z</time></trkpt><trkpt lat="43.1091353" lon="12.4456333"><ele>192.16666666666666</ele><time>2026-05-01T09:12:08.562Z</time></trkpt><trkpt lat="43.1092019" lon="12.4456883"><ele>192.33333333333331</ele><time>2026-05-01T09:12:09.572Z</time></trkpt><trkpt lat="43.1092721" lon="12.4457506"><ele>192.5</ele><time>2026-05-01T09:12:10.629Z</time></trkpt><trkpt lat="43.1093363" lon="12.4458009"><ele>192.66666666666666</ele><time>2026-05-01T09:12:11.543Z</time></trkpt><trkpt lat="43.1094052" lon="12.4458569"><ele>192.83333333333331</ele><time>2026-05-01T09:12:12.505Z</time></trkpt><trkpt lat="43.1094716" lon="12.4459212"><ele>193.0</ele><time>2026-05-01T09:12:13.525Z</time></trkpt><trkpt lat="43.1095256" lon="12.4459864"><ele>192.99999999999997</ele><time>2026-05-01T09:12:14.535Z</time></trkpt><trkpt lat="43.1095716" lon="12.446053"><ele>193.0</ele><time>2026-05-01T09:12:15.511Z</time></trkpt><trkpt lat="43.1096639" lon="12.4461547"><ele>193.0</ele><time>2026-05-01T09:12:17.534Z</time></trkpt><trkpt lat="43.1097261" lon="12.4462638"><ele>193.0</ele><time>2026-05-01T09:12:19.51Z</time></trkpt><trkpt lat="43.1097363" lon="12.446385"><ele>192.99999999999997</ele><time>2026-05-01T09:12:21.548Z</time></trkpt><trkpt lat="43.1097125" lon="12.4464658"><ele>193.0</ele><time>2026-05-01T09:12:24.525Z</time></trkpt><trkpt lat="43.1096743" lon="12.4465704"><ele>193.4</ele><time>2026-05-01T09:12:26.552Z</time></trkpt><trkpt lat="43.1096641" lon="12.4467238"><ele>193.8</ele><time>2026-05-01T09:12:29.076Z</time></trkpt><trkpt lat="43.1096847" lon="12.4468772"><ele>194.2</ele><time>2026-05-01T09:12:31.533Z</time></trkpt><trkpt lat="43.109697" lon="12.4470408"><ele>194.6</ele><time>2026-05-01T09:12:33.63Z</time></trkpt><trkpt lat="43.1097168" lon="12.4471791"><ele>195.0</ele><time>2026-05-01T09:12:35.511Z</time></trkpt><trkpt lat="43.1097326" lon="12.4473222"><ele>195.2</ele><time>2026-05-01T09:12:37.542Z</time></trkpt><trkpt lat="43.1097742" lon="12.4474474"><ele>195.4</ele><time>2026-05-01T09:12:39.526Z</time></trkpt><trkpt lat="43.1097964" lon="12.4475882"><ele>195.60000000000002</ele><time>2026-05-01T09:12:41.628Z</time></trkpt><trkpt lat="43.1098221" lon="12.4477098"><ele>195.8</ele><time>2026-05-01T09:12:43.502Z</time></trkpt><trkpt lat="43.1098493" lon="12.4478463"><ele>196.0</ele><time>2026-05-01T09:12:45.52Z</time></trkpt><trkpt lat="43.1098892" lon="12.4479719"><ele>195.4</ele><time>2026-05-01T09:12:47.52Z</time></trkpt><trkpt lat="43.1099188" lon="12.4481122"><ele>194.8</ele><time>2026-05-01T09:12:49.612Z</time></trkpt><trkpt lat="43.1099591" lon="12.4482435"><ele>194.20000000000002</ele><time>2026-05-01T09:12:51.52Z</time></trkpt><trkpt lat="43.1099902" lon="12.4483842"><ele>193.60000000000002</ele><time>2026-05-01T09:12:53.512Z</time></trkpt><trkpt lat="43.1099851" lon="12.4485217"><ele>193.0</ele><time>2026-05-01T09:12:55.506Z</time></trkpt><trkpt lat="43.109963" lon="12.4486392"><ele>193.0</ele><time>2026-05-01T09:12:57.502Z</time></trkpt><trkpt lat="43.109985" lon="12.448786"><ele>193.0</ele><time>2026-05-01T09:12:59.53Z</time></trkpt><trkpt lat="43.110018" lon="12.4489173"><ele>193.0</ele><time>2026-05-01T09:13:01.512Z</time></trkpt><trkpt lat="43.1100585" lon="12.4490465"><ele>193.0</ele><time>2026-05-01T09:13:03.523Z</time></trkpt><trkpt lat="43.1100882" lon="12.4491814"><ele>193.0</ele><time>2026-05-01T09:13:05.536Z</time></trkpt><trkpt lat="43.1101261" lon="12.4493109"><ele>192.8</ele><time>2026-05-01T09:13:07.528Z</time></trkpt><trkpt lat="43.1101712" lon="12.449422"><ele>192.60000000000002</ele><time>2026-05-01T09:13:09.547Z</time></trkpt><trkpt lat="43.11025" lon="12.4494605"><ele>192.39999999999998</ele><time>2026-05-01T09:13:11.553Z</time></trkpt><trkpt lat="43.1103466" lon="12.4493841"><ele>192.2</ele><time>2026-05-01T09:13:13.529Z</time></trkpt><trkpt lat="43.1104394" lon="12.449302"><ele>192.0</ele><time>2026-05-01T09:13:15.639Z</time></trkpt><trkpt lat="43.1105118" lon="12.4492321"><ele>192.0</ele><time>2026-05-01T09:13:17.53Z</time></trkpt><trkpt lat="43.1105773" lon="12.4492081"><ele>192.0</ele><time>2026-05-01T09:13:19.56Z</time></trkpt><trkpt lat="43.1106453" lon="12.4492509"><ele>192.0</ele><time>2026-05-01T09:13:20.633Z</time></trkpt><trkpt lat="43.1107313" lon="12.4493156"><ele>192.0</ele><time>2026-05-01T09:13:22.532Z</time></trkpt><trkpt lat="43.1108086" lon="12.4493821"><ele>192.0</ele><time>2026-05-01T09:13:24.55Z</time></trkpt><trkpt lat="43.1108857" lon="12.4494654"><ele>192.0</ele><time>2026-05-01T09:13:26.571Z</time></trkpt><trkpt lat="43.1109598" lon="12.4495381"><ele>192.39999999999998</ele><time>2026-05-01T09:13:28.54Z</time></trkpt><trkpt lat="43.1110446" lon="12.4495943"><ele>192.79999999999998</ele><time>2026-05-01T09:13:30.504Z</time></trkpt><trkpt lat="43.1111288" lon="12.4496703"><ele>193.2</ele><time>2026-05-01T09:13:32.568Z</time></trkpt><trkpt lat="43.1112063" lon="12.4497323"><ele>193.6</ele><time>2026-05-01T09:13:34.531Z</time></trkpt><trkpt lat="43.1112905" lon="12.449797"><ele>194.0</ele><time>2026-05-01T09:13:36.554Z</time></trkpt><trkpt lat="43.1113605" lon="12.4498548"><ele>194.00000000000003</ele><time>2026-05-01T09:13:38.548Z</time></trkpt><trkpt lat="43.1114178" lon="12.4499155"><ele>194.0</ele><time>2026-05-01T09:13:41.561Z</time></trkpt><trkpt lat="43.1114746" lon="12.4497997"><ele>194.0</ele><time>2026-05-01T09:13:44.034Z</time></trkpt><trkpt lat="43.1114342" lon="12.4496967"><ele>194.0</ele><time>2026-05-01T09:13:46.274Z</time></trkpt><trkpt lat="43.1113657" lon="12.4496191"><ele>194.00000000000003</ele><time>2026-05-01T09:13:48.547Z</time></trkpt><trkpt lat="43.1113191" lon="12.4495537"><ele>194.0</ele><time>2026-05-01T09:13:50.595Z</time></trkpt><trkpt lat="43.1113297" lon="12.4494137"><ele>194.16666666666669</ele><time>2026-05-01T09:13:52.53Z</time></trkpt><trkpt lat="43.1113151" lon="12.4492947"><ele>194.33333333333334</ele><time>2026-05-01T09:13:54.559Z</time></trkpt><trkpt lat="43.1112623" lon="12.4492061"><ele>194.5</ele><time>2026-05-01T09:13:56.544Z</time></trkpt><trkpt lat="43.1112117" lon="12.4491115"><ele>194.66666666666669</ele><time>2026-05-01T09:13:58.546Z</time></trkpt><trkpt lat="43.1112146" lon="12.4489846"><ele>194.83333333333334</ele><time>2026-05-01T09:14:00.551Z</time></trkpt><trkpt lat="43.1112493" lon="12.4488694"><ele>195.0</ele><time>2026-05-01T09:14:02.549Z</time></trkpt><trkpt lat="43.1113257" lon="12.4487474"><ele>195.0</ele><time>2026-05-01T09:14:05.533Z</time></trkpt><trkpt lat="43.1113657" lon="12.4486228"><ele>195.0</ele><time>2026-05-01T09:14:07.544Z</time></trkpt><trkpt lat="43.1113997" lon="12.4484882"><ele>195.0</ele><time>2026-05-01T09:14:09.671Z</time></trkpt><trkpt lat="43.1114523" lon="12.4484034"><ele>195.0</ele><time>2026-05-01T09:14:11.545Z</time></trkpt><trkpt lat="43.1115162" lon="12.448301"><ele>195.0</ele><time>2026-05-01T09:14:15.534Z</time></trkpt><trkpt lat="43.1115663" lon="12.4481651"><ele>194.6</ele><time>2026-05-01T09:14:17.519Z</time></trkpt><trkpt lat="43.1116235" lon="12.4480345"><ele>194.2</ele><time>2026-05-01T09:14:19.545Z</time></trkpt><trkpt lat="43.1116403" lon="12.4479257"><ele>193.8</ele><time>2026-05-01T09:14:20.59Z</time></trkpt><trkpt lat="43.1116824" lon="12.4477933"><ele>193.4</ele><time>2026-05-01T09:14:22.529Z</time></trkpt><trkpt lat="43.1117343" lon="12.4476707"><ele>193.0</ele><time>2026-05-01T09:14:24.735Z</time></trkpt><trkpt lat="43.1117792" lon="12.4475745"><ele>193.0</ele><time>2026-05-01T09:14:26.533Z</time></trkpt><trkpt lat="43.1118195" lon="12.4474552"><ele>193.0</ele><time>2026-05-01T09:14:28.511Z</time></trkpt><trkpt lat="43.1118597" lon="12.4473409"><ele>193.0</ele><time>2026-05-01T09:14:30.519Z</time></trkpt><trkpt lat="43.1118988" lon="12.44723"><ele>193.0</ele><time>2026-05-01T09:14:32.5Z</time></trkpt><trkpt lat="43.1119599" lon="12.4471183"><ele>193.0</ele><time>2026-05-01T09:14:35.228Z</time></trkpt><trkpt lat="43.1120151" lon="12.4469658"><ele>193.25</ele><time>2026-05-01T09:14:37.543Z</time></trkpt><trkpt lat="43.1120577" lon="12.4468562"><ele>193.5</ele><time>2026-05-01T09:14:39.535Z</time></trkpt><trkpt lat="43.1120989" lon="12.4467441"><ele>193.75</ele><time>2026-05-01T09:14:41.632Z</time></trkpt><trkpt lat="43.1120686" lon="12.4465151"><ele>194.0</ele><time>2026-05-01T09:14:46.526Z</time></trkpt><trkpt lat="43.1119796" lon="12.446442"><ele>194.0</ele><time>2026-05-01T09:14:48.515Z</time></trkpt><trkpt lat="43.111879" lon="12.4463839"><ele>194.0</ele><time>2026-05-01T09:14:50.621Z</time></trkpt><trkpt lat="43.1118045" lon="12.4462999"><ele>194.0</ele><time>2026-05-01T09:14:52.529Z</time></trkpt><trkpt lat="43.1117561" lon="12.4461621"><ele>194.0</ele><time>2026-05-01T09:14:54.642Z</time></trkpt><trkpt lat="43.1117037" lon="12.4460603"><ele>194.0</ele><time>2026-05-01T09:14:56.514Z</time></trkpt><trkpt lat="43.1116337" lon="12.4459701"><ele>194.0</ele><time>2026-05-01T09:14:58.53Z</time></trkpt><trkpt lat="43.1115612" lon="12.4458969"><ele>194.0</ele><time>2026-05-01T09:15:00.518Z</time></trkpt><trkpt lat="43.1114765" lon="12.4458344"><ele>194.0</ele><time>2026-05-01T09:15:02.51Z</time></trkpt><trkpt lat="43.1113882" lon="12.4457619"><ele>194.0</ele><time>2026-05-01T09:15:04.517Z</time></trkpt><trkpt lat="43.111296" lon="12.4456966"><ele>194.0</ele><time>2026-05-01T09:15:06.5Z</time></trkpt><trkpt lat="43.1111903" lon="12.4456339"><ele>194.0</ele><time>2026-05-01T09:15:08.574Z</time></trkpt><trkpt lat="43.1110938" lon="12.4455847"><ele>194.0</ele><time>2026-05-01T09:15:10.52Z</time></trkpt><trkpt lat="43.1110162" lon="12.4455051"><ele>194.0</ele><time>2026-05-01T09:15:12.532Z</time></trkpt><trkpt lat="43.1110114" lon="12.4453771"><ele>194.0</ele><time>2026-05-01T09:15:14.532Z</time></trkpt><trkpt lat="43.1110863" lon="12.4452798"><ele>194.0</ele><time>2026-05-01T09:15:16.536Z</time></trkpt><trkpt lat="43.111167" lon="12.4452421"><ele>193.79999999999998</ele><time>2026-05-01T09:15:18.529Z</time></trkpt><trkpt lat="43.1112555" lon="12.4451895"><ele>193.6</ele><time>2026-05-01T09:15:20.524Z</time></trkpt><trkpt lat="43.1113296" lon="12.4451363"><ele>193.4</ele><time>2026-05-01T09:15:22.507Z</time></trkpt><trkpt lat="43.1114265" lon="12.4451033"><ele>193.2</ele><time>2026-05-01T09:15:25.532Z</time></trkpt><trkpt lat="43.1115025" lon="12.4450335"><ele>193.0</ele><time>2026-05-01T09:15:27.535Z</time></trkpt><trkpt lat="43.1116077" lon="12.4449813"><ele>192.99999999999997</ele><time>2026-05-01T09:15:29.527Z</time></trkpt><trkpt lat="43.1116986" lon="12.4449219"><ele>193.0</ele><time>2026-05-01T09:15:31.532Z</time></trkpt><trkpt lat="43.1117808" lon="12.4448391"><ele>193.0</ele><time>2026-05-01T09:15:33.561Z</time></trkpt><trkpt lat="43.111852" lon="12.4447678"><ele>193.0</ele><time>2026-05-01T09:15:35.515Z</time></trkpt><trkpt lat="43.1119155" lon="12.4446988"><ele>192.99999999999997</ele><time>2026-05-01T09:15:37.523Z</time></trkpt><trkpt lat="43.1119442" lon="12.4446006"><ele>193.0</ele><time>2026-05-01T09:15:40.563Z</time></trkpt><trkpt lat="43.1120005" lon="12.444559"><ele>192.83333333333331</ele><time>2026-05-01T09:20:12.63Z</time></trkpt><trkpt lat="43.1120819" lon="12.444496"><ele>192.66666666666666</ele><time>2026-05-01T09:20:16.571Z</time></trkpt><trkpt lat="43.1121246" lon="12.4444213"><ele>192.5</ele><time>2026-05-01T09:20:18.473Z</time></trkpt><trkpt lat="43.1121764" lon="12.4443672"><ele>192.33333333333331</ele><time>2026-05-01T09:20:20.73Z</time></trkpt><trkpt lat="43.112232" lon="12.4444128"><ele>192.16666666666666</ele><time>2026-05-01T09:20:23.15Z</time></trkpt><trkpt lat="43.1122686" lon="12.4445157"><ele>192.0</ele><time>2026-05-01T09:20:25.58Z</time></trkpt><trkpt lat="43.1123217" lon="12.4445902"><ele>192.0</ele><time>2026-05-01T09:20:27.568Z</time></trkpt><trkpt lat="43.1123936" lon="12.4446456"><ele>192.0</ele><time>2026-05-01T09:20:29.586Z</time></trkpt><trkpt lat="43.1124812" lon="12.4446921"><ele>192.0</ele><time>2026-05-01T09:20:31.631Z</time></trkpt><trkpt lat="43.1125566" lon="12.444733"><ele>192.0</ele><time>2026-05-01T09:20:33.518Z</time></trkpt><trkpt lat="43.1126323" lon="12.4447685"><ele>192.0</ele><time>2026-05-01T09:20:35.554Z</time></trkpt><trkpt lat="43.1127083" lon="12.4447894"><ele>192.0</ele><time>2026-05-01T09:20:37.609Z</time></trkpt><trkpt lat="43.112794" lon="12.444805"><ele>192.0</ele><time>2026-05-01T09:20:39.571Z</time></trkpt><trkpt lat="43.1128764" lon="12.4448401"><ele>192.0</ele><time>2026-05-01T09:20:41.611Z</time></trkpt><trkpt lat="43.1129534" lon="12.4448631"><ele>192.0</ele><time>2026-05-01T09:20:43.557Z</time></trkpt><trkpt lat="43.1130414" lon="12.4448771"><ele>192.0</ele><time>2026-05-01T09:20:45.536Z</time></trkpt><trkpt lat="43.1131263" lon="12.4448789"><ele>192.0</ele><time>2026-05-01T09:20:47.475Z</time></trkpt><trkpt lat="43.1132146" lon="12.4449148"><ele>192.0</ele><time>2026-05-01T09:20:49.562Z</time></trkpt><trkpt lat="43.1133027" lon="12.444916"><ele>191.66666666666666</ele><time>2026-05-01T09:20:51.574Z</time></trkpt><trkpt lat="43.1133891" lon="12.4448999"><ele>191.33333333333334</ele><time>2026-05-01T09:20:53.588Z</time></trkpt><trkpt lat="43.1134745" lon="12.4448871"><ele>191.0</ele><time>2026-05-01T09:20:55.589Z</time></trkpt><trkpt lat="43.1135583" lon="12.444873"><ele>190.66666666666669</ele><time>2026-05-01T09:20:57.53Z</time></trkpt><trkpt lat="43.1136458" lon="12.4448488"><ele>190.33333333333334</ele><time>2026-05-01T09:20:59.577Z</time></trkpt><trkpt lat="43.1137318" lon="12.4448241"><ele>190.0</ele><time>2026-05-01T09:21:01.584Z</time></trkpt><trkpt lat="43.1138128" lon="12.4447823"><ele>190.0</ele><time>2026-05-01T09:21:03.566Z</time></trkpt><trkpt lat="43.1138912" lon="12.4447426"><ele>190.0</ele><time>2026-05-01T09:21:05.583Z</time></trkpt><trkpt lat="43.1139698" lon="12.444675"><ele>190.0</ele><time>2026-05-01T09:21:07.593Z</time></trkpt><trkpt lat="43.1140452" lon="12.4445962"><ele>190.0</ele><time>2026-05-01T09:21:09.572Z</time></trkpt><trkpt lat="43.1141266" lon="12.4445178"><ele>190.0</ele><time>2026-05-01T09:21:11.596Z</time></trkpt><trkpt lat="43.1142024" lon="12.4444497"><ele>190.2</ele><time>2026-05-01T09:21:13.526Z</time></trkpt><trkpt lat="43.1142841" lon="12.4443747"><ele>190.4</ele><time>2026-05-01T09:21:15.556Z</time></trkpt><trkpt lat="43.1143538" lon="12.4442797"><ele>190.60000000000002</ele><time>2026-05-01T09:21:17.574Z</time></trkpt><trkpt lat="43.1144196" lon="12.4441776"><ele>190.8</ele><time>2026-05-01T09:21:19.566Z</time></trkpt><trkpt lat="43.1144863" lon="12.4440771"><ele>191.0</ele><time>2026-05-01T09:21:21.597Z</time></trkpt><trkpt lat="43.1145516" lon="12.4439746"><ele>191.0</ele><time>2026-05-01T09:21:23.582Z</time></trkpt><trkpt lat="43.1146219" lon="12.4438676"><ele>191.0</ele><time>2026-05-01T09:21:25.659Z</time></trkpt><trkpt lat="43.114685" lon="12.4437715"><ele>191.0</ele><time>2026-05-01T09:21:27.606Z</time></trkpt><trkpt lat="43.1147448" lon="12.443665"><ele>191.0</ele><time>2026-05-01T09:21:29.589Z</time></trkpt><trkpt lat="43.1148033" lon="12.4435572"><ele>191.0</ele><time>2026-05-01T09:21:31.568Z</time></trkpt><trkpt lat="43.1148522" lon="12.443443"><ele>191.0</ele><time>2026-05-01T09:21:33.556Z</time></trkpt><trkpt lat="43.1149042" lon="12.4433216"><ele>191.0</ele><time>2026-05-01T09:21:35.584Z</time></trkpt><trkpt lat="43.1149567" lon="12.4431965"><ele>191.0</ele><time>2026-05-01T09:21:37.687Z</time></trkpt><trkpt lat="43.1150198" lon="12.4430949"><ele>191.0</ele><time>2026-05-01T09:21:39.563Z</time></trkpt><trkpt lat="43.1150869" lon="12.4429868"><ele>191.0</ele><time>2026-05-01T09:21:41.578Z</time></trkpt><trkpt lat="43.1151602" lon="12.442885"><ele>190.60000000000002</ele><time>2026-05-01T09:21:43.741Z</time></trkpt><trkpt lat="43.1152231" lon="12.4428087"><ele>190.2</ele><time>2026-05-01T09:21:45.592Z</time></trkpt><trkpt lat="43.1152862" lon="12.4427123"><ele>189.8</ele><time>2026-05-01T09:21:47.561Z</time></trkpt><trkpt lat="43.1153549" lon="12.4426012"><ele>189.39999999999998</ele><time>2026-05-01T09:21:49.574Z</time></trkpt><trkpt lat="43.1154336" lon="12.4424818"><ele>189.0</ele><time>2026-05-01T09:21:51.693Z</time></trkpt><trkpt lat="43.1155063" lon="12.4423764"><ele>189.0</ele><time>2026-05-01T09:21:53.56Z</time></trkpt><trkpt lat="43.1155878" lon="12.4422517"><ele>189.0</ele><time>2026-05-01T09:21:55.59Z</time></trkpt><trkpt lat="43.1156411" lon="12.442099"><ele>189.0</ele><time>2026-05-01T09:21:57.575Z</time></trkpt><trkpt lat="43.1156485" lon="12.441926"><ele>189.0</ele><time>2026-05-01T09:21:59.561Z</time></trkpt><trkpt lat="43.1156917" lon="12.4417699"><ele>189.39999999999998</ele><time>2026-05-01T09:22:01.556Z</time></trkpt><trkpt lat="43.115741" lon="12.4416262"><ele>189.8</ele><time>2026-05-01T09:22:03.573Z</time></trkpt><trkpt lat="43.1157947" lon="12.4414951"><ele>190.2</ele><time>2026-05-01T09:22:05.546Z</time></trkpt><trkpt lat="43.1158513" lon="12.441363"><ele>190.60000000000002</ele><time>2026-05-01T09:22:07.556Z</time></trkpt><trkpt lat="43.1158815" lon="12.4412867"><ele>191.0</ele><time>2026-05-01T09:22:08.579Z</time></trkpt><trkpt lat="43.1159124" lon="12.4412004"><ele>191.0</ele><time>2026-05-01T09:22:09.588Z</time></trkpt><trkpt lat="43.115967" lon="12.4410587"><ele>191.0</ele><time>2026-05-01T09:22:11.584Z</time></trkpt><trkpt lat="43.116015" lon="12.4409317"><ele>191.0</ele><time>2026-05-01T09:22:13.554Z</time></trkpt><trkpt lat="43.1160744" lon="12.4408256"><ele>191.0</ele><time>2026-05-01T09:22:15.598Z</time></trkpt><trkpt lat="43.1161361" lon="12.440702"><ele>191.0</ele><time>2026-05-01T09:22:17.567Z</time></trkpt><trkpt lat="43.1162291" lon="12.4405121"><ele>190.83333333333331</ele><time>2026-05-01T09:22:20.548Z</time></trkpt><trkpt lat="43.116261" lon="12.4403528"><ele>190.66666666666666</ele><time>2026-05-01T09:22:22.565Z</time></trkpt><trkpt lat="43.1162607" lon="12.4402603"><ele>190.5</ele><time>2026-05-01T09:22:23.588Z</time></trkpt><trkpt lat="43.1162591" lon="12.4401722"><ele>190.33333333333334</ele><time>2026-05-01T09:22:24.532Z</time></trkpt><trkpt lat="43.1162633" lon="12.440077"><ele>190.16666666666669</ele><time>2026-05-01T09:22:25.562Z</time></trkpt><trkpt lat="43.1162689" lon="12.4399859"><ele>190.0</ele><time>2026-05-01T09:22:26.545Z</time></trkpt><trkpt lat="43.1162778" lon="12.4398976"><ele>190.0</ele><time>2026-05-01T09:22:27.544Z</time></trkpt><trkpt lat="43.1162871" lon="12.4398112"><ele>190.0</ele><time>2026-05-01T09:22:28.573Z</time></trkpt><trkpt lat="43.1163098" lon="12.4396595"><ele>190.0</ele><time>2026-05-01T09:22:30.535Z</time></trkpt><trkpt lat="43.1163405" lon="12.4394905"><ele>190.0</ele><time>2026-05-01T09:22:32.573Z</time></trkpt><trkpt lat="43.1163548" lon="12.4393239"><ele>190.0</ele><time>2026-05-01T09:22:34.575Z</time></trkpt><trkpt lat="43.1163782" lon="12.4392437"><ele>190.0</ele><time>2026-05-01T09:22:35.526Z</time></trkpt><trkpt lat="43.1164009" lon="12.4391591"><ele>190.0</ele><time>2026-05-01T09:22:36.56Z</time></trkpt><trkpt lat="43.1164461" lon="12.4390086"><ele>190.0</ele><time>2026-05-01T09:22:38.517Z</time></trkpt><trkpt lat="43.1164733" lon="12.438929"><ele>190.0</ele><time>2026-05-01T09:22:39.536Z</time></trkpt><trkpt lat="43.1165033" lon="12.4388491"><ele>190.0</ele><time>2026-05-01T09:22:40.621Z</time></trkpt><trkpt lat="43.1165549" lon="12.4387124"><ele>190.0</ele><time>2026-05-01T09:22:42.52Z</time></trkpt><trkpt lat="43.1165978" lon="12.4385638"><ele>190.2</ele><time>2026-05-01T09:22:44.546Z</time></trkpt><trkpt lat="43.1166172" lon="12.4384056"><ele>190.4</ele><time>2026-05-01T09:22:46.539Z</time></trkpt><trkpt lat="43.1166534" lon="12.4382467"><ele>190.60000000000002</ele><time>2026-05-01T09:22:48.563Z</time></trkpt><trkpt lat="43.1166685" lon="12.4381025"><ele>190.8</ele><time>2026-05-01T09:22:50.511Z</time></trkpt><trkpt lat="43.1166388" lon="12.4379657"><ele>191.0</ele><time>2026-05-01T09:22:52.559Z</time></trkpt><trkpt lat="43.1166462" lon="12.4378374"><ele>191.20000000000002</ele><time>2026-05-01T09:22:54.53Z</time></trkpt><trkpt lat="43.116701" lon="12.437704"><ele>191.4</ele><time>2026-05-01T09:22:56.529Z</time></trkpt><trkpt lat="43.1167566" lon="12.4375759"><ele>191.6</ele><time>2026-05-01T09:22:58.543Z</time></trkpt><trkpt lat="43.1167943" lon="12.4374316"><ele>191.8</ele><time>2026-05-01T09:23:00.546Z</time></trkpt><trkpt lat="43.1168394" lon="12.4373035"><ele>192.0</ele><time>2026-05-01T09:23:02.537Z</time></trkpt><trkpt lat="43.1168903" lon="12.4371802"><ele>192.39999999999998</ele><time>2026-05-01T09:23:04.559Z</time></trkpt><trkpt lat="43.1169484" lon="12.4370649"><ele>192.79999999999998</ele><time>2026-05-01T09:23:06.581Z</time></trkpt><trkpt lat="43.117013" lon="12.4369455"><ele>193.2</ele><time>2026-05-01T09:23:08.532Z</time></trkpt><trkpt lat="43.1170862" lon="12.4368352"><ele>193.6</ele><time>2026-05-01T09:23:10.557Z</time></trkpt><trkpt lat="43.1171614" lon="12.4367193"><ele>194.0</ele><time>2026-05-01T09:23:12.569Z</time></trkpt><trkpt lat="43.1172392" lon="12.436624"><ele>194.0</ele><time>2026-05-01T09:23:14.566Z</time></trkpt><trkpt lat="43.1173333" lon="12.4365502"><ele>194.0</ele><time>2026-05-01T09:23:16.556Z</time></trkpt><trkpt lat="43.1174263" lon="12.4364703"><ele>194.0</ele><time>2026-05-01T09:23:18.559Z</time></trkpt><trkpt lat="43.1175174" lon="12.4363792"><ele>194.0</ele><time>2026-05-01T09:23:20.641Z</time></trkpt><trkpt lat="43.1175979" lon="12.4362865"><ele>194.0</ele><time>2026-05-01T09:23:22.563Z</time></trkpt><trkpt lat="43.1176719" lon="12.4361765"><ele>193.6</ele><time>2026-05-01T09:23:24.561Z</time></trkpt><trkpt lat="43.1177585" lon="12.4360729"><ele>193.2</ele><time>2026-05-01T09:23:26.575Z</time></trkpt><trkpt lat="43.1178474" lon="12.4359834"><ele>192.79999999999998</ele><time>2026-05-01T09:23:28.558Z</time></trkpt><trkpt lat="43.1179364" lon="12.4358935"><ele>192.39999999999998</ele><time>2026-05-01T09:23:30.576Z</time></trkpt><trkpt lat="43.1180263" lon="12.435817"><ele>192.0</ele><time>2026-05-01T09:23:32.569Z</time></trkpt><trkpt lat="43.1181337" lon="12.4358502"><ele>192.0</ele><time>2026-05-01T09:23:34.54Z</time></trkpt><trkpt lat="43.1182441" lon="12.4358947"><ele>192.0</ele><time>2026-05-01T09:23:36.544Z</time></trkpt><trkpt lat="43.1183383" lon="12.4358978"><ele>192.0</ele><time>2026-05-01T09:23:38.537Z</time></trkpt><trkpt lat="43.1184238" lon="12.435863"><ele>192.0</ele><time>2026-05-01T09:23:40.558Z</time></trkpt><trkpt lat="43.1185069" lon="12.4358094"><ele>192.0</ele><time>2026-05-01T09:23:42.57Z</time></trkpt><trkpt lat="43.118599" lon="12.435769"><ele>192.0</ele><time>2026-05-01T09:23:44.577Z</time></trkpt><trkpt lat="43.1187328" lon="12.4356977"><ele>192.0</ele><time>2026-05-01T09:23:47.568Z</time></trkpt><trkpt lat="43.118831" lon="12.4356609"><ele>192.0</ele><time>2026-05-01T09:23:49.579Z</time></trkpt><trkpt lat="43.1189348" lon="12.4356152"><ele>192.0</ele><time>2026-05-01T09:23:51.577Z</time></trkpt><trkpt lat="43.1190378" lon="12.4355763"><ele>192.2</ele><time>2026-05-01T09:23:53.566Z</time></trkpt><trkpt lat="43.1191419" lon="12.4355502"><ele>192.39999999999998</ele><time>2026-05-01T09:23:55.557Z</time></trkpt><trkpt lat="43.1192428" lon="12.4355219"><ele>192.60000000000002</ele><time>2026-05-01T09:23:57.577Z</time></trkpt><trkpt lat="43.1193479" lon="12.4354838"><ele>192.8</ele><time>2026-05-01T09:23:59.579Z</time></trkpt><trkpt lat="43.1194563" lon="12.4354863"><ele>193.0</ele><time>2026-05-01T09:24:01.569Z</time></trkpt><trkpt lat="43.1195514" lon="12.4355375"><ele>193.0</ele><time>2026-05-01T09:24:03.567Z</time></trkpt><trkpt lat="43.1196592" lon="12.4355244"><ele>193.0</ele><time>2026-05-01T09:24:05.564Z</time></trkpt><trkpt lat="43.1198211" lon="12.4354925"><ele>193.0</ele><time>2026-05-01T09:24:08.558Z</time></trkpt><trkpt lat="43.1199175" lon="12.4354734"><ele>193.0</ele><time>2026-05-01T09:24:10.535Z</time></trkpt><trkpt lat="43.1200232" lon="12.4354445"><ele>193.0</ele><time>2026-05-01T09:24:12.556Z</time></trkpt><trkpt lat="43.1201172" lon="12.4353863"><ele>193.0</ele><time>2026-05-01T09:24:14.559Z</time></trkpt><trkpt lat="43.1202153" lon="12.4353386"><ele>193.0</ele><time>2026-05-01T09:24:16.545Z</time></trkpt><trkpt lat="43.1203237" lon="12.4353163"><ele>193.0</ele><time>2026-05-01T09:24:18.568Z</time></trkpt><trkpt lat="43.1204273" lon="12.4353461"><ele>193.0</ele><time>2026-05-01T09:24:20.624Z</time></trkpt><trkpt lat="43.1205094" lon="12.4353923"><ele>193.0</ele><time>2026-05-01T09:24:22.549Z</time></trkpt><trkpt lat="43.1205918" lon="12.4354286"><ele>193.0</ele><time>2026-05-01T09:24:24.586Z</time></trkpt><trkpt lat="43.1206745" lon="12.4354597"><ele>193.0</ele><time>2026-05-01T09:24:26.577Z</time></trkpt><trkpt lat="43.1207606" lon="12.4354886"><ele>193.0</ele><time>2026-05-01T09:24:28.57Z</time></trkpt><trkpt lat="43.1208519" lon="12.4355188"><ele>193.0</ele><time>2026-05-01T09:24:30.551Z</time></trkpt><trkpt lat="43.1209448" lon="12.4355523"><ele>192.8</ele><time>2026-05-01T09:24:32.584Z</time></trkpt><trkpt lat="43.1210326" lon="12.4355757"><ele>192.60000000000002</ele><time>2026-05-01T09:24:34.55Z</time></trkpt><trkpt lat="43.121128" lon="12.4356071"><ele>192.39999999999998</ele><time>2026-05-01T09:24:36.567Z</time></trkpt><trkpt lat="43.1212243" lon="12.4356361"><ele>192.2</ele><time>2026-05-01T09:24:38.548Z</time></trkpt><trkpt lat="43.1213725" lon="12.4356576"><ele>192.0</ele><time>2026-05-01T09:24:41.572Z</time></trkpt><trkpt lat="43.1214718" lon="12.4356456"><ele>192.2</ele><time>2026-05-01T09:24:43.567Z</time></trkpt><trkpt lat="43.1215673" lon="12.4356226"><ele>192.39999999999998</ele><time>2026-05-01T09:24:45.55Z</time></trkpt><trkpt lat="43.1216689" lon="12.4355991"><ele>192.60000000000002</ele><time>2026-05-01T09:24:47.574Z</time></trkpt><trkpt lat="43.1217691" lon="12.435566"><ele>192.8</ele><time>2026-05-01T09:24:49.673Z</time></trkpt><trkpt lat="43.1218655" lon="12.4355444"><ele>193.0</ele><time>2026-05-01T09:24:51.57Z</time></trkpt><trkpt lat="43.1219679" lon="12.4355233"><ele>193.0</ele><time>2026-05-01T09:24:53.545Z</time></trkpt><trkpt lat="43.1220664" lon="12.4354923"><ele>193.0</ele><time>2026-05-01T09:24:55.542Z</time></trkpt><trkpt lat="43.1221626" lon="12.4354618"><ele>193.0</ele><time>2026-05-01T09:24:57.56Z</time></trkpt><trkpt lat="43.1222512" lon="12.4354379"><ele>193.0</ele><time>2026-05-01T09:24:59.549Z</time></trkpt><trkpt lat="43.1223375" lon="12.4354172"><ele>193.0</ele><time>2026-05-01T09:25:01.567Z</time></trkpt><trkpt lat="43.1224092" lon="12.4353859"><ele>192.99999999999997</ele><time>2026-05-01T09:25:03.57Z</time></trkpt><trkpt lat="43.1224773" lon="12.4353685"><ele>193.0</ele><time>2026-05-01T09:25:05.567Z</time></trkpt><trkpt lat="43.1225429" lon="12.4353592"><ele>193.0</ele><time>2026-05-01T09:25:07.611Z</time></trkpt><trkpt lat="43.1226094" lon="12.4353244"><ele>193.0</ele><time>2026-05-01T09:25:09.587Z</time></trkpt><trkpt lat="43.1226948" lon="12.4352894"><ele>192.99999999999997</ele><time>2026-05-01T09:25:11.586Z</time></trkpt><trkpt lat="43.1227728" lon="12.4352414"><ele>193.0</ele><time>2026-05-01T09:25:13.617Z</time></trkpt><trkpt lat="43.1228484" lon="12.4351958"><ele>192.99999999999997</ele><time>2026-05-01T09:25:15.634Z</time></trkpt><trkpt lat="43.1229286" lon="12.4351554"><ele>193.0</ele><time>2026-05-01T09:25:17.57Z</time></trkpt><trkpt lat="43.1230089" lon="12.4351173"><ele>193.0</ele><time>2026-05-01T09:25:19.57Z</time></trkpt><trkpt lat="43.1230934" lon="12.4350738"><ele>193.0</ele><time>2026-05-01T09:25:21.588Z</time></trkpt><trkpt lat="43.1231863" lon="12.4350447"><ele>192.99999999999997</ele><time>2026-05-01T09:25:23.569Z</time></trkpt><trkpt lat="43.1232762" lon="12.4350268"><ele>193.0</ele><time>2026-05-01T09:25:25.542Z</time></trkpt><trkpt lat="43.1233712" lon="12.4349913"><ele>193.0</ele><time>2026-05-01T09:25:27.546Z</time></trkpt><trkpt lat="43.1234978" lon="12.4349296"><ele>193.0</ele><time>2026-05-01T09:25:30.564Z</time></trkpt><trkpt lat="43.1236006" lon="12.43492"><ele>193.0</ele><time>2026-05-01T09:25:33.57Z</time></trkpt><trkpt lat="43.1236622" lon="12.4348659"><ele>193.0</ele><time>2026-05-01T09:25:35.626Z</time></trkpt><trkpt lat="43.1237474" lon="12.4348533"><ele>193.0</ele><time>2026-05-01T09:25:37.61Z</time></trkpt><trkpt lat="43.1238266" lon="12.4348171"><ele>193.0</ele><time>2026-05-01T09:25:39.537Z</time></trkpt><trkpt lat="43.1239152" lon="12.4347776"><ele>193.0</ele><time>2026-05-01T09:25:41.573Z</time></trkpt><trkpt lat="43.1240092" lon="12.4347553"><ele>193.0</ele><time>2026-05-01T09:25:43.584Z</time></trkpt><trkpt lat="43.1241083" lon="12.4347658"><ele>193.0</ele><time>2026-05-01T09:25:45.604Z</time></trkpt><trkpt lat="43.12419" lon="12.4348064"><ele>193.0</ele><time>2026-05-01T09:25:47.569Z</time></trkpt><trkpt lat="43.1242557" lon="12.4348892"><ele>193.0</ele><time>2026-05-01T09:25:49.551Z</time></trkpt><trkpt lat="43.1242627" lon="12.4350111"><ele>193.0</ele><time>2026-05-01T09:25:51.59Z</time></trkpt><trkpt lat="43.124221" lon="12.435084"><ele>193.0</ele><time>2026-05-01T09:25:53.575Z</time></trkpt><trkpt lat="43.1241973" lon="12.4351799"><ele>193.0</ele><time>2026-05-01T09:25:54.604Z</time></trkpt><trkpt lat="43.1241634" lon="12.4353551"><ele>193.0</ele><time>2026-05-01T09:25:57.593Z</time></trkpt><trkpt lat="43.1241514" lon="12.4354878"><ele>193.33333333333331</ele><time>2026-05-01T09:25:59.568Z</time></trkpt><trkpt lat="43.1241404" lon="12.4356073"><ele>193.66666666666666</ele><time>2026-05-01T09:26:01.605Z</time></trkpt><trkpt lat="43.1241254" lon="12.4357281"><ele>194.0</ele><time>2026-05-01T09:26:04.548Z</time></trkpt><trkpt lat="43.1241622" lon="12.4358094"><ele>194.33333333333331</ele><time>2026-05-01T09:26:06.57Z</time></trkpt><trkpt lat="43.1242363" lon="12.435795"><ele>194.66666666666666</ele><time>2026-05-01T09:26:08.572Z</time></trkpt><trkpt lat="43.1243127" lon="12.4357687"><ele>195.0</ele><time>2026-05-01T09:26:10.565Z</time></trkpt><trkpt lat="43.1244008" lon="12.4357626"><ele>195.0</ele><time>2026-05-01T09:26:12.579Z</time></trkpt><trkpt lat="43.124489" lon="12.435764"><ele>195.0</ele><time>2026-05-01T09:26:14.548Z</time></trkpt><trkpt lat="43.124579" lon="12.4357585"><ele>195.0</ele><time>2026-05-01T09:26:16.56Z</time></trkpt><trkpt lat="43.1246731" lon="12.4357453"><ele>195.0</ele><time>2026-05-01T09:26:18.609Z</time></trkpt><trkpt lat="43.1247688" lon="12.4357418"><ele>195.0</ele><time>2026-05-01T09:26:20.613Z</time></trkpt><trkpt lat="43.1248658" lon="12.4357338"><ele>195.4</ele><time>2026-05-01T09:26:22.588Z</time></trkpt><trkpt lat="43.1249674" lon="12.4357319"><ele>195.8</ele><time>2026-05-01T09:26:24.603Z</time></trkpt><trkpt lat="43.1250669" lon="12.4357248"><ele>196.2</ele><time>2026-05-01T09:26:26.577Z</time></trkpt><trkpt lat="43.1251653" lon="12.4357254"><ele>196.6</ele><time>2026-05-01T09:26:28.553Z</time></trkpt><trkpt lat="43.1252619" lon="12.435695"><ele>197.0</ele><time>2026-05-01T09:26:30.533Z</time></trkpt><trkpt lat="43.1253587" lon="12.4356435"><ele>197.0</ele><time>2026-05-01T09:26:32.566Z</time></trkpt><trkpt lat="43.1254383" lon="12.4355518"><ele>197.0</ele><time>2026-05-01T09:26:34.549Z</time></trkpt><trkpt lat="43.1255109" lon="12.4354538"><ele>197.0</ele><time>2026-05-01T09:26:36.537Z</time></trkpt><trkpt lat="43.1256022" lon="12.4353792"><ele>197.0</ele><time>2026-05-01T09:26:38.595Z</time></trkpt><trkpt lat="43.1256919" lon="12.435329"><ele>197.0</ele><time>2026-05-01T09:26:40.566Z</time></trkpt><trkpt lat="43.1258492" lon="12.4352926"><ele>197.2</ele><time>2026-05-01T09:26:43.59Z</time></trkpt><trkpt lat="43.1259526" lon="12.435273"><ele>197.39999999999998</ele><time>2026-05-01T09:26:45.564Z</time></trkpt><trkpt lat="43.1260508" lon="12.4352569"><ele>197.60000000000002</ele><time>2026-05-01T09:26:47.539Z</time></trkpt><trkpt lat="43.1261481" lon="12.4352371"><ele>197.8</ele><time>2026-05-01T09:26:49.545Z</time></trkpt><trkpt lat="43.1262489" lon="12.4352251"><ele>198.0</ele><time>2026-05-01T09:26:51.566Z</time></trkpt><trkpt lat="43.1263447" lon="12.4352463"><ele>198.0</ele><time>2026-05-01T09:26:53.574Z</time></trkpt><trkpt lat="43.126425" lon="12.4353031"><ele>198.0</ele><time>2026-05-01T09:26:55.547Z</time></trkpt><trkpt lat="43.1264934" lon="12.4352714"><ele>198.0</ele><time>2026-05-01T09:26:57.554Z</time></trkpt><trkpt lat="43.1265137" lon="12.4351433"><ele>198.0</ele><time>2026-05-01T09:26:59.586Z</time></trkpt><trkpt lat="43.1265822" lon="12.4350786"><ele>198.0</ele><time>2026-05-01T09:27:01.604Z</time></trkpt><trkpt lat="43.1267069" lon="12.4350913"><ele>197.2</ele><time>2026-05-01T09:27:04.568Z</time></trkpt><trkpt lat="43.1268041" lon="12.435134"><ele>196.4</ele><time>2026-05-01T09:27:06.557Z</time></trkpt><trkpt lat="43.1269165" lon="12.4352154"><ele>195.6</ele><time>2026-05-01T09:27:08.549Z</time></trkpt><trkpt lat="43.1269976" lon="12.4352532"><ele>194.79999999999998</ele><time>2026-05-01T09:27:10.562Z</time></trkpt><trkpt lat="43.1270733" lon="12.4352974"><ele>194.0</ele><time>2026-05-01T09:27:12.591Z</time></trkpt><trkpt lat="43.1271583" lon="12.4353617"><ele>194.0</ele><time>2026-05-01T09:27:14.585Z</time></trkpt><trkpt lat="43.1272246" lon="12.4353994"><ele>194.0</ele><time>2026-05-01T09:27:16.567Z</time></trkpt><trkpt lat="43.1273164" lon="12.4354339"><ele>194.0</ele><time>2026-05-01T09:27:18.55Z</time></trkpt><trkpt lat="43.1274014" lon="12.4355056"><ele>194.0</ele><time>2026-05-01T09:27:20.543Z</time></trkpt><trkpt lat="43.1274801" lon="12.4355863"><ele>194.0</ele><time>2026-05-01T09:27:22.565Z</time></trkpt><trkpt lat="43.1275567" lon="12.4356466"><ele>194.6</ele><time>2026-05-01T09:27:24.525Z</time></trkpt><trkpt lat="43.127636" lon="12.4357173"><ele>195.2</ele><time>2026-05-01T09:27:26.638Z</time></trkpt><trkpt lat="43.1277069" lon="12.4357936"><ele>195.79999999999998</ele><time>2026-05-01T09:27:28.543Z</time></trkpt><trkpt lat="43.1277829" lon="12.4358872"><ele>196.39999999999998</ele><time>2026-05-01T09:27:30.544Z</time></trkpt><trkpt lat="43.1278773" lon="12.4359584"><ele>197.0</ele><time>2026-05-01T09:27:32.528Z</time></trkpt><trkpt lat="43.1279677" lon="12.4360316"><ele>197.0</ele><time>2026-05-01T09:27:34.546Z</time></trkpt><trkpt lat="43.1280625" lon="12.4361007"><ele>197.0</ele><time>2026-05-01T09:27:36.599Z</time></trkpt><trkpt lat="43.1281544" lon="12.4361656"><ele>197.0</ele><time>2026-05-01T09:27:38.536Z</time></trkpt><trkpt lat="43.1282501" lon="12.436224"><ele>197.0</ele><time>2026-05-01T09:27:40.569Z</time></trkpt><trkpt lat="43.1283491" lon="12.4362895"><ele>197.0</ele><time>2026-05-01T09:27:42.548Z</time></trkpt><trkpt lat="43.1284458" lon="12.4363701"><ele>196.8</ele><time>2026-05-01T09:27:44.537Z</time></trkpt><trkpt lat="43.1284986" lon="12.4364181"><ele>196.6</ele><time>2026-05-01T09:27:45.672Z</time></trkpt><trkpt lat="43.1285826" lon="12.4365041"><ele>196.4</ele><time>2026-05-01T09:27:47.541Z</time></trkpt><trkpt lat="43.1286773" lon="12.4365883"><ele>196.20000000000002</ele><time>2026-05-01T09:27:49.56Z</time></trkpt><trkpt lat="43.128777" lon="12.4366613"><ele>196.0</ele><time>2026-05-01T09:27:51.571Z</time></trkpt><trkpt lat="43.1288771" lon="12.4367383"><ele>196.0</ele><time>2026-05-01T09:27:53.567Z</time></trkpt><trkpt lat="43.1289761" lon="12.4368135"><ele>196.0</ele><time>2026-05-01T09:27:55.549Z</time></trkpt><trkpt lat="43.1290741" lon="12.4368993"><ele>196.0</ele><time>2026-05-01T09:27:57.579Z</time></trkpt><trkpt lat="43.1291742" lon="12.4369853"><ele>196.0</ele><time>2026-05-01T09:27:59.528Z</time></trkpt><trkpt lat="43.1292655" lon="12.4370831"><ele>196.0</ele><time>2026-05-01T09:28:01.54Z</time></trkpt><trkpt lat="43.1293582" lon="12.4371775"><ele>196.0</ele><time>2026-05-01T09:28:03.647Z</time></trkpt><trkpt lat="43.129465" lon="12.4372485"><ele>196.0</ele><time>2026-05-01T09:28:05.579Z</time></trkpt><trkpt lat="43.1295232" lon="12.4372913"><ele>196.0</ele><time>2026-05-01T09:28:06.532Z</time></trkpt><trkpt lat="43.1295873" lon="12.4373579"><ele>196.0</ele><time>2026-05-01T09:28:07.697Z</time></trkpt><trkpt lat="43.1296803" lon="12.437466"><ele>196.0</ele><time>2026-05-01T09:28:09.554Z</time></trkpt><trkpt lat="43.1297301" lon="12.4375211"><ele>196.0</ele><time>2026-05-01T09:28:10.549Z</time></trkpt><trkpt lat="43.1298186" lon="12.4376283"><ele>196.0</ele><time>2026-05-01T09:28:12.522Z</time></trkpt><trkpt lat="43.1299058" lon="12.4377382"><ele>196.0</ele><time>2026-05-01T09:28:14.551Z</time></trkpt><trkpt lat="43.1299917" lon="12.4378359"><ele>196.0</ele><time>2026-05-01T09:28:16.553Z</time></trkpt><trkpt lat="43.1300773" lon="12.4379361"><ele>197.0</ele><time>2026-05-01T09:28:18.557Z</time></trkpt><trkpt lat="43.1301272" lon="12.4379969"><ele>198.0</ele><time>2026-05-01T09:28:19.707Z</time></trkpt><trkpt lat="43.130207" lon="12.4380969"><ele>199.0</ele><time>2026-05-01T09:28:21.531Z</time></trkpt><trkpt lat="43.1302902" lon="12.4382045"><ele>200.0</ele><time>2026-05-01T09:28:23.59Z</time></trkpt><trkpt lat="43.1303529" lon="12.4383139"><ele>201.0</ele><time>2026-05-01T09:28:25.555Z</time></trkpt><trkpt lat="43.1304076" lon="12.43843"><ele>201.0</ele><time>2026-05-01T09:28:27.56Z</time></trkpt><trkpt lat="43.1304622" lon="12.4385411"><ele>201.0</ele><time>2026-05-01T09:28:29.54Z</time></trkpt><trkpt lat="43.130515" lon="12.4386532"><ele>201.0</ele><time>2026-05-01T09:28:31.542Z</time></trkpt><trkpt lat="43.1305673" lon="12.4387616"><ele>201.0</ele><time>2026-05-01T09:28:33.543Z</time></trkpt><trkpt lat="43.1306401" lon="12.4388802"><ele>201.0</ele><time>2026-05-01T09:28:35.668Z</time></trkpt><trkpt lat="43.1307062" lon="12.4389948"><ele>200.4</ele><time>2026-05-01T09:28:37.593Z</time></trkpt><trkpt lat="43.1307691" lon="12.439107"><ele>199.8</ele><time>2026-05-01T09:28:39.548Z</time></trkpt><trkpt lat="43.1308231" lon="12.4392298"><ele>199.20000000000002</ele><time>2026-05-01T09:28:41.552Z</time></trkpt><trkpt lat="43.1308789" lon="12.439353"><ele>198.60000000000002</ele><time>2026-05-01T09:28:43.576Z</time></trkpt><trkpt lat="43.1309302" lon="12.4394673"><ele>198.0</ele><time>2026-05-01T09:28:45.567Z</time></trkpt><trkpt lat="43.1309801" lon="12.4395859"><ele>198.4</ele><time>2026-05-01T09:28:47.555Z</time></trkpt><trkpt lat="43.1310471" lon="12.4396922"><ele>198.8</ele><time>2026-05-01T09:28:49.575Z</time></trkpt><trkpt lat="43.1311136" lon="12.439796"><ele>199.2</ele><time>2026-05-01T09:28:51.545Z</time></trkpt><trkpt lat="43.1311846" lon="12.4399042"><ele>199.6</ele><time>2026-05-01T09:28:53.541Z</time></trkpt><trkpt lat="43.1312497" lon="12.4400187"><ele>200.0</ele><time>2026-05-01T09:28:55.553Z</time></trkpt><trkpt lat="43.1313168" lon="12.4401249"><ele>200.0</ele><time>2026-05-01T09:28:57.55Z</time></trkpt><trkpt lat="43.1313806" lon="12.4402418"><ele>200.0</ele><time>2026-05-01T09:28:59.559Z</time></trkpt><trkpt lat="43.1314542" lon="12.4403573"><ele>200.0</ele><time>2026-05-01T09:29:01.613Z</time></trkpt><trkpt lat="43.131519" lon="12.4404576"><ele>200.0</ele><time>2026-05-01T09:29:03.575Z</time></trkpt><trkpt lat="43.1315878" lon="12.4405505"><ele>200.0</ele><time>2026-05-01T09:29:05.594Z</time></trkpt><trkpt lat="43.1316511" lon="12.4406422"><ele>200.0</ele><time>2026-05-01T09:29:07.548Z</time></trkpt><trkpt lat="43.131722" lon="12.4407356"><ele>200.0</ele><time>2026-05-01T09:29:09.562Z</time></trkpt><trkpt lat="43.1317903" lon="12.4408338"><ele>200.0</ele><time>2026-05-01T09:29:11.564Z</time></trkpt><trkpt lat="43.1318637" lon="12.4409328"><ele>200.0</ele><time>2026-05-01T09:29:13.553Z</time></trkpt><trkpt lat="43.131926" lon="12.4410385"><ele>200.0</ele><time>2026-05-01T09:29:15.552Z</time></trkpt><trkpt lat="43.1319857" lon="12.4411367"><ele>200.0</ele><time>2026-05-01T09:29:17.547Z</time></trkpt><trkpt lat="43.1320411" lon="12.441249"><ele>200.0</ele><time>2026-05-01T09:29:19.532Z</time></trkpt><trkpt lat="43.132085" lon="12.4413676"><ele>200.0</ele><time>2026-05-01T09:29:21.526Z</time></trkpt><trkpt lat="43.1321463" lon="12.4414918"><ele>200.0</ele><time>2026-05-01T09:29:23.51Z</time></trkpt><trkpt lat="43.1322126" lon="12.4416112"><ele>200.0</ele><time>2026-05-01T09:29:25.552Z</time></trkpt><trkpt lat="43.1322882" lon="12.4417192"><ele>200.0</ele><time>2026-05-01T09:29:27.534Z</time></trkpt><trkpt lat="43.1323629" lon="12.4418288"><ele>200.0</ele><time>2026-05-01T09:29:29.543Z</time></trkpt><trkpt lat="43.1324094" lon="12.4419199"><ele>200.0</ele><time>2026-05-01T09:29:31.533Z</time></trkpt><trkpt lat="43.1324513" lon="12.4420085"><ele>200.0</ele><time>2026-05-01T09:29:33.529Z</time></trkpt><trkpt lat="43.1325183" lon="12.4421307"><ele>200.0</ele><time>2026-05-01T09:29:35.695Z</time></trkpt><trkpt lat="43.13258" lon="12.4422322"><ele>200.0</ele><time>2026-05-01T09:29:37.546Z</time></trkpt><trkpt lat="43.1326597" lon="12.4423167"><ele>200.0</ele><time>2026-05-01T09:29:39.532Z</time></trkpt><trkpt lat="43.1327387" lon="12.4424172"><ele>200.0</ele><time>2026-05-01T09:29:41.551Z</time></trkpt><trkpt lat="43.1328113" lon="12.442546"><ele>200.0</ele><time>2026-05-01T09:29:43.596Z</time></trkpt><trkpt lat="43.132879" lon="12.4426702"><ele>200.0</ele><time>2026-05-01T09:29:45.553Z</time></trkpt><trkpt lat="43.1329309" lon="12.4427844"><ele>200.0</ele><time>2026-05-01T09:29:47.509Z</time></trkpt><trkpt lat="43.1329982" lon="12.4428808"><ele>200.0</ele><time>2026-05-01T09:29:49.528Z</time></trkpt><trkpt lat="43.1330861" lon="12.4429468"><ele>200.0</ele><time>2026-05-01T09:29:51.591Z</time></trkpt><trkpt lat="43.1332029" lon="12.4429229"><ele>200.0</ele><time>2026-05-01T09:29:53.571Z</time></trkpt><trkpt lat="43.1333215" lon="12.4429473"><ele>200.0</ele><time>2026-05-01T09:29:55.55Z</time></trkpt><trkpt lat="43.1333697" lon="12.4430162"><ele>200.00000000000003</ele><time>2026-05-01T09:29:56.547Z</time></trkpt><trkpt lat="43.1333979" lon="12.4431074"><ele>200.0</ele><time>2026-05-01T09:29:57.487Z</time></trkpt><trkpt lat="43.1334114" lon="12.4432139"><ele>200.0</ele><time>2026-05-01T09:29:58.553Z</time></trkpt><trkpt lat="43.1334177" lon="12.4433111"><ele>200.0</ele><time>2026-05-01T09:29:59.573Z</time></trkpt><trkpt lat="43.1334393" lon="12.4434905"><ele>200.00000000000003</ele><time>2026-05-01T09:30:01.52Z</time></trkpt><trkpt lat="43.1334587" lon="12.4435909"><ele>200.0</ele><time>2026-05-01T09:30:02.539Z</time></trkpt><trkpt lat="43.1334726" lon="12.4436855"><ele>200.00000000000003</ele><time>2026-05-01T09:30:03.523Z</time></trkpt><trkpt lat="43.1334786" lon="12.4437809"><ele>200.0</ele><time>2026-05-01T09:30:04.52Z</time></trkpt><trkpt lat="43.1334794" lon="12.4438772"><ele>200.0</ele><time>2026-05-01T09:30:05.505Z</time></trkpt><trkpt lat="43.1334733" lon="12.4439731"><ele>200.0</ele><time>2026-05-01T09:30:06.519Z</time></trkpt><trkpt lat="43.1334582" lon="12.4440649"><ele>200.00000000000003</ele><time>2026-05-01T09:30:07.535Z</time></trkpt><trkpt lat="43.1334397" lon="12.4441508"><ele>200.0</ele><time>2026-05-01T09:30:08.535Z</time></trkpt><trkpt lat="43.1333979" lon="12.4443129"><ele>199.6</ele><time>2026-05-01T09:30:10.528Z</time></trkpt><trkpt lat="43.1333682" lon="12.4443926"><ele>199.2</ele><time>2026-05-01T09:30:11.519Z</time></trkpt><trkpt lat="43.1333436" lon="12.4444753"><ele>198.8</ele><time>2026-05-01T09:30:12.544Z</time></trkpt><trkpt lat="43.1333006" lon="12.4446412"><ele>198.4</ele><time>2026-05-01T09:30:14.575Z</time></trkpt><trkpt lat="43.133272" lon="12.444809"><ele>198.0</ele><time>2026-05-01T09:30:16.649Z</time></trkpt><trkpt lat="43.1332494" lon="12.4449648"><ele>198.2</ele><time>2026-05-01T09:30:18.553Z</time></trkpt><trkpt lat="43.133239" lon="12.4450541"><ele>198.4</ele><time>2026-05-01T09:30:19.567Z</time></trkpt><trkpt lat="43.1332287" lon="12.4451412"><ele>198.6</ele><time>2026-05-01T09:30:20.547Z</time></trkpt><trkpt lat="43.1332013" lon="12.4453149"><ele>198.79999999999998</ele><time>2026-05-01T09:30:22.627Z</time></trkpt><trkpt lat="43.1331848" lon="12.445459"><ele>199.0</ele><time>2026-05-01T09:30:24.539Z</time></trkpt><trkpt lat="43.1331554" lon="12.4456137"><ele>199.16666666666666</ele><time>2026-05-01T09:30:26.617Z</time></trkpt><trkpt lat="43.1331433" lon="12.4457521"><ele>199.33333333333331</ele><time>2026-05-01T09:30:28.532Z</time></trkpt><trkpt lat="43.1331413" lon="12.4458615"><ele>199.5</ele><time>2026-05-01T09:30:30.547Z</time></trkpt><trkpt lat="43.1331261" lon="12.4459792"><ele>199.66666666666669</ele><time>2026-05-01T09:30:33.548Z</time></trkpt><trkpt lat="43.1331396" lon="12.4461094"><ele>199.83333333333334</ele><time>2026-05-01T09:30:35.552Z</time></trkpt><trkpt lat="43.1331584" lon="12.4462111"><ele>200.0</ele><time>2026-05-01T09:30:37.587Z</time></trkpt><trkpt lat="43.1331784" lon="12.4462982"><ele>200.0</ele><time>2026-05-01T09:30:38.715Z</time></trkpt><trkpt lat="43.1331962" lon="12.4464225"><ele>200.0</ele><time>2026-05-01T09:30:40.551Z</time></trkpt><trkpt lat="43.1332002" lon="12.4465465"><ele>200.0</ele><time>2026-05-01T09:30:42.587Z</time></trkpt><trkpt lat="43.1332198" lon="12.4466763"><ele>200.0</ele><time>2026-05-01T09:30:44.563Z</time></trkpt><trkpt lat="43.1332717" lon="12.4468132"><ele>200.0</ele><time>2026-05-01T09:30:46.573Z</time></trkpt><trkpt lat="43.1333046" lon="12.4469318"><ele>199.66666666666669</ele><time>2026-05-01T09:30:48.678Z</time></trkpt><trkpt lat="43.1333181" lon="12.4470408"><ele>199.33333333333334</ele><time>2026-05-01T09:30:51.809Z</time></trkpt><trkpt lat="43.1333375" lon="12.4471939"><ele>199.0</ele><time>2026-05-01T09:30:54.573Z</time></trkpt><trkpt lat="43.1333267" lon="12.4472888"><ele>198.66666666666669</ele><time>2026-05-01T09:30:56.514Z</time></trkpt><trkpt lat="43.1333305" lon="12.4473909"><ele>198.33333333333334</ele><time>2026-05-01T09:30:58.602Z</time></trkpt><trkpt lat="43.1333524" lon="12.4474859"><ele>198.0</ele><time>2026-05-01T09:31:00.673Z</time></trkpt><trkpt lat="43.1334277" lon="12.4475244"><ele>197.5</ele><time>2026-05-01T09:31:02.574Z</time></trkpt><trkpt lat="43.1335086" lon="12.4474913"><ele>197.0</ele><time>2026-05-01T09:31:04.723Z</time></trkpt><trkpt lat="43.1335678" lon="12.4474449"><ele>196.5</ele><time>2026-05-01T09:31:06.616Z</time></trkpt><trkpt lat="43.1336258" lon="12.4474096"><ele>196.0</ele><time>2026-05-01T09:31:08.636Z</time></trkpt><trkpt lat="43.133708" lon="12.4473677"><ele>195.5</ele><time>2026-05-01T09:31:11.607Z</time></trkpt><trkpt lat="43.1337992" lon="12.4473464"><ele>195.0</ele><time>2026-05-01T09:31:14.698Z</time></trkpt><trkpt lat="43.1338744" lon="12.4473047"><ele>195.0</ele><time>2026-05-01T09:31:17.594Z</time></trkpt><trkpt lat="43.1339545" lon="12.4472616"><ele>195.0</ele><time>2026-05-01T09:31:20.641Z</time></trkpt><trkpt lat="43.1340287" lon="12.4472189"><ele>195.0</ele><time>2026-05-01T09:31:23.615Z</time></trkpt><trkpt lat="43.1340933" lon="12.4471899"><ele>195.0</ele><time>2026-05-01T09:31:25.634Z</time></trkpt><trkpt lat="43.1341675" lon="12.4471537"><ele>195.0</ele><time>2026-05-01T09:31:27.62Z</time></trkpt><trkpt lat="43.134254" lon="12.4471094"><ele>195.0</ele><time>2026-05-01T09:31:29.591Z</time></trkpt><trkpt lat="43.1343748" lon="12.4470851"><ele>195.4</ele><time>2026-05-01T09:31:31.575Z</time></trkpt><trkpt lat="43.1344183" lon="12.4472452"><ele>195.8</ele><time>2026-05-01T09:31:33.596Z</time></trkpt><trkpt lat="43.1344092" lon="12.4473568"><ele>196.2</ele><time>2026-05-01T09:31:34.584Z</time></trkpt><trkpt lat="43.1344035" lon="12.447473"><ele>196.6</ele><time>2026-05-01T09:31:35.569Z</time></trkpt><trkpt lat="43.1344135" lon="12.4475825"><ele>197.0</ele><time>2026-05-01T09:31:36.571Z</time></trkpt><trkpt lat="43.1344404" lon="12.4476879"><ele>197.00000000000003</ele><time>2026-05-01T09:31:37.585Z</time></trkpt><trkpt lat="43.1344808" lon="12.4477861"><ele>197.0</ele><time>2026-05-01T09:31:38.553Z</time></trkpt><trkpt lat="43.134536" lon="12.4478734"><ele>197.0</ele><time>2026-05-01T09:31:39.587Z</time></trkpt><trkpt lat="43.1345956" lon="12.4479427"><ele>197.0</ele><time>2026-05-01T09:31:40.594Z</time></trkpt><trkpt lat="43.1346418" lon="12.4480085"><ele>197.00000000000003</ele><time>2026-05-01T09:31:41.576Z</time></trkpt><trkpt lat="43.1347157" lon="12.4481414"><ele>197.0</ele><time>2026-05-01T09:31:43.576Z</time></trkpt><trkpt lat="43.1347855" lon="12.4482694"><ele>196.5</ele><time>2026-05-01T09:31:45.567Z</time></trkpt><trkpt lat="43.1348674" lon="12.4483866"><ele>196.0</ele><time>2026-05-01T09:31:47.572Z</time></trkpt><trkpt lat="43.1349193" lon="12.4484445"><ele>195.5</ele><time>2026-05-01T09:31:48.686Z</time></trkpt><trkpt lat="43.135039" lon="12.4485986"><ele>195.0</ele><time>2026-05-01T09:31:51.573Z</time></trkpt><trkpt lat="43.1351246" lon="12.4486963"><ele>194.8</ele><time>2026-05-01T09:31:53.557Z</time></trkpt><trkpt lat="43.1352027" lon="12.4487851"><ele>194.6</ele><time>2026-05-01T09:31:55.534Z</time></trkpt><trkpt lat="43.1352901" lon="12.4488894"><ele>194.39999999999998</ele><time>2026-05-01T09:31:57.546Z</time></trkpt><trkpt lat="43.1353557" lon="12.4488999"><ele>194.2</ele><time>2026-05-01T09:31:58.673Z</time></trkpt><trkpt lat="43.1354397" lon="12.4488375"><ele>194.0</ele><time>2026-05-01T09:32:00.555Z</time></trkpt><trkpt lat="43.135502" lon="12.4487384"><ele>194.0</ele><time>2026-05-01T09:32:02.558Z</time></trkpt><trkpt lat="43.1355567" lon="12.4486369"><ele>194.0</ele><time>2026-05-01T09:32:04.589Z</time></trkpt><trkpt lat="43.1356291" lon="12.4485379"><ele>194.0</ele><time>2026-05-01T09:32:06.884Z</time></trkpt><trkpt lat="43.1356937" lon="12.4484684"><ele>194.0</ele><time>2026-05-01T09:32:08.582Z</time></trkpt><trkpt lat="43.1358041" lon="12.4483499"><ele>194.0</ele><time>2026-05-01T09:32:11.593Z</time></trkpt><trkpt lat="43.135862" lon="12.4484062"><ele>194.16666666666669</ele><time>2026-05-01T09:32:14.697Z</time></trkpt><trkpt lat="43.1359046" lon="12.4485009"><ele>194.33333333333334</ele><time>2026-05-01T09:32:16.519Z</time></trkpt><trkpt lat="43.1359603" lon="12.4486134"><ele>194.5</ele><time>2026-05-01T09:32:17.57Z</time></trkpt><trkpt lat="43.1359977" lon="12.4486998"><ele>194.66666666666669</ele><time>2026-05-01T09:32:18.58Z</time></trkpt><trkpt lat="43.1360309" lon="12.448777"><ele>194.83333333333334</ele><time>2026-05-01T09:32:19.585Z</time></trkpt><trkpt lat="43.1360715" lon="12.4488691"><ele>195.0</ele><time>2026-05-01T09:32:20.887Z</time></trkpt><trkpt lat="43.1361189" lon="12.4489823"><ele>195.0</ele><time>2026-05-01T09:32:22.579Z</time></trkpt><trkpt lat="43.1361691" lon="12.449118"><ele>195.0</ele><time>2026-05-01T09:32:24.694Z</time></trkpt><trkpt lat="43.1362137" lon="12.449231"><ele>195.0</ele><time>2026-05-01T09:32:26.533Z</time></trkpt><trkpt lat="43.1362581" lon="12.4493356"><ele>195.0</ele><time>2026-05-01T09:32:28.591Z</time></trkpt><trkpt lat="43.1362947" lon="12.4494406"><ele>195.0</ele><time>2026-05-01T09:32:30.571Z</time></trkpt><trkpt lat="43.136345" lon="12.4495551"><ele>195.2</ele><time>2026-05-01T09:32:32.563Z</time></trkpt><trkpt lat="43.1363922" lon="12.4496779"><ele>195.4</ele><time>2026-05-01T09:32:34.575Z</time></trkpt><trkpt lat="43.1364514" lon="12.4497924"><ele>195.60000000000002</ele><time>2026-05-01T09:32:36.685Z</time></trkpt><trkpt lat="43.1365106" lon="12.4498968"><ele>195.8</ele><time>2026-05-01T09:32:38.57Z</time></trkpt><trkpt lat="43.1365664" lon="12.4500177"><ele>196.0</ele><time>2026-05-01T09:32:40.593Z</time></trkpt><trkpt lat="43.1366239" lon="12.450136"><ele>196.20000000000002</ele><time>2026-05-01T09:32:42.557Z</time></trkpt><trkpt lat="43.1366676" lon="12.4502722"><ele>196.4</ele><time>2026-05-01T09:32:44.561Z</time></trkpt><trkpt lat="43.1367195" lon="12.4503975"><ele>196.6</ele><time>2026-05-01T09:32:46.573Z</time></trkpt><trkpt lat="43.1367756" lon="12.4505166"><ele>196.8</ele><time>2026-05-01T09:32:48.593Z</time></trkpt><trkpt lat="43.136826" lon="12.4506277"><ele>197.0</ele><time>2026-05-01T09:32:50.575Z</time></trkpt><trkpt lat="43.1369001" lon="12.4507948"><ele>197.0</ele><time>2026-05-01T09:32:53.545Z</time></trkpt><trkpt lat="43.1369698" lon="12.4508977"><ele>197.0</ele><time>2026-05-01T09:32:55.658Z</time></trkpt><trkpt lat="43.1370646" lon="12.4509046"><ele>197.0</ele><time>2026-05-01T09:32:57.558Z</time></trkpt><trkpt lat="43.1371483" lon="12.4509698"><ele>197.0</ele><time>2026-05-01T09:32:59.587Z</time></trkpt><trkpt lat="43.1371884" lon="12.4510862"><ele>197.0</ele><time>2026-05-01T09:33:01.603Z</time></trkpt><trkpt lat="43.1372335" lon="12.4512025"><ele>196.6</ele><time>2026-05-01T09:33:03.573Z</time></trkpt><trkpt lat="43.1372857" lon="12.4513175"><ele>196.2</ele><time>2026-05-01T09:33:05.55Z</time></trkpt><trkpt lat="43.137337" lon="12.4514236"><ele>195.8</ele><time>2026-05-01T09:33:07.55Z</time></trkpt><trkpt lat="43.1373878" lon="12.4515344"><ele>195.4</ele><time>2026-05-01T09:33:09.532Z</time></trkpt><trkpt lat="43.1374356" lon="12.451651"><ele>195.0</ele><time>2026-05-01T09:33:11.598Z</time></trkpt><trkpt lat="43.1374903" lon="12.4517584"><ele>195.57142857142856</ele><time>2026-05-01T09:33:13.567Z</time></trkpt><trkpt lat="43.1375431" lon="12.4518607"><ele>196.14285714285714</ele><time>2026-05-01T09:33:15.733Z</time></trkpt><trkpt lat="43.1375795" lon="12.451932"><ele>196.71428571428572</ele><time>2026-05-01T09:33:17.603Z</time></trkpt><trkpt lat="43.1376213" lon="12.4520057"><ele>197.28571428571428</ele><time>2026-05-01T09:33:20.569Z</time></trkpt><trkpt lat="43.1376622" lon="12.452087"><ele>197.85714285714286</ele><time>2026-05-01T09:33:25.607Z</time></trkpt><trkpt lat="43.1377456" lon="12.4520926"><ele>198.42857142857142</ele><time>2026-05-01T09:33:28.601Z</time></trkpt><trkpt lat="43.1377886" lon="12.4520275"><ele>199.0</ele><time>2026-05-01T09:33:32.619Z</time></trkpt><trkpt lat="43.1378369" lon="12.4521081"><ele>198.99999999999997</ele><time>2026-05-01T09:33:37.572Z</time></trkpt><trkpt lat="43.1378593" lon="12.4522019"><ele>199.0</ele><time>2026-05-01T09:33:42.649Z</time></trkpt><trkpt lat="43.1379131" lon="12.4522914"><ele>199.0</ele><time>2026-05-01T09:33:46.577Z</time></trkpt><trkpt lat="43.137964" lon="12.4523745"><ele>199.0</ele><time>2026-05-01T09:33:50.596Z</time></trkpt><trkpt lat="43.137916" lon="12.4523048"><ele>198.99999999999997</ele><time>2026-05-01T09:33:59.475Z</time></trkpt><trkpt lat="43.1378374" lon="12.4521437"><ele>199.0</ele><time>2026-05-01T09:34:01.6Z</time></trkpt><trkpt lat="43.1377584" lon="12.4520602"><ele>198.6</ele><time>2026-05-01T09:34:03.541Z</time></trkpt><trkpt lat="43.1376933" lon="12.4521481"><ele>198.2</ele><time>2026-05-01T09:34:05.68Z</time></trkpt><trkpt lat="43.1376503" lon="12.4522725"><ele>197.79999999999998</ele><time>2026-05-01T09:34:07.533Z</time></trkpt><trkpt lat="43.1376395" lon="12.4524265"><ele>197.39999999999998</ele><time>2026-05-01T09:34:10.561Z</time></trkpt><trkpt lat="43.1377081" lon="12.4524904"><ele>197.0</ele><time>2026-05-01T09:34:13.54Z</time></trkpt><trkpt lat="43.1377879" lon="12.4525751"><ele>197.0</ele><time>2026-05-01T09:34:15.607Z</time></trkpt><trkpt lat="43.1378758" lon="12.4526342"><ele>197.0</ele><time>2026-05-01T09:34:17.556Z</time></trkpt><trkpt lat="43.1379673" lon="12.4526932"><ele>197.0</ele><time>2026-05-01T09:34:19.579Z</time></trkpt><trkpt lat="43.1380516" lon="12.4527593"><ele>197.0</ele><time>2026-05-01T09:34:21.536Z</time></trkpt><trkpt lat="43.138131" lon="12.4528334"><ele>197.0</ele><time>2026-05-01T09:34:23.558Z</time></trkpt><trkpt lat="43.1382016" lon="12.452906"><ele>197.0</ele><time>2026-05-01T09:34:25.535Z</time></trkpt><trkpt lat="43.1382718" lon="12.4529823"><ele>197.0</ele><time>2026-05-01T09:34:27.54Z</time></trkpt><trkpt lat="43.1383571" lon="12.4530535"><ele>197.0</ele><time>2026-05-01T09:34:29.682Z</time></trkpt><trkpt lat="43.1384312" lon="12.4531126"><ele>197.0</ele><time>2026-05-01T09:34:31.554Z</time></trkpt><trkpt lat="43.1385095" lon="12.4531811"><ele>197.0</ele><time>2026-05-01T09:34:33.549Z</time></trkpt><trkpt lat="43.1386005" lon="12.4532645"><ele>197.0</ele><time>2026-05-01T09:34:35.869Z</time></trkpt><trkpt lat="43.138682" lon="12.45336"><ele>197.0</ele><time>2026-05-01T09:34:38.589Z</time></trkpt><trkpt lat="43.1387431" lon="12.4533977"><ele>197.0</ele><time>2026-05-01T09:34:39.561Z</time></trkpt><trkpt lat="43.1388265" lon="12.4534684"><ele>197.0</ele><time>2026-05-01T09:34:41.584Z</time></trkpt><trkpt lat="43.1389125" lon="12.4535459"><ele>197.0</ele><time>2026-05-01T09:34:43.589Z</time></trkpt><trkpt lat="43.1389882" lon="12.4536082"><ele>197.6</ele><time>2026-05-01T09:34:45.55Z</time></trkpt><trkpt lat="43.1390586" lon="12.4536683"><ele>198.2</ele><time>2026-05-01T09:34:47.587Z</time></trkpt><trkpt lat="43.1391357" lon="12.453739"><ele>198.8</ele><time>2026-05-01T09:34:49.658Z</time></trkpt><trkpt lat="43.1392108" lon="12.4538152"><ele>199.4</ele><time>2026-05-01T09:34:51.557Z</time></trkpt><trkpt lat="43.1393044" lon="12.4538733"><ele>200.0</ele><time>2026-05-01T09:34:53.59Z</time></trkpt><trkpt lat="43.1393911" lon="12.4539541"><ele>200.0</ele><time>2026-05-01T09:34:55.564Z</time></trkpt><trkpt lat="43.1394698" lon="12.4540356"><ele>200.0</ele><time>2026-05-01T09:34:57.585Z</time></trkpt><trkpt lat="43.1395504" lon="12.4541175"><ele>200.0</ele><time>2026-05-01T09:34:59.611Z</time></trkpt><trkpt lat="43.139633" lon="12.4541917"><ele>200.0</ele><time>2026-05-01T09:35:01.562Z</time></trkpt><trkpt lat="43.1397084" lon="12.4542463"><ele>200.0</ele><time>2026-05-01T09:35:03.571Z</time></trkpt><trkpt lat="43.1397696" lon="12.4542921"><ele>200.0</ele><time>2026-05-01T09:35:05.563Z</time></trkpt><trkpt lat="43.1398221" lon="12.4543433"><ele>200.0</ele><time>2026-05-01T09:35:09.588Z</time></trkpt><trkpt lat="43.1399084" lon="12.4544253"><ele>200.0</ele><time>2026-05-01T09:35:12.714Z</time></trkpt><trkpt lat="43.1400043" lon="12.4544975"><ele>200.0</ele><time>2026-05-01T09:35:15.458Z</time></trkpt><trkpt lat="43.1400869" lon="12.4545645"><ele>200.0</ele><time>2026-05-01T09:35:17.614Z</time></trkpt><trkpt lat="43.1401584" lon="12.4546243"><ele>199.83333333333334</ele><time>2026-05-01T09:35:19.635Z</time></trkpt><trkpt lat="43.1402179" lon="12.454685"><ele>199.66666666666669</ele><time>2026-05-01T09:35:21.559Z</time></trkpt><trkpt lat="43.1402683" lon="12.4547369"><ele>199.5</ele><time>2026-05-01T09:35:23.58Z</time></trkpt><trkpt lat="43.1403249" lon="12.4547868"><ele>199.33333333333331</ele><time>2026-05-01T09:35:25.578Z</time></trkpt><trkpt lat="43.1403986" lon="12.4548783"><ele>199.16666666666666</ele><time>2026-05-01T09:35:27.578Z</time></trkpt><trkpt lat="43.1404757" lon="12.4549587"><ele>199.0</ele><time>2026-05-01T09:35:29.557Z</time></trkpt><trkpt lat="43.1405673" lon="12.4550272"><ele>199.0</ele><time>2026-05-01T09:35:31.556Z</time></trkpt><trkpt lat="43.1406523" lon="12.455105"><ele>199.0</ele><time>2026-05-01T09:35:33.587Z</time></trkpt><trkpt lat="43.1407242" lon="12.4551701"><ele>199.0</ele><time>2026-05-01T09:35:35.621Z</time></trkpt><trkpt lat="43.1408115" lon="12.4552399"><ele>199.0</ele><time>2026-05-01T09:35:38.582Z</time></trkpt><trkpt lat="43.1408869" lon="12.4552796"><ele>199.0</ele><time>2026-05-01T09:35:40.562Z</time></trkpt><trkpt lat="43.1409636" lon="12.4553276"><ele>199.33333333333331</ele><time>2026-05-01T09:35:42.615Z</time></trkpt><trkpt lat="43.1410363" lon="12.4554001"><ele>199.66666666666666</ele><time>2026-05-01T09:35:44.59Z</time></trkpt><trkpt lat="43.1411087" lon="12.4554715"><ele>200.0</ele><time>2026-05-01T09:35:46.597Z</time></trkpt><trkpt lat="43.1411829" lon="12.4555378"><ele>200.33333333333331</ele><time>2026-05-01T09:35:48.605Z</time></trkpt><trkpt lat="43.1412542" lon="12.4555832"><ele>200.66666666666666</ele><time>2026-05-01T09:35:50.531Z</time></trkpt><trkpt lat="43.1413302" lon="12.4556322"><ele>201.0</ele><time>2026-05-01T09:35:52.532Z</time></trkpt><trkpt lat="43.1414419" lon="12.4556869"><ele>201.0</ele><time>2026-05-01T09:35:54.552Z</time></trkpt><trkpt lat="43.141541" lon="12.4557249"><ele>201.0</ele><time>2026-05-01T09:35:56.581Z</time></trkpt><trkpt lat="43.1416234" lon="12.4557487"><ele>201.0</ele><time>2026-05-01T09:35:58.607Z</time></trkpt><trkpt lat="43.1417017" lon="12.4557636"><ele>201.0</ele><time>2026-05-01T09:36:00.581Z</time></trkpt><trkpt lat="43.1417766" lon="12.4557946"><ele>201.0</ele><time>2026-05-01T09:36:02.555Z</time></trkpt><trkpt lat="43.1418475" lon="12.4558324"><ele>201.0</ele><time>2026-05-01T09:36:04.605Z</time></trkpt><trkpt lat="43.1419283" lon="12.4558728"><ele>200.5</ele><time>2026-05-01T09:36:07.585Z</time></trkpt><trkpt lat="43.1419619" lon="12.4559473"><ele>200.0</ele><time>2026-05-01T09:36:10.638Z</time></trkpt><trkpt lat="43.1418983" lon="12.456045"><ele>199.5</ele><time>2026-05-01T09:36:13.681Z</time></trkpt><trkpt lat="43.1418314" lon="12.4561137"><ele>199.0</ele><time>2026-05-01T09:36:16.642Z</time></trkpt><trkpt lat="43.1418263" lon="12.4562149"><ele>198.5</ele><time>2026-05-01T09:36:19.551Z</time></trkpt><trkpt lat="43.1418653" lon="12.4562887"><ele>198.0</ele><time>2026-05-01T09:36:21.608Z</time></trkpt><trkpt lat="43.141893" lon="12.4563773"><ele>197.33333333333334</ele><time>2026-05-01T09:36:24.1Z</time></trkpt><trkpt lat="43.1419644" lon="12.4564347"><ele>196.66666666666669</ele><time>2026-05-01T09:36:27.121Z</time></trkpt><trkpt lat="43.1420482" lon="12.4564256"><ele>196.0</ele><time>2026-05-01T09:36:29.575Z</time></trkpt><trkpt lat="43.1421261" lon="12.4564175"><ele>195.33333333333334</ele><time>2026-05-01T09:36:31.708Z</time></trkpt><trkpt lat="43.1421994" lon="12.4564116"><ele>194.66666666666669</ele><time>2026-05-01T09:36:33.602Z</time></trkpt><trkpt lat="43.1422882" lon="12.456405"><ele>194.0</ele><time>2026-05-01T09:36:35.623Z</time></trkpt><trkpt lat="43.1423745" lon="12.4563902"><ele>194.33333333333334</ele><time>2026-05-01T09:36:37.618Z</time></trkpt><trkpt lat="43.1424617" lon="12.4564023"><ele>194.66666666666669</ele><time>2026-05-01T09:36:39.581Z</time></trkpt><trkpt lat="43.1425424" lon="12.4564057"><ele>195.0</ele><time>2026-05-01T09:36:41.584Z</time></trkpt><trkpt lat="43.14262" lon="12.4564076"><ele>195.33333333333331</ele><time>2026-05-01T09:36:43.598Z</time></trkpt><trkpt lat="43.1426789" lon="12.4564403"><ele>195.66666666666666</ele><time>2026-05-01T09:36:45.624Z</time></trkpt><trkpt lat="43.1427522" lon="12.4564342"><ele>196.0</ele><time>2026-05-01T09:36:49.623Z</time></trkpt><trkpt lat="43.1427994" lon="12.4565235"><ele>196.0</ele><time>2026-05-01T09:36:59.625Z</time></trkpt><trkpt lat="43.1428301" lon="12.4566076"><ele>196.0</ele><time>2026-05-01T09:37:02.61Z</time></trkpt><trkpt lat="43.1428234" lon="12.4567147"><ele>196.0</ele><time>2026-05-01T09:37:06.645Z</time></trkpt><trkpt lat="43.1428609" lon="12.4568038"><ele>196.0</ele><time>2026-05-01T09:37:10.598Z</time></trkpt><trkpt lat="43.142929" lon="12.4568475"><ele>196.0</ele><time>2026-05-01T09:37:18.892Z</time></trkpt><trkpt lat="43.1428662" lon="12.4568233"><ele>196.0</ele><time>2026-05-01T09:38:39.582Z</time></trkpt><trkpt lat="43.1428415" lon="12.4567322"><ele>196.0</ele><time>2026-05-01T09:39:53.621Z</time></trkpt><trkpt lat="43.142812" lon="12.4566552"><ele>196.0</ele><time>2026-05-01T09:40:01.627Z</time></trkpt><trkpt lat="43.1427818" lon="12.4565745"><ele>196.0</ele><time>2026-05-01T09:40:07.62Z</time></trkpt><trkpt lat="43.1427304" lon="12.4565082"><ele>196.0</ele><time>2026-05-01T09:40:13.59Z</time></trkpt><trkpt lat="43.1426731" lon="12.4564645"><ele>196.0</ele><time>2026-05-01T09:40:19.652Z</time></trkpt><trkpt lat="43.1426095" lon="12.4564242"><ele>196.0</ele><time>2026-05-01T09:41:34.537Z</time></trkpt><trkpt lat="43.1425357" lon="12.4564173"><ele>196.0</ele><time>2026-05-01T09:41:36.602Z</time></trkpt><trkpt lat="43.1424411" lon="12.4564227"><ele>196.0</ele><time>2026-05-01T09:41:39.647Z</time></trkpt><trkpt lat="43.1423758" lon="12.4564141"><ele>195.66666666666666</ele><time>2026-05-01T09:41:41.599Z</time></trkpt><trkpt lat="43.1423075" lon="12.4564002"><ele>195.33333333333331</ele><time>2026-05-01T09:41:44.017Z</time></trkpt><trkpt lat="43.1422218" lon="12.4564093"><ele>195.0</ele><time>2026-05-01T09:41:46.375Z</time></trkpt><trkpt lat="43.1421432" lon="12.4564167"><ele>194.66666666666669</ele><time>2026-05-01T09:41:48.625Z</time></trkpt><trkpt lat="43.1420766" lon="12.4564259"><ele>194.33333333333334</ele><time>2026-05-01T09:41:50.605Z</time></trkpt><trkpt lat="43.14198" lon="12.4564241"><ele>194.0</ele><time>2026-05-01T09:41:53.553Z</time></trkpt><trkpt lat="43.1419117" lon="12.4563659"><ele>194.66666666666669</ele><time>2026-05-01T09:41:55.607Z</time></trkpt><trkpt lat="43.14187" lon="12.4562712"><ele>195.33333333333334</ele><time>2026-05-01T09:41:57.598Z</time></trkpt><trkpt lat="43.1418569" lon="12.4561681"><ele>196.0</ele><time>2026-05-01T09:41:59.615Z</time></trkpt><trkpt lat="43.1418334" lon="12.4560769"><ele>196.66666666666669</ele><time>2026-05-01T09:42:01.58Z</time></trkpt><trkpt lat="43.1418455" lon="12.4559668"><ele>197.33333333333334</ele><time>2026-05-01T09:42:04.482Z</time></trkpt><trkpt lat="43.1419265" lon="12.4558999"><ele>198.0</ele><time>2026-05-01T09:42:07.622Z</time></trkpt><trkpt lat="43.141954" lon="12.4558214"><ele>198.0</ele><time>2026-05-01T09:42:09.639Z</time></trkpt><trkpt lat="43.1419862" lon="12.4557073"><ele>198.0</ele><time>2026-05-01T09:42:12.559Z</time></trkpt><trkpt lat="43.1420106" lon="12.4556179"><ele>198.0</ele><time>2026-05-01T09:42:14.611Z</time></trkpt><trkpt lat="43.142036" lon="12.4555386"><ele>198.0</ele><time>2026-05-01T09:42:16.634Z</time></trkpt><trkpt lat="43.1420629" lon="12.4554223"><ele>198.0</ele><time>2026-05-01T09:42:19.537Z</time></trkpt><trkpt lat="43.142101" lon="12.4553414"><ele>198.0</ele><time>2026-05-01T09:42:22.639Z</time></trkpt><trkpt lat="43.1421776" lon="12.4553076"><ele>198.0</ele><time>2026-05-01T09:42:26.6Z</time></trkpt><trkpt lat="43.1422253" lon="12.4553797"><ele>198.0</ele><time>2026-05-01T09:42:28.618Z</time></trkpt><trkpt lat="43.1422753" lon="12.4554555"><ele>198.0</ele><time>2026-05-01T09:42:30.61Z</time></trkpt><trkpt lat="43.1423475" lon="12.4555176"><ele>198.0</ele><time>2026-05-01T09:42:32.628Z</time></trkpt><trkpt lat="43.1424234" lon="12.45557"><ele>198.0</ele><time>2026-05-01T09:42:34.576Z</time></trkpt><trkpt lat="43.1425006" lon="12.4556241"><ele>198.0</ele><time>2026-05-01T09:42:36.622Z</time></trkpt><trkpt lat="43.1426077" lon="12.4556986"><ele>197.85714285714286</ele><time>2026-05-01T09:42:39.629Z</time></trkpt><trkpt lat="43.1426761" lon="12.4557486"><ele>197.7142857142857</ele><time>2026-05-01T09:42:41.602Z</time></trkpt><trkpt lat="43.1427414" lon="12.4558028"><ele>197.57142857142856</ele><time>2026-05-01T09:42:43.598Z</time></trkpt><trkpt lat="43.1428054" lon="12.4558591"><ele>197.42857142857144</ele><time>2026-05-01T09:42:45.624Z</time></trkpt><trkpt lat="43.1428713" lon="12.4559125"><ele>197.28571428571428</ele><time>2026-05-01T09:42:47.637Z</time></trkpt><trkpt lat="43.142927" lon="12.4559707"><ele>197.14285714285714</ele><time>2026-05-01T09:42:49.658Z</time></trkpt><trkpt lat="43.1429843" lon="12.4560172"><ele>197.0</ele><time>2026-05-01T09:42:51.678Z</time></trkpt><trkpt lat="43.1430315" lon="12.4560772"><ele>197.0</ele><time>2026-05-01T09:42:53.579Z</time></trkpt><trkpt lat="43.143082" lon="12.4561533"><ele>197.0</ele><time>2026-05-01T09:42:55.62Z</time></trkpt><trkpt lat="43.1431421" lon="12.4562168"><ele>197.0</ele><time>2026-05-01T09:42:57.621Z</time></trkpt><trkpt lat="43.1432075" lon="12.4562879"><ele>197.0</ele><time>2026-05-01T09:42:59.76Z</time></trkpt><trkpt lat="43.1432538" lon="12.4563583"><ele>197.0</ele><time>2026-05-01T09:43:01.575Z</time></trkpt><trkpt lat="43.1433133" lon="12.4564103"><ele>197.0</ele><time>2026-05-01T09:43:03.537Z</time></trkpt><trkpt lat="43.1433709" lon="12.4564555"><ele>197.0</ele><time>2026-05-01T09:43:05.593Z</time></trkpt><trkpt lat="43.1434553" lon="12.4564691"><ele>197.00000000000003</ele><time>2026-05-01T09:43:08.59Z</time></trkpt><trkpt lat="43.1433932" lon="12.4564342"><ele>197.0</ele><time>2026-05-01T09:43:15.692Z</time></trkpt><trkpt lat="43.1433137" lon="12.4563753"><ele>197.0</ele><time>2026-05-01T09:43:17.76Z</time></trkpt><trkpt lat="43.1432594" lon="12.456294"><ele>197.0</ele><time>2026-05-01T09:43:19.571Z</time></trkpt><trkpt lat="43.1431997" lon="12.4562247"><ele>197.00000000000003</ele><time>2026-05-01T09:43:21.536Z</time></trkpt><trkpt lat="43.14313" lon="12.4561563"><ele>197.0</ele><time>2026-05-01T09:43:23.676Z</time></trkpt><trkpt lat="43.1430535" lon="12.4560806"><ele>197.00000000000003</ele><time>2026-05-01T09:43:25.596Z</time></trkpt><trkpt lat="43.1429881" lon="12.4560038"><ele>197.0</ele><time>2026-05-01T09:43:27.603Z</time></trkpt><trkpt lat="43.1429179" lon="12.4559417"><ele>197.0</ele><time>2026-05-01T09:43:29.599Z</time></trkpt><trkpt lat="43.1428876" lon="12.4558443"><ele>197.0</ele><time>2026-05-01T09:43:31.615Z</time></trkpt><trkpt lat="43.1429389" lon="12.4557431"><ele>197.00000000000003</ele><time>2026-05-01T09:43:33.636Z</time></trkpt><trkpt lat="43.1429954" lon="12.4556773"><ele>197.0</ele><time>2026-05-01T09:43:35.792Z</time></trkpt><trkpt lat="43.1430093" lon="12.4555669"><ele>197.0</ele><time>2026-05-01T09:43:38.036Z</time></trkpt><trkpt lat="43.1430481" lon="12.4554432"><ele>197.0</ele><time>2026-05-01T09:43:40.59Z</time></trkpt><trkpt lat="43.143133" lon="12.4554509"><ele>197.0</ele><time>2026-05-01T09:43:42.619Z</time></trkpt><trkpt lat="43.1431978" lon="12.4555305"><ele>197.0</ele><time>2026-05-01T09:43:44.613Z</time></trkpt><trkpt lat="43.1432779" lon="12.455597"><ele>197.0</ele><time>2026-05-01T09:43:46.731Z</time></trkpt><trkpt lat="43.1433787" lon="12.4556727"><ele>197.66666666666669</ele><time>2026-05-01T09:43:49.498Z</time></trkpt><trkpt lat="43.1434422" lon="12.4557056"><ele>198.33333333333334</ele><time>2026-05-01T09:43:51.202Z</time></trkpt><trkpt lat="43.1435656" lon="12.4557753"><ele>199.0</ele><time>2026-05-01T09:43:54.595Z</time></trkpt><trkpt lat="43.1436403" lon="12.455824"><ele>199.66666666666669</ele><time>2026-05-01T09:43:56.625Z</time></trkpt><trkpt lat="43.1437084" lon="12.4558715"><ele>200.33333333333334</ele><time>2026-05-01T09:43:58.503Z</time></trkpt><trkpt lat="43.1437805" lon="12.4559322"><ele>201.0</ele><time>2026-05-01T09:44:00.488Z</time></trkpt><trkpt lat="43.1438637" lon="12.4559798"><ele>201.0</ele><time>2026-05-01T09:44:02.647Z</time></trkpt><trkpt lat="43.1439295" lon="12.4560487"><ele>201.0</ele><time>2026-05-01T09:44:04.607Z</time></trkpt><trkpt lat="43.1440027" lon="12.4561294"><ele>201.0</ele><time>2026-05-01T09:44:06.619Z</time></trkpt><trkpt lat="43.144106" lon="12.4562737"><ele>201.0</ele><time>2026-05-01T09:44:09.601Z</time></trkpt><trkpt lat="43.1441078" lon="12.4564142"><ele>201.0</ele><time>2026-05-01T09:44:11.606Z</time></trkpt><trkpt lat="43.1439883" lon="12.456559"><ele>200.16666666666666</ele><time>2026-05-01T09:44:14.692Z</time></trkpt><trkpt lat="43.1439402" lon="12.4566685"><ele>199.33333333333331</ele><time>2026-05-01T09:44:16.601Z</time></trkpt><trkpt lat="43.1438903" lon="12.4567787"><ele>198.5</ele><time>2026-05-01T09:44:18.625Z</time></trkpt><trkpt lat="43.1438483" lon="12.456884"><ele>197.66666666666666</ele><time>2026-05-01T09:44:20.593Z</time></trkpt><trkpt lat="43.1438067" lon="12.4569768"><ele>196.83333333333331</ele><time>2026-05-01T09:44:22.608Z</time></trkpt><trkpt lat="43.1438119" lon="12.457092"><ele>196.0</ele><time>2026-05-01T09:44:25.699Z</time></trkpt><trkpt lat="43.1438813" lon="12.4571609"><ele>195.99999999999997</ele><time>2026-05-01T09:44:28.602Z</time></trkpt><trkpt lat="43.143939" lon="12.4572222"><ele>196.0</ele><time>2026-05-01T09:44:30.6Z</time></trkpt><trkpt lat="43.1439982" lon="12.4572844"><ele>196.0</ele><time>2026-05-01T09:44:32.633Z</time></trkpt><trkpt lat="43.1440629" lon="12.4573379"><ele>196.0</ele><time>2026-05-01T09:44:34.642Z</time></trkpt><trkpt lat="43.1441276" lon="12.4573902"><ele>195.99999999999997</ele><time>2026-05-01T09:44:36.606Z</time></trkpt><trkpt lat="43.1441862" lon="12.4574592"><ele>196.0</ele><time>2026-05-01T09:44:38.675Z</time></trkpt><trkpt lat="43.1442448" lon="12.4575235"><ele>196.49999999999997</ele><time>2026-05-01T09:44:40.621Z</time></trkpt><trkpt lat="43.1443191" lon="12.4575738"><ele>197.0</ele><time>2026-05-01T09:44:42.623Z</time></trkpt><trkpt lat="43.1444028" lon="12.4576041"><ele>197.5</ele><time>2026-05-01T09:44:44.686Z</time></trkpt><trkpt lat="43.1444767" lon="12.4576274"><ele>198.0</ele><time>2026-05-01T09:44:46.571Z</time></trkpt><trkpt lat="43.1445418" lon="12.4576651"><ele>198.49999999999997</ele><time>2026-05-01T09:44:48.62Z</time></trkpt><trkpt lat="43.1445958" lon="12.4577389"><ele>199.0</ele><time>2026-05-01T09:44:50.642Z</time></trkpt><trkpt lat="43.1446537" lon="12.4578198"><ele>199.0</ele><time>2026-05-01T09:44:52.607Z</time></trkpt><trkpt lat="43.1447186" lon="12.4579035"><ele>199.0</ele><time>2026-05-01T09:44:54.614Z</time></trkpt><trkpt lat="43.144792" lon="12.4579792"><ele>199.0</ele><time>2026-05-01T09:44:56.644Z</time></trkpt><trkpt lat="43.1448887" lon="12.4580579"><ele>199.0</ele><time>2026-05-01T09:44:58.598Z</time></trkpt><trkpt lat="43.1449791" lon="12.4581418"><ele>199.0</ele><time>2026-05-01T09:45:00.594Z</time></trkpt><trkpt lat="43.1450455" lon="12.4582447"><ele>198.79999999999998</ele><time>2026-05-01T09:45:02.586Z</time></trkpt><trkpt lat="43.1450927" lon="12.4583574"><ele>198.6</ele><time>2026-05-01T09:45:04.583Z</time></trkpt><trkpt lat="43.1451221" lon="12.4584852"><ele>198.4</ele><time>2026-05-01T09:45:06.55Z</time></trkpt><trkpt lat="43.1451449" lon="12.4586356"><ele>198.2</ele><time>2026-05-01T09:45:08.609Z</time></trkpt><trkpt lat="43.1451736" lon="12.4587868"><ele>198.0</ele><time>2026-05-01T09:45:10.597Z</time></trkpt><trkpt lat="43.1452093" lon="12.4589402"><ele>198.0</ele><time>2026-05-01T09:45:12.556Z</time></trkpt><trkpt lat="43.1452227" lon="12.4590268"><ele>198.0</ele><time>2026-05-01T09:45:13.589Z</time></trkpt><trkpt lat="43.1452577" lon="12.4591891"><ele>198.0</ele><time>2026-05-01T09:45:15.574Z</time></trkpt><trkpt lat="43.1452883" lon="12.4593521"><ele>198.0</ele><time>2026-05-01T09:45:17.563Z</time></trkpt><trkpt lat="43.1453152" lon="12.4595069"><ele>198.0</ele><time>2026-05-01T09:45:19.572Z</time></trkpt><trkpt lat="43.1453367" lon="12.4596733"><ele>198.0</ele><time>2026-05-01T09:45:21.572Z</time></trkpt><trkpt lat="43.1453538" lon="12.4598323"><ele>198.0</ele><time>2026-05-01T09:45:23.563Z</time></trkpt><trkpt lat="43.1453663" lon="12.4599771"><ele>198.0</ele><time>2026-05-01T09:45:25.565Z</time></trkpt><trkpt lat="43.1453918" lon="12.4601414"><ele>198.0</ele><time>2026-05-01T09:45:27.591Z</time></trkpt><trkpt lat="43.1454135" lon="12.4603093"><ele>198.0</ele><time>2026-05-01T09:45:29.554Z</time></trkpt><trkpt lat="43.1454358" lon="12.4604782"><ele>198.0</ele><time>2026-05-01T09:45:31.602Z</time></trkpt><trkpt lat="43.1454624" lon="12.4606403"><ele>198.0</ele><time>2026-05-01T09:45:33.568Z</time></trkpt><trkpt lat="43.1454842" lon="12.460805"><ele>198.0</ele><time>2026-05-01T09:45:35.613Z</time></trkpt><trkpt lat="43.14552" lon="12.4609712"><ele>198.0</ele><time>2026-05-01T09:45:37.618Z</time></trkpt><trkpt lat="43.1455488" lon="12.461056"><ele>198.0</ele><time>2026-05-01T09:45:38.698Z</time></trkpt><trkpt lat="43.1456113" lon="12.4611905"><ele>198.0</ele><time>2026-05-01T09:45:40.595Z</time></trkpt><trkpt lat="43.1456697" lon="12.4613223"><ele>198.0</ele><time>2026-05-01T09:45:42.574Z</time></trkpt><trkpt lat="43.1457174" lon="12.4614657"><ele>198.0</ele><time>2026-05-01T09:45:44.566Z</time></trkpt><trkpt lat="43.1457478" lon="12.461545"><ele>197.8</ele><time>2026-05-01T09:45:45.591Z</time></trkpt><trkpt lat="43.145777" lon="12.461626"><ele>197.60000000000002</ele><time>2026-05-01T09:45:46.599Z</time></trkpt><trkpt lat="43.1458119" lon="12.4618086"><ele>197.39999999999998</ele><time>2026-05-01T09:45:48.801Z</time></trkpt><trkpt lat="43.1458461" lon="12.4619559"><ele>197.2</ele><time>2026-05-01T09:45:50.56Z</time></trkpt><trkpt lat="43.1458959" lon="12.4621047"><ele>197.0</ele><time>2026-05-01T09:45:52.567Z</time></trkpt><trkpt lat="43.1459608" lon="12.4622424"><ele>197.75</ele><time>2026-05-01T09:45:54.605Z</time></trkpt><trkpt lat="43.1460415" lon="12.4623821"><ele>198.5</ele><time>2026-05-01T09:45:56.567Z</time></trkpt><trkpt lat="43.1461248" lon="12.4625017"><ele>199.25</ele><time>2026-05-01T09:45:58.572Z</time></trkpt><trkpt lat="43.1462366" lon="12.4625741"><ele>200.0</ele><time>2026-05-01T09:46:00.677Z</time></trkpt><trkpt lat="43.1463298" lon="12.4626198"><ele>200.0</ele><time>2026-05-01T09:46:02.593Z</time></trkpt><trkpt lat="43.1464371" lon="12.4626478"><ele>200.0</ele><time>2026-05-01T09:46:04.593Z</time></trkpt><trkpt lat="43.1465539" lon="12.4626525"><ele>200.0</ele><time>2026-05-01T09:46:06.579Z</time></trkpt><trkpt lat="43.1466723" lon="12.4626305"><ele>200.0</ele><time>2026-05-01T09:46:08.557Z</time></trkpt><trkpt lat="43.1467979" lon="12.4625895"><ele>199.6</ele><time>2026-05-01T09:46:10.582Z</time></trkpt><trkpt lat="43.1468585" lon="12.4625616"><ele>199.2</ele><time>2026-05-01T09:46:11.552Z</time></trkpt><trkpt lat="43.1469738" lon="12.4624945"><ele>198.8</ele><time>2026-05-01T09:46:13.594Z</time></trkpt><trkpt lat="43.1470746" lon="12.4624137"><ele>198.4</ele><time>2026-05-01T09:46:15.599Z</time></trkpt><trkpt lat="43.1471677" lon="12.4623259"><ele>198.0</ele><time>2026-05-01T09:46:17.592Z</time></trkpt><trkpt lat="43.1472732" lon="12.4622453"><ele>198.0</ele><time>2026-05-01T09:46:19.605Z</time></trkpt><trkpt lat="43.1473749" lon="12.4621587"><ele>198.0</ele><time>2026-05-01T09:46:21.582Z</time></trkpt><trkpt lat="43.1474684" lon="12.4620732"><ele>198.0</ele><time>2026-05-01T09:46:23.578Z</time></trkpt><trkpt lat="43.147542" lon="12.4619996"><ele>198.0</ele><time>2026-05-01T09:46:25.568Z</time></trkpt><trkpt lat="43.1476122" lon="12.461936"><ele>198.0</ele><time>2026-05-01T09:46:27.616Z</time></trkpt><trkpt lat="43.1476959" lon="12.4618986"><ele>198.2</ele><time>2026-05-01T09:46:29.594Z</time></trkpt><trkpt lat="43.1477926" lon="12.461864"><ele>198.4</ele><time>2026-05-01T09:46:31.69Z</time></trkpt><trkpt lat="43.1478895" lon="12.4618398"><ele>198.6</ele><time>2026-05-01T09:46:33.571Z</time></trkpt><trkpt lat="43.1479981" lon="12.4618083"><ele>198.79999999999998</ele><time>2026-05-01T09:46:35.594Z</time></trkpt><trkpt lat="43.1481002" lon="12.4617589"><ele>199.0</ele><time>2026-05-01T09:46:37.599Z</time></trkpt><trkpt lat="43.148198" lon="12.4616944"><ele>199.39999999999998</ele><time>2026-05-01T09:46:39.581Z</time></trkpt><trkpt lat="43.1482943" lon="12.4616276"><ele>199.8</ele><time>2026-05-01T09:46:41.571Z</time></trkpt><trkpt lat="43.1483946" lon="12.4615624"><ele>200.2</ele><time>2026-05-01T09:46:43.575Z</time></trkpt><trkpt lat="43.148498" lon="12.4615"><ele>200.60000000000002</ele><time>2026-05-01T09:46:45.585Z</time></trkpt><trkpt lat="43.1485951" lon="12.4614367"><ele>201.0</ele><time>2026-05-01T09:46:47.563Z</time></trkpt><trkpt lat="43.1486948" lon="12.461369"><ele>201.0</ele><time>2026-05-01T09:46:49.594Z</time></trkpt><trkpt lat="43.1487885" lon="12.4612937"><ele>201.0</ele><time>2026-05-01T09:46:51.597Z</time></trkpt><trkpt lat="43.1488836" lon="12.4612174"><ele>201.0</ele><time>2026-05-01T09:46:53.561Z</time></trkpt><trkpt lat="43.1489925" lon="12.4611397"><ele>201.0</ele><time>2026-05-01T09:46:55.597Z</time></trkpt><trkpt lat="43.1490883" lon="12.4610386"><ele>201.0</ele><time>2026-05-01T09:46:57.607Z</time></trkpt><trkpt lat="43.1491834" lon="12.4609373"><ele>201.0</ele><time>2026-05-01T09:46:59.605Z</time></trkpt><trkpt lat="43.1492809" lon="12.4608396"><ele>201.0</ele><time>2026-05-01T09:47:01.587Z</time></trkpt><trkpt lat="43.1493829" lon="12.4607466"><ele>201.0</ele><time>2026-05-01T09:47:03.593Z</time></trkpt><trkpt lat="43.1494377" lon="12.4606937"><ele>201.0</ele><time>2026-05-01T09:47:04.701Z</time></trkpt><trkpt lat="43.1495318" lon="12.460618"><ele>201.0</ele><time>2026-05-01T09:47:06.549Z</time></trkpt><trkpt lat="43.1496306" lon="12.460526"><ele>201.0</ele><time>2026-05-01T09:47:08.572Z</time></trkpt><trkpt lat="43.1497301" lon="12.4604285"><ele>201.0</ele><time>2026-05-01T09:47:10.598Z</time></trkpt><trkpt lat="43.1498271" lon="12.4603323"><ele>201.0</ele><time>2026-05-01T09:47:12.581Z</time></trkpt><trkpt lat="43.149922" lon="12.4602322"><ele>200.75</ele><time>2026-05-01T09:47:14.597Z</time></trkpt><trkpt lat="43.1500166" lon="12.4601444"><ele>200.5</ele><time>2026-05-01T09:47:16.576Z</time></trkpt><trkpt lat="43.1501069" lon="12.4600473"><ele>200.25</ele><time>2026-05-01T09:47:18.582Z</time></trkpt><trkpt lat="43.1502053" lon="12.4599594"><ele>200.0</ele><time>2026-05-01T09:47:20.611Z</time></trkpt><trkpt lat="43.1502865" lon="12.4598586"><ele>200.0</ele><time>2026-05-01T09:47:22.575Z</time></trkpt><trkpt lat="43.1503711" lon="12.4597612"><ele>200.0</ele><time>2026-05-01T09:47:24.599Z</time></trkpt><trkpt lat="43.1504556" lon="12.4596644"><ele>200.0</ele><time>2026-05-01T09:47:26.617Z</time></trkpt><trkpt lat="43.1505329" lon="12.4595673"><ele>200.0</ele><time>2026-05-01T09:47:28.558Z</time></trkpt><trkpt lat="43.1506232" lon="12.4594796"><ele>200.0</ele><time>2026-05-01T09:47:30.588Z</time></trkpt><trkpt lat="43.1507177" lon="12.4593806"><ele>200.75</ele><time>2026-05-01T09:47:32.567Z</time></trkpt><trkpt lat="43.1508092" lon="12.4592867"><ele>201.5</ele><time>2026-05-01T09:47:34.59Z</time></trkpt><trkpt lat="43.1508846" lon="12.4591681"><ele>202.25</ele><time>2026-05-01T09:47:36.574Z</time></trkpt><trkpt lat="43.1509633" lon="12.4590509"><ele>203.0</ele><time>2026-05-01T09:47:38.593Z</time></trkpt><trkpt lat="43.1510489" lon="12.4589482"><ele>203.0</ele><time>2026-05-01T09:47:40.605Z</time></trkpt><trkpt lat="43.1511714" lon="12.4587863"><ele>203.0</ele><time>2026-05-01T09:47:43.589Z</time></trkpt><trkpt lat="43.1512581" lon="12.458683"><ele>203.0</ele><time>2026-05-01T09:47:45.606Z</time></trkpt><trkpt lat="43.1513457" lon="12.4585876"><ele>203.0</ele><time>2026-05-01T09:47:47.569Z</time></trkpt><trkpt lat="43.1514339" lon="12.4584841"><ele>202.5</ele><time>2026-05-01T09:47:49.588Z</time></trkpt><trkpt lat="43.1515227" lon="12.458384"><ele>202.0</ele><time>2026-05-01T09:47:51.594Z</time></trkpt><trkpt lat="43.1516125" lon="12.4582889"><ele>201.5</ele><time>2026-05-01T09:47:53.565Z</time></trkpt><trkpt lat="43.1517029" lon="12.4581888"><ele>201.0</ele><time>2026-05-01T09:47:55.577Z</time></trkpt><trkpt lat="43.1517949" lon="12.4580885"><ele>201.0</ele><time>2026-05-01T09:47:57.635Z</time></trkpt><trkpt lat="43.1518833" lon="12.4580039"><ele>201.0</ele><time>2026-05-01T09:47:59.559Z</time></trkpt><trkpt lat="43.1519745" lon="12.4579165"><ele>201.0</ele><time>2026-05-01T09:48:01.593Z</time></trkpt><trkpt lat="43.152065" lon="12.4578311"><ele>201.0</ele><time>2026-05-01T09:48:03.577Z</time></trkpt><trkpt lat="43.1521499" lon="12.4577381"><ele>201.0</ele><time>2026-05-01T09:48:05.587Z</time></trkpt><trkpt lat="43.1522322" lon="12.4576453"><ele>201.0</ele><time>2026-05-01T09:48:07.566Z</time></trkpt><trkpt lat="43.152317" lon="12.4575415"><ele>201.0</ele><time>2026-05-01T09:48:09.606Z</time></trkpt><trkpt lat="43.1524014" lon="12.4574427"><ele>201.0</ele><time>2026-05-01T09:48:11.609Z</time></trkpt><trkpt lat="43.1524888" lon="12.4573472"><ele>201.0</ele><time>2026-05-01T09:48:13.692Z</time></trkpt><trkpt lat="43.1525512" lon="12.4572588"><ele>201.0</ele><time>2026-05-01T09:48:15.609Z</time></trkpt><trkpt lat="43.152648" lon="12.4571276"><ele>200.8</ele><time>2026-05-01T09:48:18.547Z</time></trkpt><trkpt lat="43.1527422" lon="12.4570288"><ele>200.60000000000002</ele><time>2026-05-01T09:48:20.591Z</time></trkpt><trkpt lat="43.1528269" lon="12.4569337"><ele>200.4</ele><time>2026-05-01T09:48:22.57Z</time></trkpt><trkpt lat="43.1529086" lon="12.4568386"><ele>200.2</ele><time>2026-05-01T09:48:24.564Z</time></trkpt><trkpt lat="43.1529922" lon="12.456734"><ele>200.0</ele><time>2026-05-01T09:48:26.579Z</time></trkpt><trkpt lat="43.153073" lon="12.4566317"><ele>200.0</ele><time>2026-05-01T09:48:28.581Z</time></trkpt><trkpt lat="43.1531497" lon="12.4565294"><ele>200.0</ele><time>2026-05-01T09:48:30.589Z</time></trkpt><trkpt lat="43.1532259" lon="12.4564275"><ele>200.0</ele><time>2026-05-01T09:48:32.589Z</time></trkpt><trkpt lat="43.1532997" lon="12.4563223"><ele>200.0</ele><time>2026-05-01T09:48:34.602Z</time></trkpt><trkpt lat="43.153379" lon="12.4562254"><ele>200.0</ele><time>2026-05-01T09:48:36.571Z</time></trkpt><trkpt lat="43.1534513" lon="12.4561154"><ele>200.2</ele><time>2026-05-01T09:48:38.566Z</time></trkpt><trkpt lat="43.1535284" lon="12.4560101"><ele>200.4</ele><time>2026-05-01T09:48:40.586Z</time></trkpt><trkpt lat="43.1536057" lon="12.4559058"><ele>200.60000000000002</ele><time>2026-05-01T09:48:42.602Z</time></trkpt><trkpt lat="43.1536793" lon="12.4558015"><ele>200.8</ele><time>2026-05-01T09:48:44.565Z</time></trkpt><trkpt lat="43.1537527" lon="12.4556959"><ele>201.0</ele><time>2026-05-01T09:48:46.564Z</time></trkpt><trkpt lat="43.1538265" lon="12.4555858"><ele>201.0</ele><time>2026-05-01T09:48:48.624Z</time></trkpt><trkpt lat="43.1539008" lon="12.4554875"><ele>201.0</ele><time>2026-05-01T09:48:50.555Z</time></trkpt><trkpt lat="43.1539773" lon="12.4553787"><ele>201.0</ele><time>2026-05-01T09:48:52.599Z</time></trkpt><trkpt lat="43.1540496" lon="12.4552748"><ele>201.0</ele><time>2026-05-01T09:48:54.553Z</time></trkpt><trkpt lat="43.1541287" lon="12.4551638"><ele>201.0</ele><time>2026-05-01T09:48:56.59Z</time></trkpt><trkpt lat="43.1542088" lon="12.4550582"><ele>201.20000000000002</ele><time>2026-05-01T09:48:58.611Z</time></trkpt><trkpt lat="43.1542891" lon="12.454958"><ele>201.4</ele><time>2026-05-01T09:49:00.592Z</time></trkpt><trkpt lat="43.1543715" lon="12.4548564"><ele>201.6</ele><time>2026-05-01T09:49:02.577Z</time></trkpt><trkpt lat="43.1544495" lon="12.4547484"><ele>201.8</ele><time>2026-05-01T09:49:04.609Z</time></trkpt><trkpt lat="43.1545271" lon="12.4546444"><ele>202.0</ele><time>2026-05-01T09:49:06.605Z</time></trkpt><trkpt lat="43.1546099" lon="12.4545435"><ele>201.8</ele><time>2026-05-01T09:49:08.6Z</time></trkpt><trkpt lat="43.1546831" lon="12.454483"><ele>201.6</ele><time>2026-05-01T09:49:10.251Z</time></trkpt><trkpt lat="43.1547722" lon="12.4543788"><ele>201.4</ele><time>2026-05-01T09:49:12.251Z</time></trkpt><trkpt lat="43.1548646" lon="12.4542755"><ele>201.20000000000002</ele><time>2026-05-01T09:49:14.606Z</time></trkpt><trkpt lat="43.1549418" lon="12.454166"><ele>201.0</ele><time>2026-05-01T09:49:16.569Z</time></trkpt><trkpt lat="43.1550232" lon="12.4540651"><ele>201.0</ele><time>2026-05-01T09:49:18.602Z</time></trkpt><trkpt lat="43.1551403" lon="12.4539291"><ele>201.0</ele><time>2026-05-01T09:49:21.599Z</time></trkpt><trkpt lat="43.1552123" lon="12.4538454"><ele>201.0</ele><time>2026-05-01T09:49:23.543Z</time></trkpt><trkpt lat="43.1552907" lon="12.4537339"><ele>201.0</ele><time>2026-05-01T09:49:25.863Z</time></trkpt><trkpt lat="43.1553523" lon="12.4536712"><ele>201.0</ele><time>2026-05-01T09:49:27.582Z</time></trkpt><trkpt lat="43.1554171" lon="12.4535929"><ele>201.42857142857142</ele><time>2026-05-01T09:49:29.593Z</time></trkpt><trkpt lat="43.155465" lon="12.4535199"><ele>201.85714285714286</ele><time>2026-05-01T09:49:31.582Z</time></trkpt><trkpt lat="43.1555175" lon="12.4534639"><ele>202.28571428571428</ele><time>2026-05-01T09:49:34.618Z</time></trkpt><trkpt lat="43.1555168" lon="12.4533558"><ele>202.71428571428572</ele><time>2026-05-01T09:49:37.609Z</time></trkpt><trkpt lat="43.15545" lon="12.4533084"><ele>203.14285714285717</ele><time>2026-05-01T09:49:42.159Z</time></trkpt><trkpt lat="43.1554273" lon="12.4532251"><ele>203.57142857142858</ele><time>2026-05-01T09:49:48.591Z</time></trkpt><trkpt lat="43.1554889" lon="12.4532706"><ele>204.0</ele><time>2026-05-01T09:50:16.579Z</time></trkpt><trkpt lat="43.1555306" lon="12.4533456"><ele>204.0</ele><time>2026-05-01T09:50:23.617Z</time></trkpt><trkpt lat="43.1555752" lon="12.4534078"><ele>204.0</ele><time>2026-05-01T09:50:32.622Z</time></trkpt><trkpt lat="43.1556206" lon="12.4534813"><ele>204.0</ele><time>2026-05-01T09:50:38.558Z</time></trkpt><trkpt lat="43.1556781" lon="12.4535339"><ele>204.0</ele><time>2026-05-01T09:50:41.596Z</time></trkpt><trkpt lat="43.155742" lon="12.4536134"><ele>204.0</ele><time>2026-05-01T09:50:44.589Z</time></trkpt><trkpt lat="43.1558058" lon="12.4537005"><ele>204.0</ele><time>2026-05-01T09:50:47.598Z</time></trkpt><trkpt lat="43.1558648" lon="12.4537991"><ele>203.14285714285714</ele><time>2026-05-01T09:50:50.621Z</time></trkpt><trkpt lat="43.1559046" lon="12.4538765"><ele>202.28571428571428</ele><time>2026-05-01T09:50:53.614Z</time></trkpt><trkpt lat="43.1559461" lon="12.4539585"><ele>201.42857142857144</ele><time>2026-05-01T09:50:56.633Z</time></trkpt><trkpt lat="43.1559982" lon="12.4540207"><ele>200.57142857142856</ele><time>2026-05-01T09:51:00.604Z</time></trkpt><trkpt lat="43.1560381" lon="12.4540875"><ele>199.7142857142857</ele><time>2026-05-01T09:51:16.65Z</time></trkpt><trkpt lat="43.156089" lon="12.454165"><ele>198.85714285714286</ele><time>2026-05-01T09:51:25.747Z</time></trkpt><trkpt lat="43.1560803" lon="12.454065"><ele>198.0</ele><time>2026-05-01T09:51:36.621Z</time></trkpt><trkpt lat="43.1560129" lon="12.4539924"><ele>198.0</ele><time>2026-05-01T09:51:39.618Z</time></trkpt><trkpt lat="43.1560558" lon="12.4538769"><ele>198.0</ele><time>2026-05-01T09:51:42.631Z</time></trkpt><trkpt lat="43.1561365" lon="12.4538384"><ele>198.0</ele><time>2026-05-01T09:51:44.552Z</time></trkpt><trkpt lat="43.1562285" lon="12.4537746"><ele>198.0</ele><time>2026-05-01T09:51:46.605Z</time></trkpt><trkpt lat="43.1563042" lon="12.4536886"><ele>198.0</ele><time>2026-05-01T09:51:48.633Z</time></trkpt><trkpt lat="43.1563703" lon="12.4535976"><ele>198.0</ele><time>2026-05-01T09:51:50.616Z</time></trkpt><trkpt lat="43.1564349" lon="12.4535079"><ele>198.0</ele><time>2026-05-01T09:51:52.706Z</time></trkpt><trkpt lat="43.1564981" lon="12.4534312"><ele>198.0</ele><time>2026-05-01T09:51:54.636Z</time></trkpt><trkpt lat="43.1565674" lon="12.4533542"><ele>198.0</ele><time>2026-05-01T09:51:56.605Z</time></trkpt><trkpt lat="43.1566328" lon="12.4532939"><ele>198.0</ele><time>2026-05-01T09:51:58.569Z</time></trkpt><trkpt lat="43.156698" lon="12.4532603"><ele>198.0</ele><time>2026-05-01T09:52:00.617Z</time></trkpt><trkpt lat="43.1567605" lon="12.4532493"><ele>198.0</ele><time>2026-05-01T09:52:03.619Z</time></trkpt><trkpt lat="43.1567494" lon="12.4531433"><ele>198.0</ele><time>2026-05-01T09:52:08.021Z</time></trkpt><trkpt lat="43.1567735" lon="12.4530363"><ele>198.0</ele><time>2026-05-01T09:52:13.598Z</time></trkpt><trkpt lat="43.1568264" lon="12.4529573"><ele>198.0</ele><time>2026-05-01T09:52:15.609Z</time></trkpt><trkpt lat="43.1568882" lon="12.4529"><ele>198.0</ele><time>2026-05-01T09:52:16.635Z</time></trkpt><trkpt lat="43.1569533" lon="12.4528294"><ele>198.0</ele><time>2026-05-01T09:52:18.611Z</time></trkpt><trkpt lat="43.1570066" lon="12.4527673"><ele>198.4</ele><time>2026-05-01T09:52:19.629Z</time></trkpt><trkpt lat="43.1570705" lon="12.4526684"><ele>198.8</ele><time>2026-05-01T09:52:21.601Z</time></trkpt><trkpt lat="43.1571242" lon="12.4525934"><ele>199.2</ele><time>2026-05-01T09:52:24.633Z</time></trkpt><trkpt lat="43.1571824" lon="12.4524944"><ele>199.6</ele><time>2026-05-01T09:52:26.822Z</time></trkpt><trkpt lat="43.1572645" lon="12.4523952"><ele>200.0</ele><time>2026-05-01T09:52:29.619Z</time></trkpt><trkpt lat="43.1573418" lon="12.4522636"><ele>200.0</ele><time>2026-05-01T09:52:32.43Z</time></trkpt><trkpt lat="43.1574" lon="12.4521459"><ele>200.0</ele><time>2026-05-01T09:52:34.508Z</time></trkpt><trkpt lat="43.1574637" lon="12.4520541"><ele>200.0</ele><time>2026-05-01T09:52:36.633Z</time></trkpt><trkpt lat="43.1575173" lon="12.451958"><ele>200.0</ele><time>2026-05-01T09:52:38.672Z</time></trkpt><trkpt lat="43.15757" lon="12.4518692"><ele>200.0</ele><time>2026-05-01T09:52:40.637Z</time></trkpt><trkpt lat="43.1576214" lon="12.4517745"><ele>199.8</ele><time>2026-05-01T09:52:42.613Z</time></trkpt><trkpt lat="43.157677" lon="12.4516743"><ele>199.6</ele><time>2026-05-01T09:52:44.606Z</time></trkpt><trkpt lat="43.1577314" lon="12.4515712"><ele>199.39999999999998</ele><time>2026-05-01T09:52:46.602Z</time></trkpt><trkpt lat="43.1577932" lon="12.4514729"><ele>199.2</ele><time>2026-05-01T09:52:48.609Z</time></trkpt><trkpt lat="43.1578586" lon="12.4513846"><ele>199.0</ele><time>2026-05-01T09:52:50.608Z</time></trkpt><trkpt lat="43.1579387" lon="12.4513072"><ele>199.6</ele><time>2026-05-01T09:52:52.625Z</time></trkpt><trkpt lat="43.1580184" lon="12.45124"><ele>200.2</ele><time>2026-05-01T09:52:54.583Z</time></trkpt><trkpt lat="43.1580971" lon="12.4511627"><ele>200.79999999999998</ele><time>2026-05-01T09:52:56.603Z</time></trkpt><trkpt lat="43.1581714" lon="12.4510708"><ele>201.39999999999998</ele><time>2026-05-01T09:52:58.64Z</time></trkpt><trkpt lat="43.1582316" lon="12.4509698"><ele>202.0</ele><time>2026-05-01T09:53:00.63Z</time></trkpt><trkpt lat="43.1582864" lon="12.4508586"><ele>202.0</ele><time>2026-05-01T09:53:02.655Z</time></trkpt><trkpt lat="43.1583308" lon="12.45074"><ele>202.0</ele><time>2026-05-01T09:53:04.628Z</time></trkpt><trkpt lat="43.1583729" lon="12.450608"><ele>202.0</ele><time>2026-05-01T09:53:06.705Z</time></trkpt><trkpt lat="43.1584223" lon="12.4504021"><ele>202.0</ele><time>2026-05-01T09:53:09.612Z</time></trkpt><trkpt lat="43.1584558" lon="12.4502408"><ele>201.8</ele><time>2026-05-01T09:53:11.623Z</time></trkpt><trkpt lat="43.1584721" lon="12.4501546"><ele>201.6</ele><time>2026-05-01T09:53:12.614Z</time></trkpt><trkpt lat="43.1584882" lon="12.4500551"><ele>201.4</ele><time>2026-05-01T09:53:13.735Z</time></trkpt><trkpt lat="43.1585249" lon="12.4498986"><ele>201.20000000000002</ele><time>2026-05-01T09:53:15.617Z</time></trkpt><trkpt lat="43.1585637" lon="12.4497383"><ele>201.0</ele><time>2026-05-01T09:53:17.619Z</time></trkpt><trkpt lat="43.1585895" lon="12.4495807"><ele>202.0</ele><time>2026-05-01T09:53:19.629Z</time></trkpt><trkpt lat="43.1586259" lon="12.4494322"><ele>203.0</ele><time>2026-05-01T09:53:21.576Z</time></trkpt><trkpt lat="43.158669" lon="12.4492778"><ele>204.0</ele><time>2026-05-01T09:53:23.622Z</time></trkpt><trkpt lat="43.1587103" lon="12.4491225"><ele>205.0</ele><time>2026-05-01T09:53:25.616Z</time></trkpt><trkpt lat="43.1587603" lon="12.448978"><ele>205.0</ele><time>2026-05-01T09:53:27.641Z</time></trkpt><trkpt lat="43.1588114" lon="12.4488345"><ele>205.0</ele><time>2026-05-01T09:53:29.664Z</time></trkpt><trkpt lat="43.1588604" lon="12.4486937"><ele>205.0</ele><time>2026-05-01T09:53:31.637Z</time></trkpt><trkpt lat="43.1589204" lon="12.4485567"><ele>205.0</ele><time>2026-05-01T09:53:33.66Z</time></trkpt><trkpt lat="43.1589733" lon="12.4484263"><ele>204.49999999999997</ele><time>2026-05-01T09:53:35.64Z</time></trkpt><trkpt lat="43.1590302" lon="12.4482973"><ele>204.0</ele><time>2026-05-01T09:53:37.65Z</time></trkpt><trkpt lat="43.1590762" lon="12.4481809"><ele>203.5</ele><time>2026-05-01T09:53:39.633Z</time></trkpt><trkpt lat="43.1591299" lon="12.4480788"><ele>203.0</ele><time>2026-05-01T09:53:41.649Z</time></trkpt><trkpt lat="43.1591813" lon="12.4479927"><ele>202.49999999999997</ele><time>2026-05-01T09:53:43.653Z</time></trkpt><trkpt lat="43.1592205" lon="12.447916"><ele>202.0</ele><time>2026-05-01T09:53:46.741Z</time></trkpt><trkpt lat="43.1591803" lon="12.4479892"><ele>201.66666666666666</ele><time>2026-05-01T09:56:42.754Z</time></trkpt><trkpt lat="43.1591315" lon="12.4480821"><ele>201.33333333333331</ele><time>2026-05-01T09:56:46.653Z</time></trkpt><trkpt lat="43.159087" lon="12.4481941"><ele>201.0</ele><time>2026-05-01T09:56:48.663Z</time></trkpt><trkpt lat="43.1590523" lon="12.4482664"><ele>200.66666666666669</ele><time>2026-05-01T09:56:49.629Z</time></trkpt><trkpt lat="43.1590042" lon="12.4484012"><ele>200.33333333333334</ele><time>2026-05-01T09:56:51.633Z</time></trkpt><trkpt lat="43.1589489" lon="12.4485139"><ele>200.0</ele><time>2026-05-01T09:56:53.633Z</time></trkpt><trkpt lat="43.1588946" lon="12.448628"><ele>201.0</ele><time>2026-05-01T09:56:55.651Z</time></trkpt><trkpt lat="43.158848" lon="12.4487392"><ele>202.0</ele><time>2026-05-01T09:56:57.623Z</time></trkpt><trkpt lat="43.1588051" lon="12.4488512"><ele>203.0</ele><time>2026-05-01T09:56:59.607Z</time></trkpt><trkpt lat="43.1587679" lon="12.4489658"><ele>204.0</ele><time>2026-05-01T09:57:01.633Z</time></trkpt><trkpt lat="43.1587325" lon="12.4490807"><ele>205.0</ele><time>2026-05-01T09:57:03.63Z</time></trkpt><trkpt lat="43.1587" lon="12.4491982"><ele>205.0</ele><time>2026-05-01T09:57:05.635Z</time></trkpt><trkpt lat="43.158668" lon="12.4493209"><ele>205.0</ele><time>2026-05-01T09:57:07.644Z</time></trkpt><trkpt lat="43.158631" lon="12.4494446"><ele>205.0</ele><time>2026-05-01T09:57:09.666Z</time></trkpt><trkpt lat="43.1585958" lon="12.4495618"><ele>205.0</ele><time>2026-05-01T09:57:11.631Z</time></trkpt><trkpt lat="43.15857" lon="12.4496905"><ele>205.0</ele><time>2026-05-01T09:57:13.643Z</time></trkpt><trkpt lat="43.1585378" lon="12.4498175"><ele>204.2</ele><time>2026-05-01T09:57:15.637Z</time></trkpt><trkpt lat="43.1584906" lon="12.4500108"><ele>203.4</ele><time>2026-05-01T09:57:18.625Z</time></trkpt><trkpt lat="43.1584703" lon="12.4501402"><ele>202.60000000000002</ele><time>2026-05-01T09:57:20.657Z</time></trkpt><trkpt lat="43.1584433" lon="12.4502326"><ele>201.8</ele><time>2026-05-01T09:57:22.64Z</time></trkpt><trkpt lat="43.158458" lon="12.4501162"><ele>201.0</ele><time>2026-05-01T09:57:31.654Z</time></trkpt><trkpt lat="43.1585074" lon="12.4500437"><ele>201.0</ele><time>2026-05-01T09:57:34.727Z</time></trkpt><trkpt lat="43.1585732" lon="12.4500847"><ele>201.0</ele><time>2026-05-01T09:57:39.62Z</time></trkpt><trkpt lat="43.1586328" lon="12.4501283"><ele>201.0</ele><time>2026-05-01T09:57:43.658Z</time></trkpt><trkpt lat="43.1586916" lon="12.4501634"><ele>201.0</ele><time>2026-05-01T09:57:46.584Z</time></trkpt><trkpt lat="43.1587512" lon="12.4502316"><ele>201.0</ele><time>2026-05-01T09:57:50.746Z</time></trkpt><trkpt lat="43.1587687" lon="12.450315"><ele>201.0</ele><time>2026-05-01T09:57:53.644Z</time></trkpt><trkpt lat="43.158769" lon="12.4504027"><ele>201.0</ele><time>2026-05-01T09:57:56.614Z</time></trkpt><trkpt lat="43.1587983" lon="12.4504838"><ele>201.16666666666666</ele><time>2026-05-01T09:58:00.669Z</time></trkpt><trkpt lat="43.1588808" lon="12.450488"><ele>201.33333333333331</ele><time>2026-05-01T09:58:05.667Z</time></trkpt><trkpt lat="43.1589459" lon="12.4504948"><ele>201.5</ele><time>2026-05-01T09:58:09.654Z</time></trkpt><trkpt lat="43.1590025" lon="12.450543"><ele>201.66666666666666</ele><time>2026-05-01T09:58:14.635Z</time></trkpt><trkpt lat="43.1590542" lon="12.4506011"><ele>201.83333333333331</ele><time>2026-05-01T09:58:20.57Z</time></trkpt><trkpt lat="43.1591047" lon="12.4506988"><ele>202.0</ele><time>2026-05-01T09:58:23.648Z</time></trkpt><trkpt lat="43.15916" lon="12.4507966"><ele>201.99999999999997</ele><time>2026-05-01T09:58:26.636Z</time></trkpt><trkpt lat="43.1592286" lon="12.4508886"><ele>202.0</ele><time>2026-05-01T09:58:29.657Z</time></trkpt><trkpt lat="43.1592805" lon="12.4509512"><ele>202.0</ele><time>2026-05-01T09:58:31.65Z</time></trkpt><trkpt lat="43.1593434" lon="12.4509829"><ele>202.0</ele><time>2026-05-01T09:58:33.645Z</time></trkpt><trkpt lat="43.1594188" lon="12.450959"><ele>201.99999999999997</ele><time>2026-05-01T09:58:35.656Z</time></trkpt><trkpt lat="43.1594868" lon="12.4508938"><ele>202.0</ele><time>2026-05-01T09:58:37.678Z</time></trkpt><trkpt lat="43.1595424" lon="12.4508151"><ele>202.0</ele><time>2026-05-01T09:58:39.642Z</time></trkpt><trkpt lat="43.1596138" lon="12.4507418"><ele>202.0</ele><time>2026-05-01T09:58:41.662Z</time></trkpt><trkpt lat="43.159695" lon="12.4506991"><ele>202.0</ele><time>2026-05-01T09:58:43.587Z</time></trkpt><trkpt lat="43.1597861" lon="12.4507598"><ele>202.0</ele><time>2026-05-01T09:58:45.667Z</time></trkpt><trkpt lat="43.1598316" lon="12.4508727"><ele>202.0</ele><time>2026-05-01T09:58:47.632Z</time></trkpt><trkpt lat="43.1598667" lon="12.4509941"><ele>202.0</ele><time>2026-05-01T09:58:49.768Z</time></trkpt><trkpt lat="43.15992" lon="12.4511177"><ele>202.0</ele><time>2026-05-01T09:58:52.124Z</time></trkpt><trkpt lat="43.1599704" lon="12.4512342"><ele>202.0</ele><time>2026-05-01T09:58:54.425Z</time></trkpt><trkpt lat="43.1600268" lon="12.4513516"><ele>202.0</ele><time>2026-05-01T09:58:56.672Z</time></trkpt><trkpt lat="43.1600799" lon="12.4514486"><ele>202.0</ele><time>2026-05-01T09:58:58.644Z</time></trkpt><trkpt lat="43.1601302" lon="12.4515384"><ele>201.99999999999997</ele><time>2026-05-01T09:59:00.681Z</time></trkpt><trkpt lat="43.1601722" lon="12.4516402"><ele>202.0</ele><time>2026-05-01T09:59:02.619Z</time></trkpt><trkpt lat="43.1602129" lon="12.4517382"><ele>202.0</ele><time>2026-05-01T09:59:04.637Z</time></trkpt><trkpt lat="43.160258" lon="12.4518386"><ele>202.0</ele><time>2026-05-01T09:59:06.631Z</time></trkpt><trkpt lat="43.1603061" lon="12.4519371"><ele>201.99999999999997</ele><time>2026-05-01T09:59:08.634Z</time></trkpt><trkpt lat="43.1603581" lon="12.4520397"><ele>202.0</ele><time>2026-05-01T09:59:10.714Z</time></trkpt><trkpt lat="43.1604162" lon="12.4521561"><ele>202.33333333333331</ele><time>2026-05-01T09:59:13.143Z</time></trkpt><trkpt lat="43.160474" lon="12.452275"><ele>202.66666666666666</ele><time>2026-05-01T09:59:15.651Z</time></trkpt><trkpt lat="43.1605173" lon="12.4523653"><ele>203.0</ele><time>2026-05-01T09:59:17.667Z</time></trkpt><trkpt lat="43.1605817" lon="12.4524406"><ele>203.33333333333331</ele><time>2026-05-01T09:59:20.562Z</time></trkpt><trkpt lat="43.1606459" lon="12.4524197"><ele>203.66666666666666</ele><time>2026-05-01T09:59:22.659Z</time></trkpt><trkpt lat="43.1607118" lon="12.4523345"><ele>204.0</ele><time>2026-05-01T09:59:24.749Z</time></trkpt><trkpt lat="43.1608017" lon="12.4522843"><ele>204.16666666666666</ele><time>2026-05-01T09:59:27.069Z</time></trkpt><trkpt lat="43.1608607" lon="12.452254"><ele>204.33333333333331</ele><time>2026-05-01T09:59:28.565Z</time></trkpt><trkpt lat="43.1609413" lon="12.4522144"><ele>204.5</ele><time>2026-05-01T09:59:30.642Z</time></trkpt><trkpt lat="43.1610223" lon="12.4521741"><ele>204.66666666666666</ele><time>2026-05-01T09:59:32.655Z</time></trkpt><trkpt lat="43.1611021" lon="12.4521309"><ele>204.83333333333331</ele><time>2026-05-01T09:59:34.626Z</time></trkpt><trkpt lat="43.1611806" lon="12.4520843"><ele>205.0</ele><time>2026-05-01T09:59:36.568Z</time></trkpt><trkpt lat="43.1612655" lon="12.4520282"><ele>204.83333333333331</ele><time>2026-05-01T09:59:38.637Z</time></trkpt><trkpt lat="43.1613517" lon="12.4519745"><ele>204.66666666666666</ele><time>2026-05-01T09:59:40.76Z</time></trkpt><trkpt lat="43.1614306" lon="12.4519282"><ele>204.5</ele><time>2026-05-01T09:59:42.641Z</time></trkpt><trkpt lat="43.1615137" lon="12.4518805"><ele>204.33333333333331</ele><time>2026-05-01T09:59:44.689Z</time></trkpt><trkpt lat="43.1615902" lon="12.4518347"><ele>204.16666666666666</ele><time>2026-05-01T09:59:46.661Z</time></trkpt><trkpt lat="43.1616635" lon="12.4517748"><ele>204.0</ele><time>2026-05-01T09:59:48.661Z</time></trkpt><trkpt lat="43.161755" lon="12.4517177"><ele>204.0</ele><time>2026-05-01T09:59:51.653Z</time></trkpt><trkpt lat="43.1618134" lon="12.4516821"><ele>204.0</ele><time>2026-05-01T09:59:52.566Z</time></trkpt><trkpt lat="43.1618852" lon="12.4516185"><ele>204.0</ele><time>2026-05-01T09:59:54.587Z</time></trkpt><trkpt lat="43.1619744" lon="12.4515735"><ele>204.0</ele><time>2026-05-01T09:59:56.685Z</time></trkpt><trkpt lat="43.1620519" lon="12.4515315"><ele>204.0</ele><time>2026-05-01T09:59:58.614Z</time></trkpt><trkpt lat="43.1621305" lon="12.4514654"><ele>204.0</ele><time>2026-05-01T10:00:00.67Z</time></trkpt><trkpt lat="43.16221" lon="12.4514091"><ele>204.0</ele><time>2026-05-01T10:00:02.629Z</time></trkpt><trkpt lat="43.1622933" lon="12.4513587"><ele>204.0</ele><time>2026-05-01T10:00:04.686Z</time></trkpt><trkpt lat="43.1623772" lon="12.4513439"><ele>204.0</ele><time>2026-05-01T10:00:06.633Z</time></trkpt><trkpt lat="43.1624597" lon="12.4513462"><ele>204.0</ele><time>2026-05-01T10:00:08.561Z</time></trkpt><trkpt lat="43.1625542" lon="12.4513667"><ele>204.0</ele><time>2026-05-01T10:00:10.781Z</time></trkpt><trkpt lat="43.1626646" lon="12.4513818"><ele>204.2</ele><time>2026-05-01T10:00:13.428Z</time></trkpt><trkpt lat="43.1627603" lon="12.4513909"><ele>204.39999999999998</ele><time>2026-05-01T10:00:15.649Z</time></trkpt><trkpt lat="43.1628486" lon="12.4514022"><ele>204.6</ele><time>2026-05-01T10:00:17.681Z</time></trkpt><trkpt lat="43.1629315" lon="12.4513841"><ele>204.8</ele><time>2026-05-01T10:00:19.637Z</time></trkpt><trkpt lat="43.1630195" lon="12.4513539"><ele>205.0</ele><time>2026-05-01T10:00:21.973Z</time></trkpt><trkpt lat="43.1631264" lon="12.4512616"><ele>205.33333333333331</ele><time>2026-05-01T10:00:24.536Z</time></trkpt><trkpt lat="43.1632069" lon="12.4511944"><ele>205.66666666666666</ele><time>2026-05-01T10:00:26.655Z</time></trkpt><trkpt lat="43.1632834" lon="12.4511368"><ele>206.0</ele><time>2026-05-01T10:00:28.66Z</time></trkpt><trkpt lat="43.163365" lon="12.4510908"><ele>206.33333333333331</ele><time>2026-05-01T10:00:30.669Z</time></trkpt><trkpt lat="43.16344" lon="12.4510432"><ele>206.66666666666666</ele><time>2026-05-01T10:00:32.643Z</time></trkpt><trkpt lat="43.1635069" lon="12.4509791"><ele>207.0</ele><time>2026-05-01T10:00:34.66Z</time></trkpt><trkpt lat="43.1635685" lon="12.4509001"><ele>207.0</ele><time>2026-05-01T10:00:36.68Z</time></trkpt><trkpt lat="43.1636225" lon="12.4508175"><ele>207.0</ele><time>2026-05-01T10:00:38.692Z</time></trkpt><trkpt lat="43.16367" lon="12.4507251"><ele>207.0</ele><time>2026-05-01T10:00:40.72Z</time></trkpt><trkpt lat="43.1637241" lon="12.4506088"><ele>207.0</ele><time>2026-05-01T10:00:42.992Z</time></trkpt><trkpt lat="43.1638024" lon="12.4504905"><ele>207.0</ele><time>2026-05-01T10:00:45.65Z</time></trkpt><trkpt lat="43.1638623" lon="12.4504026"><ele>207.0</ele><time>2026-05-01T10:00:47.661Z</time></trkpt><trkpt lat="43.1639055" lon="12.450307"><ele>207.0</ele><time>2026-05-01T10:00:49.645Z</time></trkpt><trkpt lat="43.1639605" lon="12.4502292"><ele>207.0</ele><time>2026-05-01T10:00:51.529Z</time></trkpt><trkpt lat="43.1640522" lon="12.4501881"><ele>207.0</ele><time>2026-05-01T10:00:53.676Z</time></trkpt><trkpt lat="43.1641372" lon="12.4501591"><ele>207.0</ele><time>2026-05-01T10:00:55.661Z</time></trkpt><trkpt lat="43.164209" lon="12.4501322"><ele>207.0</ele><time>2026-05-01T10:00:57.697Z</time></trkpt><trkpt lat="43.1642901" lon="12.4500997"><ele>207.16666666666666</ele><time>2026-05-01T10:00:59.661Z</time></trkpt><trkpt lat="43.164367" lon="12.4500242"><ele>207.33333333333331</ele><time>2026-05-01T10:01:01.66Z</time></trkpt><trkpt lat="43.164447" lon="12.4499823"><ele>207.5</ele><time>2026-05-01T10:01:03.663Z</time></trkpt><trkpt lat="43.164519" lon="12.4499506"><ele>207.66666666666666</ele><time>2026-05-01T10:01:05.665Z</time></trkpt><trkpt lat="43.1645862" lon="12.4499161"><ele>207.83333333333331</ele><time>2026-05-01T10:01:07.753Z</time></trkpt><trkpt lat="43.1646616" lon="12.4498848"><ele>208.0</ele><time>2026-05-01T10:01:09.903Z</time></trkpt><trkpt lat="43.1647526" lon="12.4498454"><ele>208.0</ele><time>2026-05-01T10:01:12.528Z</time></trkpt><trkpt lat="43.1648193" lon="12.4498102"><ele>208.0</ele><time>2026-05-01T10:01:14.647Z</time></trkpt><trkpt lat="43.1648849" lon="12.449772"><ele>208.0</ele><time>2026-05-01T10:01:16.646Z</time></trkpt><trkpt lat="43.1649554" lon="12.4497401"><ele>208.0</ele><time>2026-05-01T10:01:18.695Z</time></trkpt><trkpt lat="43.1650195" lon="12.4497064"><ele>208.0</ele><time>2026-05-01T10:01:20.581Z</time></trkpt><trkpt lat="43.1650863" lon="12.4496594"><ele>208.0</ele><time>2026-05-01T10:01:22.698Z</time></trkpt><trkpt lat="43.1651494" lon="12.4496252"><ele>208.0</ele><time>2026-05-01T10:01:24.655Z</time></trkpt><trkpt lat="43.1652166" lon="12.4495902"><ele>207.66666666666666</ele><time>2026-05-01T10:01:26.661Z</time></trkpt><trkpt lat="43.1652859" lon="12.4495575"><ele>207.33333333333331</ele><time>2026-05-01T10:01:28.684Z</time></trkpt><trkpt lat="43.1653515" lon="12.4495151"><ele>207.0</ele><time>2026-05-01T10:01:30.616Z</time></trkpt><trkpt lat="43.165424" lon="12.4494656"><ele>206.66666666666669</ele><time>2026-05-01T10:01:32.682Z</time></trkpt><trkpt lat="43.1654865" lon="12.449398"><ele>206.33333333333334</ele><time>2026-05-01T10:01:34.703Z</time></trkpt><trkpt lat="43.165551" lon="12.449283"><ele>206.0</ele><time>2026-05-01T10:01:37.469Z</time></trkpt><trkpt lat="43.1655933" lon="12.4491951"><ele>206.00000000000003</ele><time>2026-05-01T10:01:39.653Z</time></trkpt><trkpt lat="43.1656287" lon="12.449116"><ele>206.0</ele><time>2026-05-01T10:01:41.564Z</time></trkpt><trkpt lat="43.1656593" lon="12.4490325"><ele>206.0</ele><time>2026-05-01T10:01:43.683Z</time></trkpt><trkpt lat="43.1656832" lon="12.4489512"><ele>206.0</ele><time>2026-05-01T10:01:45.757Z</time></trkpt><trkpt lat="43.1656963" lon="12.4488667"><ele>206.00000000000003</ele><time>2026-05-01T10:01:47.62Z</time></trkpt><trkpt lat="43.1657071" lon="12.448726"><ele>206.0</ele><time>2026-05-01T10:01:49.655Z</time></trkpt><trkpt lat="43.1657299" lon="12.448589"><ele>206.4</ele><time>2026-05-01T10:01:51.655Z</time></trkpt><trkpt lat="43.1657567" lon="12.4484656"><ele>206.8</ele><time>2026-05-01T10:01:53.65Z</time></trkpt><trkpt lat="43.1657992" lon="12.4483598"><ele>207.20000000000002</ele><time>2026-05-01T10:01:55.665Z</time></trkpt><trkpt lat="43.1658463" lon="12.448256"><ele>207.60000000000002</ele><time>2026-05-01T10:01:57.665Z</time></trkpt><trkpt lat="43.1658987" lon="12.4481558"><ele>208.0</ele><time>2026-05-01T10:01:59.664Z</time></trkpt><trkpt lat="43.1659778" lon="12.4480097"><ele>208.2</ele><time>2026-05-01T10:02:02.621Z</time></trkpt><trkpt lat="43.1660539" lon="12.4479231"><ele>208.4</ele><time>2026-05-01T10:02:05.631Z</time></trkpt><trkpt lat="43.1661451" lon="12.4478547"><ele>208.6</ele><time>2026-05-01T10:02:07.689Z</time></trkpt><trkpt lat="43.1662318" lon="12.4478368"><ele>208.79999999999998</ele><time>2026-05-01T10:02:09.707Z</time></trkpt><trkpt lat="43.1663162" lon="12.4477838"><ele>209.0</ele><time>2026-05-01T10:02:11.739Z</time></trkpt><trkpt lat="43.166398" lon="12.4477339"><ele>209.0</ele><time>2026-05-01T10:02:13.672Z</time></trkpt><trkpt lat="43.1664767" lon="12.4476671"><ele>209.0</ele><time>2026-05-01T10:02:15.657Z</time></trkpt><trkpt lat="43.1665534" lon="12.4476108"><ele>209.0</ele><time>2026-05-01T10:02:17.652Z</time></trkpt><trkpt lat="43.1666749" lon="12.4475284"><ele>209.0</ele><time>2026-05-01T10:02:20.657Z</time></trkpt><trkpt lat="43.1667435" lon="12.4474899"><ele>209.0</ele><time>2026-05-01T10:02:22.663Z</time></trkpt><trkpt lat="43.1667664" lon="12.4473874"><ele>208.79999999999998</ele><time>2026-05-01T10:02:24.647Z</time></trkpt><trkpt lat="43.1667544" lon="12.4472436"><ele>208.6</ele><time>2026-05-01T10:02:27.35Z</time></trkpt><trkpt lat="43.1668633" lon="12.4473149"><ele>208.4</ele><time>2026-05-01T10:02:28.416Z</time></trkpt><trkpt lat="43.1669277" lon="12.4472773"><ele>208.2</ele><time>2026-05-01T10:02:29.65Z</time></trkpt><trkpt lat="43.1668752" lon="12.447143"><ele>208.0</ele><time>2026-05-01T10:02:32.007Z</time></trkpt><trkpt lat="43.1668342" lon="12.4470358"><ele>207.75</ele><time>2026-05-01T10:02:33.649Z</time></trkpt><trkpt lat="43.1667817" lon="12.4469076"><ele>207.5</ele><time>2026-05-01T10:02:35.645Z</time></trkpt><trkpt lat="43.1667011" lon="12.4467119"><ele>207.25</ele><time>2026-05-01T10:02:38.662Z</time></trkpt><trkpt lat="43.1666459" lon="12.446581"><ele>207.0</ele><time>2026-05-01T10:02:40.618Z</time></trkpt><trkpt lat="43.1665885" lon="12.4464404"><ele>207.0</ele><time>2026-05-01T10:02:42.648Z</time></trkpt><trkpt lat="43.1665327" lon="12.4463006"><ele>207.0</ele><time>2026-05-01T10:02:44.633Z</time></trkpt><trkpt lat="43.1664711" lon="12.4461588"><ele>207.0</ele><time>2026-05-01T10:02:46.655Z</time></trkpt><trkpt lat="43.1664107" lon="12.4460099"><ele>207.0</ele><time>2026-05-01T10:02:48.693Z</time></trkpt><trkpt lat="43.1663516" lon="12.4458613"><ele>206.6</ele><time>2026-05-01T10:02:50.667Z</time></trkpt><trkpt lat="43.1662884" lon="12.4457143"><ele>206.2</ele><time>2026-05-01T10:02:52.622Z</time></trkpt><trkpt lat="43.1662562" lon="12.4456368"><ele>205.8</ele><time>2026-05-01T10:02:53.667Z</time></trkpt><trkpt lat="43.1662001" lon="12.4454881"><ele>205.4</ele><time>2026-05-01T10:02:55.638Z</time></trkpt><trkpt lat="43.1661386" lon="12.4453353"><ele>205.0</ele><time>2026-05-01T10:02:57.751Z</time></trkpt><trkpt lat="43.1660862" lon="12.4452027"><ele>205.0</ele><time>2026-05-01T10:02:59.651Z</time></trkpt><trkpt lat="43.1660406" lon="12.4450602"><ele>205.0</ele><time>2026-05-01T10:03:01.659Z</time></trkpt><trkpt lat="43.1659985" lon="12.4448748"><ele>205.0</ele><time>2026-05-01T10:03:04.621Z</time></trkpt><trkpt lat="43.1659579" lon="12.4447545"><ele>205.0</ele><time>2026-05-01T10:03:06.639Z</time></trkpt><trkpt lat="43.1659105" lon="12.4446312"><ele>205.0</ele><time>2026-05-01T10:03:08.728Z</time></trkpt><trkpt lat="43.1658577" lon="12.4445321"><ele>205.0</ele><time>2026-05-01T10:03:10.618Z</time></trkpt><trkpt lat="43.1657999" lon="12.4444307"><ele>205.0</ele><time>2026-05-01T10:03:12.631Z</time></trkpt><trkpt lat="43.1657471" lon="12.4443119"><ele>205.0</ele><time>2026-05-01T10:03:14.629Z</time></trkpt><trkpt lat="43.1656851" lon="12.4442047"><ele>205.0</ele><time>2026-05-01T10:03:16.64Z</time></trkpt><trkpt lat="43.1656238" lon="12.4440986"><ele>204.8</ele><time>2026-05-01T10:03:18.628Z</time></trkpt><trkpt lat="43.1655673" lon="12.4439978"><ele>204.6</ele><time>2026-05-01T10:03:20.633Z</time></trkpt><trkpt lat="43.1655087" lon="12.4438968"><ele>204.39999999999998</ele><time>2026-05-01T10:03:22.653Z</time></trkpt><trkpt lat="43.1654499" lon="12.4437941"><ele>204.2</ele><time>2026-05-01T10:03:24.628Z</time></trkpt><trkpt lat="43.1653915" lon="12.4436902"><ele>204.0</ele><time>2026-05-01T10:03:26.597Z</time></trkpt><trkpt lat="43.1653334" lon="12.4435866"><ele>204.0</ele><time>2026-05-01T10:03:28.66Z</time></trkpt><trkpt lat="43.1652949" lon="12.4435135"><ele>204.0</ele><time>2026-05-01T10:03:30.617Z</time></trkpt><trkpt lat="43.1652638" lon="12.4434353"><ele>204.0</ele><time>2026-05-01T10:03:32.661Z</time></trkpt><trkpt lat="43.1652385" lon="12.4433541"><ele>204.0</ele><time>2026-05-01T10:03:36.873Z</time></trkpt><trkpt lat="43.1653091" lon="12.4433143"><ele>204.0</ele><time>2026-05-01T10:04:02.576Z</time></trkpt><trkpt lat="43.1653723" lon="12.4432794"><ele>204.0</ele><time>2026-05-01T10:04:05.654Z</time></trkpt><trkpt lat="43.1654415" lon="12.4432254"><ele>204.0</ele><time>2026-05-01T10:04:09.645Z</time></trkpt><trkpt lat="43.1654952" lon="12.4431717"><ele>204.0</ele><time>2026-05-01T10:04:12.293Z</time></trkpt><trkpt lat="43.1655588" lon="12.4430871"><ele>204.0</ele><time>2026-05-01T10:04:15.721Z</time></trkpt><trkpt lat="43.1656092" lon="12.443006"><ele>204.0</ele><time>2026-05-01T10:04:18.691Z</time></trkpt><trkpt lat="43.1656615" lon="12.4429148"><ele>204.0</ele><time>2026-05-01T10:04:23.02Z</time></trkpt><trkpt lat="43.165725" lon="12.4428181"><ele>204.0</ele><time>2026-05-01T10:04:25.661Z</time></trkpt><trkpt lat="43.1657931" lon="12.4427221"><ele>204.0</ele><time>2026-05-01T10:04:27.874Z</time></trkpt><trkpt lat="43.1658641" lon="12.4426534"><ele>203.71428571428572</ele><time>2026-05-01T10:04:30.489Z</time></trkpt><trkpt lat="43.1659231" lon="12.4425737"><ele>203.42857142857144</ele><time>2026-05-01T10:04:32.569Z</time></trkpt><trkpt lat="43.1659827" lon="12.4425048"><ele>203.14285714285714</ele><time>2026-05-01T10:04:35.094Z</time></trkpt><trkpt lat="43.1660441" lon="12.4424413"><ele>202.85714285714286</ele><time>2026-05-01T10:04:37.353Z</time></trkpt><trkpt lat="43.1661001" lon="12.4423729"><ele>202.57142857142856</ele><time>2026-05-01T10:04:39.594Z</time></trkpt><trkpt lat="43.1661445" lon="12.4423063"><ele>202.28571428571428</ele><time>2026-05-01T10:04:41.669Z</time></trkpt><trkpt lat="43.1661926" lon="12.4422482"><ele>202.0</ele><time>2026-05-01T10:04:43.691Z</time></trkpt><trkpt lat="43.1662477" lon="12.4421813"><ele>201.99999999999997</ele><time>2026-05-01T10:04:45.664Z</time></trkpt><trkpt lat="43.1663076" lon="12.442112"><ele>202.0</ele><time>2026-05-01T10:04:47.669Z</time></trkpt><trkpt lat="43.1663728" lon="12.4420449"><ele>202.0</ele><time>2026-05-01T10:04:49.663Z</time></trkpt><trkpt lat="43.1664363" lon="12.4419698"><ele>202.0</ele><time>2026-05-01T10:04:51.654Z</time></trkpt><trkpt lat="43.1665012" lon="12.4418842"><ele>201.99999999999997</ele><time>2026-05-01T10:04:53.673Z</time></trkpt><trkpt lat="43.1665705" lon="12.4418042"><ele>202.0</ele><time>2026-05-01T10:04:55.761Z</time></trkpt><trkpt lat="43.1666313" lon="12.4417312"><ele>202.16666666666666</ele><time>2026-05-01T10:04:57.655Z</time></trkpt><trkpt lat="43.1666973" lon="12.4416519"><ele>202.33333333333331</ele><time>2026-05-01T10:04:59.686Z</time></trkpt><trkpt lat="43.1667601" lon="12.441578"><ele>202.5</ele><time>2026-05-01T10:05:01.644Z</time></trkpt><trkpt lat="43.1668288" lon="12.4415017"><ele>202.66666666666669</ele><time>2026-05-01T10:05:03.716Z</time></trkpt><trkpt lat="43.1668944" lon="12.4414243"><ele>202.83333333333334</ele><time>2026-05-01T10:05:05.678Z</time></trkpt><trkpt lat="43.1669511" lon="12.4413569"><ele>203.0</ele><time>2026-05-01T10:05:07.363Z</time></trkpt><trkpt lat="43.1670321" lon="12.441264"><ele>203.2</ele><time>2026-05-01T10:05:09.741Z</time></trkpt><trkpt lat="43.1671057" lon="12.4411811"><ele>203.4</ele><time>2026-05-01T10:05:12.159Z</time></trkpt><trkpt lat="43.1671936" lon="12.4410851"><ele>203.6</ele><time>2026-05-01T10:05:14.615Z</time></trkpt><trkpt lat="43.1672576" lon="12.4409941"><ele>203.79999999999998</ele><time>2026-05-01T10:05:16.654Z</time></trkpt><trkpt lat="43.1673247" lon="12.4409215"><ele>204.0</ele><time>2026-05-01T10:05:18.807Z</time></trkpt><trkpt lat="43.1673945" lon="12.440825"><ele>204.16666666666666</ele><time>2026-05-01T10:05:21.3Z</time></trkpt><trkpt lat="43.1673909" lon="12.44069"><ele>204.33333333333331</ele><time>2026-05-01T10:05:23.48Z</time></trkpt><trkpt lat="43.1673667" lon="12.4405627"><ele>204.5</ele><time>2026-05-01T10:05:25.668Z</time></trkpt><trkpt lat="43.1673511" lon="12.4404536"><ele>204.66666666666666</ele><time>2026-05-01T10:05:27.657Z</time></trkpt><trkpt lat="43.1673527" lon="12.4403361"><ele>204.83333333333331</ele><time>2026-05-01T10:05:29.678Z</time></trkpt><trkpt lat="43.1673622" lon="12.4402179"><ele>205.0</ele><time>2026-05-01T10:05:31.699Z</time></trkpt><trkpt lat="43.1674033" lon="12.4401073"><ele>204.99999999999997</ele><time>2026-05-01T10:05:33.669Z</time></trkpt><trkpt lat="43.1674476" lon="12.440004"><ele>205.0</ele><time>2026-05-01T10:05:35.65Z</time></trkpt><trkpt lat="43.1675079" lon="12.4399188"><ele>205.0</ele><time>2026-05-01T10:05:37.663Z</time></trkpt><trkpt lat="43.1675665" lon="12.4398459"><ele>205.0</ele><time>2026-05-01T10:05:39.556Z</time></trkpt><trkpt lat="43.1676378" lon="12.4397718"><ele>204.99999999999997</ele><time>2026-05-01T10:05:41.679Z</time></trkpt><trkpt lat="43.1677019" lon="12.4397006"><ele>205.0</ele><time>2026-05-01T10:05:43.639Z</time></trkpt><trkpt lat="43.1677727" lon="12.4396342"><ele>204.99999999999997</ele><time>2026-05-01T10:05:45.724Z</time></trkpt><trkpt lat="43.1678378" lon="12.4395793"><ele>205.0</ele><time>2026-05-01T10:05:47.585Z</time></trkpt><trkpt lat="43.1678962" lon="12.4394853"><ele>205.0</ele><time>2026-05-01T10:05:49.65Z</time></trkpt><trkpt lat="43.1679575" lon="12.4394079"><ele>205.0</ele><time>2026-05-01T10:05:51.627Z</time></trkpt><trkpt lat="43.1680228" lon="12.4393264"><ele>204.99999999999997</ele><time>2026-05-01T10:05:53.671Z</time></trkpt><trkpt lat="43.1681039" lon="12.4392831"><ele>205.0</ele><time>2026-05-01T10:05:56.758Z</time></trkpt><trkpt lat="43.1681416" lon="12.4391853"><ele>205.0</ele><time>2026-05-01T10:05:57.681Z</time></trkpt><trkpt lat="43.1681858" lon="12.4391179"><ele>205.0</ele><time>2026-05-01T10:05:59.545Z</time></trkpt><trkpt lat="43.1682666" lon="12.4390113"><ele>205.0</ele><time>2026-05-01T10:06:01.66Z</time></trkpt><trkpt lat="43.1683285" lon="12.438916"><ele>205.0</ele><time>2026-05-01T10:06:03.673Z</time></trkpt><trkpt lat="43.1684" lon="12.4388388"><ele>205.0</ele><time>2026-05-01T10:06:05.752Z</time></trkpt><trkpt lat="43.168497" lon="12.4387295"><ele>205.2</ele><time>2026-05-01T10:06:08.653Z</time></trkpt><trkpt lat="43.1685484" lon="12.4386765"><ele>205.4</ele><time>2026-05-01T10:06:10.668Z</time></trkpt><trkpt lat="43.1686251" lon="12.4385735"><ele>205.60000000000002</ele><time>2026-05-01T10:06:12.626Z</time></trkpt><trkpt lat="43.1686939" lon="12.4384814"><ele>205.8</ele><time>2026-05-01T10:06:14.621Z</time></trkpt><trkpt lat="43.168762" lon="12.4383944"><ele>206.0</ele><time>2026-05-01T10:06:16.638Z</time></trkpt><trkpt lat="43.1688668" lon="12.4382625"><ele>206.0</ele><time>2026-05-01T10:06:19.751Z</time></trkpt><trkpt lat="43.1689323" lon="12.4381844"><ele>206.0</ele><time>2026-05-01T10:06:21.661Z</time></trkpt><trkpt lat="43.1690085" lon="12.43814"><ele>206.0</ele><time>2026-05-01T10:06:24.494Z</time></trkpt><trkpt lat="43.1690808" lon="12.4380169"><ele>206.0</ele><time>2026-05-01T10:06:25.712Z</time></trkpt><trkpt lat="43.1691401" lon="12.4379528"><ele>206.0</ele><time>2026-05-01T10:06:27.68Z</time></trkpt><trkpt lat="43.169199" lon="12.4378534"><ele>205.20000000000002</ele><time>2026-05-01T10:06:29.67Z</time></trkpt><trkpt lat="43.1692686" lon="12.4377768"><ele>204.4</ele><time>2026-05-01T10:06:31.651Z</time></trkpt><trkpt lat="43.1693342" lon="12.4376924"><ele>203.6</ele><time>2026-05-01T10:06:33.656Z</time></trkpt><trkpt lat="43.1694054" lon="12.4376133"><ele>202.8</ele><time>2026-05-01T10:06:35.661Z</time></trkpt><trkpt lat="43.169476" lon="12.4375329"><ele>202.0</ele><time>2026-05-01T10:06:37.645Z</time></trkpt><trkpt lat="43.1695499" lon="12.4374385"><ele>202.0</ele><time>2026-05-01T10:06:39.757Z</time></trkpt><trkpt lat="43.1696194" lon="12.4373583"><ele>202.0</ele><time>2026-05-01T10:06:41.631Z</time></trkpt><trkpt lat="43.1697045" lon="12.4372707"><ele>202.0</ele><time>2026-05-01T10:06:43.79Z</time></trkpt><trkpt lat="43.1697738" lon="12.4371894"><ele>202.0</ele><time>2026-05-01T10:06:45.663Z</time></trkpt><trkpt lat="43.1698515" lon="12.4370974"><ele>202.0</ele><time>2026-05-01T10:06:47.761Z</time></trkpt><trkpt lat="43.1699242" lon="12.4370105"><ele>201.8</ele><time>2026-05-01T10:06:49.747Z</time></trkpt><trkpt lat="43.1699991" lon="12.4369276"><ele>201.6</ele><time>2026-05-01T10:06:51.674Z</time></trkpt><trkpt lat="43.1700704" lon="12.4368319"><ele>201.4</ele><time>2026-05-01T10:06:53.64Z</time></trkpt><trkpt lat="43.1701505" lon="12.4367337"><ele>201.20000000000002</ele><time>2026-05-01T10:06:55.653Z</time></trkpt><trkpt lat="43.1702323" lon="12.4366401"><ele>201.0</ele><time>2026-05-01T10:06:57.639Z</time></trkpt><trkpt lat="43.1703085" lon="12.436545"><ele>201.0</ele><time>2026-05-01T10:06:59.635Z</time></trkpt><trkpt lat="43.1703889" lon="12.4364474"><ele>201.0</ele><time>2026-05-01T10:07:01.684Z</time></trkpt><trkpt lat="43.1704538" lon="12.436351"><ele>201.0</ele><time>2026-05-01T10:07:03.653Z</time></trkpt><trkpt lat="43.1705017" lon="12.4362257"><ele>201.0</ele><time>2026-05-01T10:07:05.75Z</time></trkpt><trkpt lat="43.1705256" lon="12.436101"><ele>201.0</ele><time>2026-05-01T10:07:07.667Z</time></trkpt><trkpt lat="43.1705322" lon="12.4359039"><ele>201.60000000000002</ele><time>2026-05-01T10:07:10.659Z</time></trkpt><trkpt lat="43.1705338" lon="12.4357836"><ele>202.2</ele><time>2026-05-01T10:07:12.679Z</time></trkpt><trkpt lat="43.1705341" lon="12.4356667"><ele>202.8</ele><time>2026-05-01T10:07:14.736Z</time></trkpt><trkpt lat="43.1705302" lon="12.4355578"><ele>203.39999999999998</ele><time>2026-05-01T10:07:16.664Z</time></trkpt><trkpt lat="43.1705304" lon="12.4354472"><ele>204.0</ele><time>2026-05-01T10:07:18.661Z</time></trkpt><trkpt lat="43.1705361" lon="12.4352873"><ele>204.0</ele><time>2026-05-01T10:07:21.689Z</time></trkpt><trkpt lat="43.1705592" lon="12.4351844"><ele>204.0</ele><time>2026-05-01T10:07:23.607Z</time></trkpt><trkpt lat="43.1705486" lon="12.4350514"><ele>204.0</ele><time>2026-05-01T10:07:25.652Z</time></trkpt><trkpt lat="43.1705435" lon="12.4349274"><ele>204.0</ele><time>2026-05-01T10:07:27.694Z</time></trkpt><trkpt lat="43.1705455" lon="12.4348093"><ele>204.0</ele><time>2026-05-01T10:07:29.666Z</time></trkpt><trkpt lat="43.1705512" lon="12.4346894"><ele>204.0</ele><time>2026-05-01T10:07:31.686Z</time></trkpt><trkpt lat="43.1705526" lon="12.4345693"><ele>204.39999999999998</ele><time>2026-05-01T10:07:33.688Z</time></trkpt><trkpt lat="43.170551" lon="12.4344498"><ele>204.8</ele><time>2026-05-01T10:07:35.629Z</time></trkpt><trkpt lat="43.1705507" lon="12.4343236"><ele>205.2</ele><time>2026-05-01T10:07:37.637Z</time></trkpt><trkpt lat="43.1705512" lon="12.4342005"><ele>205.60000000000002</ele><time>2026-05-01T10:07:39.647Z</time></trkpt><trkpt lat="43.1705506" lon="12.434077"><ele>206.0</ele><time>2026-05-01T10:07:41.659Z</time></trkpt><trkpt lat="43.1705542" lon="12.4338924"><ele>206.4</ele><time>2026-05-01T10:07:44.693Z</time></trkpt><trkpt lat="43.1705511" lon="12.4337653"><ele>206.8</ele><time>2026-05-01T10:07:46.675Z</time></trkpt><trkpt lat="43.1705542" lon="12.433641"><ele>207.20000000000002</ele><time>2026-05-01T10:07:48.637Z</time></trkpt><trkpt lat="43.1705614" lon="12.4335098"><ele>207.60000000000002</ele><time>2026-05-01T10:07:50.68Z</time></trkpt><trkpt lat="43.1705696" lon="12.433384"><ele>208.0</ele><time>2026-05-01T10:07:52.575Z</time></trkpt><trkpt lat="43.17059" lon="12.4332548"><ele>208.0</ele><time>2026-05-01T10:07:54.642Z</time></trkpt><trkpt lat="43.1706277" lon="12.4331378"><ele>208.0</ele><time>2026-05-01T10:07:56.638Z</time></trkpt><trkpt lat="43.1706663" lon="12.4330245"><ele>208.0</ele><time>2026-05-01T10:07:58.64Z</time></trkpt><trkpt lat="43.1707151" lon="12.4329147"><ele>208.0</ele><time>2026-05-01T10:08:00.742Z</time></trkpt><trkpt lat="43.170758" lon="12.432814"><ele>208.0</ele><time>2026-05-01T10:08:02.648Z</time></trkpt><trkpt lat="43.1708063" lon="12.4327098"><ele>207.8</ele><time>2026-05-01T10:08:04.664Z</time></trkpt><trkpt lat="43.1708503" lon="12.4326004"><ele>207.60000000000002</ele><time>2026-05-01T10:08:06.666Z</time></trkpt><trkpt lat="43.1708996" lon="12.4324933"><ele>207.39999999999998</ele><time>2026-05-01T10:08:08.638Z</time></trkpt><trkpt lat="43.1709458" lon="12.4323848"><ele>207.2</ele><time>2026-05-01T10:08:10.627Z</time></trkpt><trkpt lat="43.1709869" lon="12.432266"><ele>207.0</ele><time>2026-05-01T10:08:12.652Z</time></trkpt><trkpt lat="43.1710295" lon="12.4321589"><ele>206.8</ele><time>2026-05-01T10:08:14.634Z</time></trkpt><trkpt lat="43.1710719" lon="12.4320481"><ele>206.6</ele><time>2026-05-01T10:08:16.65Z</time></trkpt><trkpt lat="43.1711217" lon="12.4319366"><ele>206.4</ele><time>2026-05-01T10:08:18.636Z</time></trkpt><trkpt lat="43.1711787" lon="12.4318332"><ele>206.20000000000002</ele><time>2026-05-01T10:08:20.637Z</time></trkpt><trkpt lat="43.1712266" lon="12.4317256"><ele>206.0</ele><time>2026-05-01T10:08:22.653Z</time></trkpt><trkpt lat="43.1712708" lon="12.431611"><ele>206.0</ele><time>2026-05-01T10:08:24.653Z</time></trkpt><trkpt lat="43.1713056" lon="12.4314979"><ele>206.0</ele><time>2026-05-01T10:08:26.627Z</time></trkpt><trkpt lat="43.1713395" lon="12.4313968"><ele>206.0</ele><time>2026-05-01T10:08:28.651Z</time></trkpt><trkpt lat="43.1713823" lon="12.4312706"><ele>206.0</ele><time>2026-05-01T10:08:30.629Z</time></trkpt><trkpt lat="43.1714301" lon="12.431151"><ele>206.0</ele><time>2026-05-01T10:08:32.643Z</time></trkpt><trkpt lat="43.1714729" lon="12.4310362"><ele>206.0</ele><time>2026-05-01T10:08:34.643Z</time></trkpt><trkpt lat="43.1715158" lon="12.4309266"><ele>206.0</ele><time>2026-05-01T10:08:36.631Z</time></trkpt><trkpt lat="43.171561" lon="12.4308128"><ele>206.0</ele><time>2026-05-01T10:08:38.667Z</time></trkpt><trkpt lat="43.1716047" lon="12.4306992"><ele>206.0</ele><time>2026-05-01T10:08:40.643Z</time></trkpt><trkpt lat="43.1716452" lon="12.4305819"><ele>206.0</ele><time>2026-05-01T10:08:42.705Z</time></trkpt><trkpt lat="43.1716607" lon="12.4304647"><ele>206.00000000000003</ele><time>2026-05-01T10:08:44.635Z</time></trkpt><trkpt lat="43.1716622" lon="12.4303485"><ele>206.0</ele><time>2026-05-01T10:08:46.663Z</time></trkpt><trkpt lat="43.1716486" lon="12.4302359"><ele>206.0</ele><time>2026-05-01T10:08:48.654Z</time></trkpt><trkpt lat="43.1716253" lon="12.4301181"><ele>206.0</ele><time>2026-05-01T10:08:50.671Z</time></trkpt><trkpt lat="43.171597" lon="12.4300338"><ele>206.00000000000003</ele><time>2026-05-01T10:08:52.661Z</time></trkpt><trkpt lat="43.1715523" lon="12.4299301"><ele>206.0</ele><time>2026-05-01T10:08:54.72Z</time></trkpt><trkpt lat="43.17152" lon="12.4298375"><ele>206.00000000000003</ele><time>2026-05-01T10:08:56.641Z</time></trkpt><trkpt lat="43.1715453" lon="12.4296979"><ele>206.0</ele><time>2026-05-01T10:08:59.639Z</time></trkpt><trkpt lat="43.1716179" lon="12.4296397"><ele>206.0</ele><time>2026-05-01T10:09:02.301Z</time></trkpt><trkpt lat="43.1717023" lon="12.4296616"><ele>206.0</ele><time>2026-05-01T10:09:04.65Z</time></trkpt><trkpt lat="43.1717719" lon="12.4296732"><ele>206.00000000000003</ele><time>2026-05-01T10:09:06.876Z</time></trkpt><trkpt lat="43.1718361" lon="12.4296794"><ele>206.0</ele><time>2026-05-01T10:09:08.663Z</time></trkpt><trkpt lat="43.1719046" lon="12.4296932"><ele>206.00000000000003</ele><time>2026-05-01T10:09:10.649Z</time></trkpt><trkpt lat="43.1720056" lon="12.4296828"><ele>206.0</ele><time>2026-05-01T10:09:13.899Z</time></trkpt><trkpt lat="43.1720933" lon="12.4296651"><ele>206.0</ele><time>2026-05-01T10:09:16.699Z</time></trkpt><trkpt lat="43.1721765" lon="12.4296481"><ele>206.0</ele><time>2026-05-01T10:09:20.622Z</time></trkpt><trkpt lat="43.172247" lon="12.429588"><ele>206.00000000000003</ele><time>2026-05-01T10:09:24.306Z</time></trkpt><trkpt lat="43.1723061" lon="12.4295526"><ele>206.0</ele><time>2026-05-01T10:09:26.684Z</time></trkpt><trkpt lat="43.1723797" lon="12.4295159"><ele>205.99999999999997</ele><time>2026-05-01T10:09:29.774Z</time></trkpt><trkpt lat="43.1724489" lon="12.4294996"><ele>206.0</ele><time>2026-05-01T10:09:33.352Z</time></trkpt><trkpt lat="43.1725305" lon="12.4294707"><ele>206.0</ele><time>2026-05-01T10:09:37.671Z</time></trkpt><trkpt lat="43.1725972" lon="12.4294436"><ele>206.0</ele><time>2026-05-01T10:09:40.772Z</time></trkpt><trkpt lat="43.1726546" lon="12.4293974"><ele>206.0</ele><time>2026-05-01T10:09:43.621Z</time></trkpt><trkpt lat="43.1727223" lon="12.4293607"><ele>205.99999999999997</ele><time>2026-05-01T10:09:46.565Z</time></trkpt><trkpt lat="43.1728012" lon="12.4293263"><ele>206.0</ele><time>2026-05-01T10:09:49.428Z</time></trkpt><trkpt lat="43.1728624" lon="12.429295"><ele>206.00000000000003</ele><time>2026-05-01T10:09:51.659Z</time></trkpt><trkpt lat="43.1729284" lon="12.4292265"><ele>206.0</ele><time>2026-05-01T10:09:54.639Z</time></trkpt><trkpt lat="43.1730009" lon="12.429171"><ele>206.0</ele><time>2026-05-01T10:09:57.64Z</time></trkpt><trkpt lat="43.1730693" lon="12.4291339"><ele>206.0</ele><time>2026-05-01T10:09:59.66Z</time></trkpt><trkpt lat="43.1731439" lon="12.4291067"><ele>206.00000000000003</ele><time>2026-05-01T10:10:01.673Z</time></trkpt><trkpt lat="43.1732175" lon="12.4290861"><ele>206.0</ele><time>2026-05-01T10:10:03.673Z</time></trkpt><trkpt lat="43.1732808" lon="12.4290655"><ele>206.0</ele><time>2026-05-01T10:10:05.682Z</time></trkpt><trkpt lat="43.1733651" lon="12.4290859"><ele>206.0</ele><time>2026-05-01T10:10:08.764Z</time></trkpt><trkpt lat="43.1733019" lon="12.4290253"><ele>206.0</ele><time>2026-05-01T10:10:14.651Z</time></trkpt><trkpt lat="43.1732178" lon="12.429086"><ele>206.0</ele><time>2026-05-01T10:10:17.675Z</time></trkpt><trkpt lat="43.1731301" lon="12.4291502"><ele>206.0</ele><time>2026-05-01T10:10:19.65Z</time></trkpt><trkpt lat="43.1730307" lon="12.4292097"><ele>206.0</ele><time>2026-05-01T10:10:22.164Z</time></trkpt><trkpt lat="43.1729302" lon="12.4292573"><ele>206.0</ele><time>2026-05-01T10:10:24.554Z</time></trkpt><trkpt lat="43.1728438" lon="12.4292986"><ele>206.0</ele><time>2026-05-01T10:10:26.653Z</time></trkpt><trkpt lat="43.1727651" lon="12.4293445"><ele>206.0</ele><time>2026-05-01T10:10:28.674Z</time></trkpt><trkpt lat="43.1726839" lon="12.4293873"><ele>206.0</ele><time>2026-05-01T10:10:30.659Z</time></trkpt><trkpt lat="43.172607" lon="12.429439"><ele>206.00000000000003</ele><time>2026-05-01T10:10:32.683Z</time></trkpt><trkpt lat="43.1725229" lon="12.4294728"><ele>206.0</ele><time>2026-05-01T10:10:34.626Z</time></trkpt><trkpt lat="43.1724382" lon="12.4295064"><ele>206.0</ele><time>2026-05-01T10:10:36.692Z</time></trkpt><trkpt lat="43.1723538" lon="12.4295442"><ele>206.0</ele><time>2026-05-01T10:10:38.627Z</time></trkpt><trkpt lat="43.1722685" lon="12.429573"><ele>206.00000000000003</ele><time>2026-05-01T10:10:40.64Z</time></trkpt><trkpt lat="43.1721828" lon="12.4295834"><ele>206.0</ele><time>2026-05-01T10:10:42.675Z</time></trkpt><trkpt lat="43.1720999" lon="12.4296146"><ele>206.00000000000003</ele><time>2026-05-01T10:10:44.653Z</time></trkpt><trkpt lat="43.1720125" lon="12.4296317"><ele>206.0</ele><time>2026-05-01T10:10:46.643Z</time></trkpt><trkpt lat="43.1719522" lon="12.42967"><ele>206.0</ele><time>2026-05-01T10:10:48.591Z</time></trkpt><trkpt lat="43.1718893" lon="12.4296617"><ele>206.0</ele><time>2026-05-01T10:10:49.652Z</time></trkpt><trkpt lat="43.1718029" lon="12.4296669"><ele>206.00000000000003</ele><time>2026-05-01T10:10:51.649Z</time></trkpt><trkpt lat="43.1717216" lon="12.4296454"><ele>206.0</ele><time>2026-05-01T10:10:53.607Z</time></trkpt><trkpt lat="43.1716335" lon="12.4296614"><ele>206.00000000000003</ele><time>2026-05-01T10:10:55.618Z</time></trkpt><trkpt lat="43.1715623" lon="12.4297027"><ele>206.0</ele><time>2026-05-01T10:10:57.664Z</time></trkpt><trkpt lat="43.1715319" lon="12.4298159"><ele>206.0</ele><time>2026-05-01T10:11:00.665Z</time></trkpt><trkpt lat="43.1715569" lon="12.429922"><ele>206.0</ele><time>2026-05-01T10:11:02.664Z</time></trkpt><trkpt lat="43.171586" lon="12.4300067"><ele>206.00000000000003</ele><time>2026-05-01T10:11:04.643Z</time></trkpt><trkpt lat="43.1716202" lon="12.4301218"><ele>206.0</ele><time>2026-05-01T10:11:06.66Z</time></trkpt><trkpt lat="43.1716542" lon="12.4302447"><ele>206.00000000000003</ele><time>2026-05-01T10:11:08.631Z</time></trkpt><trkpt lat="43.1716703" lon="12.4303594"><ele>206.0</ele><time>2026-05-01T10:11:10.673Z</time></trkpt><trkpt lat="43.1716674" lon="12.4304897"><ele>206.0</ele><time>2026-05-01T10:11:12.653Z</time></trkpt><trkpt lat="43.1716364" lon="12.4306143"><ele>206.0</ele><time>2026-05-01T10:11:14.667Z</time></trkpt><trkpt lat="43.1716079" lon="12.4307175"><ele>206.00000000000003</ele><time>2026-05-01T10:11:16.533Z</time></trkpt><trkpt lat="43.1715737" lon="12.4307938"><ele>206.0</ele><time>2026-05-01T10:11:17.669Z</time></trkpt><trkpt lat="43.1715339" lon="12.4309105"><ele>206.0</ele><time>2026-05-01T10:11:19.667Z</time></trkpt><trkpt lat="43.17149" lon="12.431018"><ele>206.0</ele><time>2026-05-01T10:11:21.666Z</time></trkpt><trkpt lat="43.1714489" lon="12.4311334"><ele>206.0</ele><time>2026-05-01T10:11:23.728Z</time></trkpt><trkpt lat="43.1714036" lon="12.4312305"><ele>206.0</ele><time>2026-05-01T10:11:25.579Z</time></trkpt><trkpt lat="43.1713604" lon="12.4313452"><ele>206.0</ele><time>2026-05-01T10:11:27.618Z</time></trkpt><trkpt lat="43.1713177" lon="12.4314612"><ele>206.0</ele><time>2026-05-01T10:11:29.593Z</time></trkpt><trkpt lat="43.1712727" lon="12.4315763"><ele>206.0</ele><time>2026-05-01T10:11:31.625Z</time></trkpt><trkpt lat="43.1712245" lon="12.4316916"><ele>206.0</ele><time>2026-05-01T10:11:33.65Z</time></trkpt><trkpt lat="43.1711724" lon="12.4318086"><ele>206.0</ele><time>2026-05-01T10:11:35.643Z</time></trkpt><trkpt lat="43.171117" lon="12.431928"><ele>206.0</ele><time>2026-05-01T10:11:37.647Z</time></trkpt><trkpt lat="43.1710693" lon="12.4320448"><ele>206.25</ele><time>2026-05-01T10:11:39.603Z</time></trkpt><trkpt lat="43.1710246" lon="12.4321616"><ele>206.5</ele><time>2026-05-01T10:11:41.604Z</time></trkpt><trkpt lat="43.1709952" lon="12.4322821"><ele>206.75</ele><time>2026-05-01T10:11:43.619Z</time></trkpt><trkpt lat="43.1709546" lon="12.4324055"><ele>207.0</ele><time>2026-05-01T10:11:45.619Z</time></trkpt><trkpt lat="43.1708643" lon="12.4326024"><ele>207.0</ele><time>2026-05-01T10:11:48.633Z</time></trkpt><trkpt lat="43.1708046" lon="12.4327361"><ele>207.0</ele><time>2026-05-01T10:11:50.657Z</time></trkpt><trkpt lat="43.1707465" lon="12.4328672"><ele>207.0</ele><time>2026-05-01T10:11:52.65Z</time></trkpt><trkpt lat="43.1706913" lon="12.4330033"><ele>207.0</ele><time>2026-05-01T10:11:54.65Z</time></trkpt><trkpt lat="43.1706411" lon="12.4331445"><ele>207.25</ele><time>2026-05-01T10:11:56.649Z</time></trkpt><trkpt lat="43.1706002" lon="12.4332903"><ele>207.5</ele><time>2026-05-01T10:11:58.639Z</time></trkpt><trkpt lat="43.1705795" lon="12.4334427"><ele>207.75</ele><time>2026-05-01T10:12:00.643Z</time></trkpt><trkpt lat="43.1705677" lon="12.4336635"><ele>208.0</ele><time>2026-05-01T10:12:03.679Z</time></trkpt><trkpt lat="43.1705691" lon="12.4338033"><ele>207.60000000000002</ele><time>2026-05-01T10:12:05.65Z</time></trkpt><trkpt lat="43.1705666" lon="12.4339437"><ele>207.20000000000002</ele><time>2026-05-01T10:12:07.639Z</time></trkpt><trkpt lat="43.1705667" lon="12.4340765"><ele>206.8</ele><time>2026-05-01T10:12:09.645Z</time></trkpt><trkpt lat="43.1705655" lon="12.4342167"><ele>206.4</ele><time>2026-05-01T10:12:11.764Z</time></trkpt><trkpt lat="43.1705667" lon="12.4343406"><ele>206.0</ele><time>2026-05-01T10:12:13.642Z</time></trkpt><trkpt lat="43.1705671" lon="12.4344794"><ele>206.0</ele><time>2026-05-01T10:12:15.641Z</time></trkpt><trkpt lat="43.170568" lon="12.4346172"><ele>206.0</ele><time>2026-05-01T10:12:17.639Z</time></trkpt><trkpt lat="43.1705636" lon="12.4347615"><ele>206.0</ele><time>2026-05-01T10:12:19.658Z</time></trkpt><trkpt lat="43.1705598" lon="12.4349058"><ele>206.0</ele><time>2026-05-01T10:12:21.672Z</time></trkpt><trkpt lat="43.1705573" lon="12.4350538"><ele>206.0</ele><time>2026-05-01T10:12:23.674Z</time></trkpt><trkpt lat="43.1705549" lon="12.4352051"><ele>205.5</ele><time>2026-05-01T10:12:25.681Z</time></trkpt><trkpt lat="43.1705527" lon="12.4353564"><ele>205.0</ele><time>2026-05-01T10:12:27.669Z</time></trkpt><trkpt lat="43.1705544" lon="12.435507"><ele>204.5</ele><time>2026-05-01T10:12:29.642Z</time></trkpt><trkpt lat="43.1705557" lon="12.4356631"><ele>204.0</ele><time>2026-05-01T10:12:31.645Z</time></trkpt><trkpt lat="43.1705541" lon="12.4358261"><ele>204.0</ele><time>2026-05-01T10:12:33.673Z</time></trkpt><trkpt lat="43.1705437" lon="12.4359894"><ele>204.0</ele><time>2026-05-01T10:12:35.657Z</time></trkpt><trkpt lat="43.1705284" lon="12.4361549"><ele>204.0</ele><time>2026-05-01T10:12:37.652Z</time></trkpt><trkpt lat="43.1704782" lon="12.436309"><ele>204.0</ele><time>2026-05-01T10:12:39.629Z</time></trkpt><trkpt lat="43.170442" lon="12.4363811"><ele>204.0</ele><time>2026-05-01T10:12:40.654Z</time></trkpt><trkpt lat="43.1703601" lon="12.436497"><ele>203.25</ele><time>2026-05-01T10:12:42.63Z</time></trkpt><trkpt lat="43.1703087" lon="12.4365576"><ele>202.5</ele><time>2026-05-01T10:12:43.772Z</time></trkpt><trkpt lat="43.1702241" lon="12.4366582"><ele>201.75</ele><time>2026-05-01T10:12:45.672Z</time></trkpt><trkpt lat="43.1701377" lon="12.4367627"><ele>201.0</ele><time>2026-05-01T10:12:47.652Z</time></trkpt><trkpt lat="43.1700073" lon="12.4369071"><ele>201.0</ele><time>2026-05-01T10:12:50.637Z</time></trkpt><trkpt lat="43.169926" lon="12.4370076"><ele>201.0</ele><time>2026-05-01T10:12:52.659Z</time></trkpt><trkpt lat="43.1698472" lon="12.4371112"><ele>201.0</ele><time>2026-05-01T10:12:54.658Z</time></trkpt><trkpt lat="43.1697773" lon="12.4372133"><ele>201.0</ele><time>2026-05-01T10:12:56.636Z</time></trkpt><trkpt lat="43.1696924" lon="12.4373075"><ele>201.0</ele><time>2026-05-01T10:12:58.671Z</time></trkpt><trkpt lat="43.1696103" lon="12.4373987"><ele>201.20000000000002</ele><time>2026-05-01T10:13:00.642Z</time></trkpt><trkpt lat="43.1695325" lon="12.4374992"><ele>201.4</ele><time>2026-05-01T10:13:02.639Z</time></trkpt><trkpt lat="43.1694491" lon="12.4376001"><ele>201.6</ele><time>2026-05-01T10:13:04.743Z</time></trkpt><trkpt lat="43.1693696" lon="12.4376907"><ele>201.8</ele><time>2026-05-01T10:13:06.763Z</time></trkpt><trkpt lat="43.169289" lon="12.4377813"><ele>202.0</ele><time>2026-05-01T10:13:08.752Z</time></trkpt><trkpt lat="43.1692144" lon="12.4378708"><ele>202.0</ele><time>2026-05-01T10:13:10.664Z</time></trkpt><trkpt lat="43.1691367" lon="12.4379631"><ele>202.0</ele><time>2026-05-01T10:13:12.626Z</time></trkpt><trkpt lat="43.1690574" lon="12.4380587"><ele>202.0</ele><time>2026-05-01T10:13:14.617Z</time></trkpt><trkpt lat="43.168976" lon="12.438153"><ele>202.0</ele><time>2026-05-01T10:13:16.641Z</time></trkpt><trkpt lat="43.1688976" lon="12.4382519"><ele>202.0</ele><time>2026-05-01T10:13:18.651Z</time></trkpt><trkpt lat="43.1688207" lon="12.4383475"><ele>202.8</ele><time>2026-05-01T10:13:20.645Z</time></trkpt><trkpt lat="43.1687428" lon="12.4384362"><ele>203.6</ele><time>2026-05-01T10:13:22.635Z</time></trkpt><trkpt lat="43.1686684" lon="12.4385287"><ele>204.4</ele><time>2026-05-01T10:13:24.632Z</time></trkpt><trkpt lat="43.1685895" lon="12.4386169"><ele>205.20000000000002</ele><time>2026-05-01T10:13:26.643Z</time></trkpt><trkpt lat="43.1685107" lon="12.4387135"><ele>206.0</ele><time>2026-05-01T10:13:28.751Z</time></trkpt><trkpt lat="43.1684345" lon="12.4388073"><ele>206.20000000000002</ele><time>2026-05-01T10:13:30.668Z</time></trkpt><trkpt lat="43.1683477" lon="12.4389077"><ele>206.4</ele><time>2026-05-01T10:13:32.72Z</time></trkpt><trkpt lat="43.1682671" lon="12.4389954"><ele>206.6</ele><time>2026-05-01T10:13:34.639Z</time></trkpt><trkpt lat="43.1681805" lon="12.4390887"><ele>206.8</ele><time>2026-05-01T10:13:36.639Z</time></trkpt><trkpt lat="43.1681085" lon="12.4391938"><ele>207.0</ele><time>2026-05-01T10:13:38.634Z</time></trkpt><trkpt lat="43.1680305" lon="12.4393007"><ele>206.6</ele><time>2026-05-01T10:13:40.636Z</time></trkpt><trkpt lat="43.1679518" lon="12.4394059"><ele>206.2</ele><time>2026-05-01T10:13:42.672Z</time></trkpt><trkpt lat="43.1678637" lon="12.4394976"><ele>205.8</ele><time>2026-05-01T10:13:44.647Z</time></trkpt><trkpt lat="43.167776" lon="12.4396061"><ele>205.4</ele><time>2026-05-01T10:13:46.746Z</time></trkpt><trkpt lat="43.1677022" lon="12.4397054"><ele>205.0</ele><time>2026-05-01T10:13:48.629Z</time></trkpt><trkpt lat="43.1676161" lon="12.439803"><ele>205.0</ele><time>2026-05-01T10:13:50.637Z</time></trkpt><trkpt lat="43.1675279" lon="12.4399194"><ele>205.0</ele><time>2026-05-01T10:13:52.743Z</time></trkpt><trkpt lat="43.1674631" lon="12.4400331"><ele>205.0</ele><time>2026-05-01T10:13:54.642Z</time></trkpt><trkpt lat="43.167413" lon="12.440175"><ele>205.0</ele><time>2026-05-01T10:13:56.656Z</time></trkpt><trkpt lat="43.1673925" lon="12.4403257"><ele>205.0</ele><time>2026-05-01T10:13:58.659Z</time></trkpt><trkpt lat="43.1673902" lon="12.4404722"><ele>205.0</ele><time>2026-05-01T10:14:00.657Z</time></trkpt><trkpt lat="43.1673959" lon="12.4406173"><ele>205.0</ele><time>2026-05-01T10:14:02.656Z</time></trkpt><trkpt lat="43.1673979" lon="12.4407622"><ele>205.0</ele><time>2026-05-01T10:14:04.657Z</time></trkpt><trkpt lat="43.1673655" lon="12.4409023"><ele>205.0</ele><time>2026-05-01T10:14:06.658Z</time></trkpt><trkpt lat="43.1672721" lon="12.441"><ele>204.8</ele><time>2026-05-01T10:14:08.657Z</time></trkpt><trkpt lat="43.1671838" lon="12.4410918"><ele>204.6</ele><time>2026-05-01T10:14:10.629Z</time></trkpt><trkpt lat="43.1671022" lon="12.4411948"><ele>204.39999999999998</ele><time>2026-05-01T10:14:12.642Z</time></trkpt><trkpt lat="43.1670201" lon="12.4412996"><ele>204.2</ele><time>2026-05-01T10:14:14.614Z</time></trkpt><trkpt lat="43.1669353" lon="12.4413979"><ele>204.0</ele><time>2026-05-01T10:14:16.656Z</time></trkpt><trkpt lat="43.166857" lon="12.4414923"><ele>203.79999999999998</ele><time>2026-05-01T10:14:18.644Z</time></trkpt><trkpt lat="43.1667757" lon="12.4415886"><ele>203.6</ele><time>2026-05-01T10:14:20.703Z</time></trkpt><trkpt lat="43.1667026" lon="12.4416838"><ele>203.4</ele><time>2026-05-01T10:14:22.654Z</time></trkpt><trkpt lat="43.1666169" lon="12.4417788"><ele>203.2</ele><time>2026-05-01T10:14:24.675Z</time></trkpt><trkpt lat="43.1665325" lon="12.4418753"><ele>203.0</ele><time>2026-05-01T10:14:26.639Z</time></trkpt><trkpt lat="43.1664553" lon="12.4419742"><ele>202.75</ele><time>2026-05-01T10:14:28.648Z</time></trkpt><trkpt lat="43.1663721" lon="12.4420696"><ele>202.5</ele><time>2026-05-01T10:14:30.637Z</time></trkpt><trkpt lat="43.1662458" lon="12.4422106"><ele>202.25</ele><time>2026-05-01T10:14:33.671Z</time></trkpt><trkpt lat="43.16617" lon="12.4423012"><ele>202.0</ele><time>2026-05-01T10:14:35.64Z</time></trkpt><trkpt lat="43.166094" lon="12.4423897"><ele>202.0</ele><time>2026-05-01T10:14:37.663Z</time></trkpt><trkpt lat="43.1660187" lon="12.4424827"><ele>202.0</ele><time>2026-05-01T10:14:39.701Z</time></trkpt><trkpt lat="43.1659429" lon="12.4425729"><ele>202.0</ele><time>2026-05-01T10:14:41.769Z</time></trkpt><trkpt lat="43.1658773" lon="12.4426485"><ele>202.0</ele><time>2026-05-01T10:14:43.636Z</time></trkpt><trkpt lat="43.1658082" lon="12.4427213"><ele>202.0</ele><time>2026-05-01T10:14:45.655Z</time></trkpt><trkpt lat="43.1657473" lon="12.442799"><ele>202.0</ele><time>2026-05-01T10:14:47.658Z</time></trkpt><trkpt lat="43.1657023" lon="12.4428619"><ele>202.0</ele><time>2026-05-01T10:14:49.642Z</time></trkpt><trkpt lat="43.1656623" lon="12.442938"><ele>202.0</ele><time>2026-05-01T10:14:52.648Z</time></trkpt><trkpt lat="43.1656176" lon="12.4430004"><ele>202.0</ele><time>2026-05-01T10:14:56.71Z</time></trkpt><trkpt lat="43.1655469" lon="12.4430917"><ele>202.0</ele><time>2026-05-01T10:15:00.619Z</time></trkpt><trkpt lat="43.1654846" lon="12.4431534"><ele>202.0</ele><time>2026-05-01T10:15:02.671Z</time></trkpt><trkpt lat="43.1654227" lon="12.4432041"><ele>202.0</ele><time>2026-05-01T10:15:04.932Z</time></trkpt><trkpt lat="43.1654762" lon="12.4431559"><ele>202.28571428571428</ele><time>2026-05-01T10:17:50.619Z</time></trkpt><trkpt lat="43.165519" lon="12.4430885"><ele>202.57142857142856</ele><time>2026-05-01T10:17:55.306Z</time></trkpt><trkpt lat="43.1655752" lon="12.4430334"><ele>202.85714285714286</ele><time>2026-05-01T10:17:59.655Z</time></trkpt><trkpt lat="43.1656239" lon="12.4429718"><ele>203.14285714285714</ele><time>2026-05-01T10:18:05.66Z</time></trkpt><trkpt lat="43.1655734" lon="12.4430422"><ele>203.42857142857144</ele><time>2026-05-01T10:18:19.673Z</time></trkpt><trkpt lat="43.1655295" lon="12.4431091"><ele>203.71428571428572</ele><time>2026-05-01T10:18:22.661Z</time></trkpt><trkpt lat="43.1654625" lon="12.4431859"><ele>204.0</ele><time>2026-05-01T10:18:25.638Z</time></trkpt><trkpt lat="43.1654085" lon="12.4432376"><ele>204.0</ele><time>2026-05-01T10:18:27.661Z</time></trkpt><trkpt lat="43.1653409" lon="12.4433108"><ele>204.0</ele><time>2026-05-01T10:18:30.675Z</time></trkpt><trkpt lat="43.1652864" lon="12.4433687"><ele>204.0</ele><time>2026-05-01T10:18:34.755Z</time></trkpt><trkpt lat="43.1652728" lon="12.4434683"><ele>204.0</ele><time>2026-05-01T10:19:26.675Z</time></trkpt><trkpt lat="43.1653088" lon="12.4435431"><ele>204.0</ele><time>2026-05-01T10:19:30.678Z</time></trkpt><trkpt lat="43.1653566" lon="12.4436257"><ele>204.0</ele><time>2026-05-01T10:19:34.707Z</time></trkpt><trkpt lat="43.1654022" lon="12.4437076"><ele>204.0</ele><time>2026-05-01T10:19:38.652Z</time></trkpt><trkpt lat="43.1654451" lon="12.4437825"><ele>203.83333333333334</ele><time>2026-05-01T10:19:41.66Z</time></trkpt><trkpt lat="43.1654876" lon="12.4438534"><ele>203.66666666666669</ele><time>2026-05-01T10:19:44.612Z</time></trkpt><trkpt lat="43.1655393" lon="12.4439249"><ele>203.5</ele><time>2026-05-01T10:19:47.638Z</time></trkpt><trkpt lat="43.1656032" lon="12.4440303"><ele>203.33333333333334</ele><time>2026-05-01T10:19:51.661Z</time></trkpt><trkpt lat="43.165643" lon="12.444109"><ele>203.16666666666669</ele><time>2026-05-01T10:19:54.931Z</time></trkpt><trkpt lat="43.1656959" lon="12.4442009"><ele>203.0</ele><time>2026-05-01T10:19:59.653Z</time></trkpt><trkpt lat="43.1657442" lon="12.4442925"><ele>203.33333333333334</ele><time>2026-05-01T10:20:02.641Z</time></trkpt><trkpt lat="43.1657843" lon="12.444367"><ele>203.66666666666669</ele><time>2026-05-01T10:20:04.944Z</time></trkpt><trkpt lat="43.1658348" lon="12.4444637"><ele>204.0</ele><time>2026-05-01T10:20:07.656Z</time></trkpt><trkpt lat="43.1659025" lon="12.4445848"><ele>204.33333333333331</ele><time>2026-05-01T10:20:11.639Z</time></trkpt><trkpt lat="43.1659383" lon="12.4446588"><ele>204.66666666666666</ele><time>2026-05-01T10:20:13.638Z</time></trkpt><trkpt lat="43.1659729" lon="12.4447508"><ele>205.0</ele><time>2026-05-01T10:20:16.649Z</time></trkpt><trkpt lat="43.1660078" lon="12.4448611"><ele>204.99999999999997</ele><time>2026-05-01T10:20:19.673Z</time></trkpt><trkpt lat="43.1660371" lon="12.4449585"><ele>205.0</ele><time>2026-05-01T10:20:22.687Z</time></trkpt><trkpt lat="43.1660591" lon="12.44506"><ele>205.0</ele><time>2026-05-01T10:20:25.663Z</time></trkpt><trkpt lat="43.1660767" lon="12.445154"><ele>205.0</ele><time>2026-05-01T10:20:28.631Z</time></trkpt><trkpt lat="43.1661148" lon="12.4452461"><ele>204.99999999999997</ele><time>2026-05-01T10:20:31.655Z</time></trkpt><trkpt lat="43.166159" lon="12.4453543"><ele>205.0</ele><time>2026-05-01T10:20:34.671Z</time></trkpt><trkpt lat="43.1662084" lon="12.445464"><ele>204.83333333333331</ele><time>2026-05-01T10:20:37.891Z</time></trkpt><trkpt lat="43.1662414" lon="12.4455601"><ele>204.66666666666666</ele><time>2026-05-01T10:20:40.671Z</time></trkpt><trkpt lat="43.1662814" lon="12.4456605"><ele>204.5</ele><time>2026-05-01T10:20:43.649Z</time></trkpt><trkpt lat="43.1663136" lon="12.4457421"><ele>204.33333333333331</ele><time>2026-05-01T10:20:45.665Z</time></trkpt><trkpt lat="43.1663495" lon="12.4458267"><ele>204.16666666666666</ele><time>2026-05-01T10:20:47.693Z</time></trkpt><trkpt lat="43.1663857" lon="12.4459157"><ele>204.0</ele><time>2026-05-01T10:20:49.669Z</time></trkpt><trkpt lat="43.1664255" lon="12.4460062"><ele>204.0</ele><time>2026-05-01T10:20:51.684Z</time></trkpt><trkpt lat="43.1664633" lon="12.4461021"><ele>204.0</ele><time>2026-05-01T10:20:53.688Z</time></trkpt><trkpt lat="43.1665169" lon="12.4462435"><ele>204.0</ele><time>2026-05-01T10:20:56.675Z</time></trkpt><trkpt lat="43.1665578" lon="12.4463294"><ele>204.0</ele><time>2026-05-01T10:20:58.665Z</time></trkpt><trkpt lat="43.1665943" lon="12.4464208"><ele>204.0</ele><time>2026-05-01T10:21:00.665Z</time></trkpt><trkpt lat="43.1666348" lon="12.4465115"><ele>204.0</ele><time>2026-05-01T10:21:02.695Z</time></trkpt><trkpt lat="43.1666714" lon="12.4466043"><ele>204.42857142857144</ele><time>2026-05-01T10:21:04.652Z</time></trkpt><trkpt lat="43.1667136" lon="12.4466971"><ele>204.85714285714286</ele><time>2026-05-01T10:21:06.692Z</time></trkpt><trkpt lat="43.1667456" lon="12.4467858"><ele>205.28571428571428</ele><time>2026-05-01T10:21:08.675Z</time></trkpt><trkpt lat="43.166782" lon="12.4468671"><ele>205.71428571428572</ele><time>2026-05-01T10:21:10.602Z</time></trkpt><trkpt lat="43.1668198" lon="12.4469567"><ele>206.14285714285714</ele><time>2026-05-01T10:21:12.662Z</time></trkpt><trkpt lat="43.1668564" lon="12.4470431"><ele>206.57142857142858</ele><time>2026-05-01T10:21:14.717Z</time></trkpt><trkpt lat="43.166891" lon="12.4471196"><ele>207.0</ele><time>2026-05-01T10:21:16.666Z</time></trkpt><trkpt lat="43.1669301" lon="12.4472112"><ele>207.16666666666666</ele><time>2026-05-01T10:21:19.697Z</time></trkpt><trkpt lat="43.1669184" lon="12.4473116"><ele>207.33333333333331</ele><time>2026-05-01T10:21:22.662Z</time></trkpt><trkpt lat="43.1668526" lon="12.4473825"><ele>207.5</ele><time>2026-05-01T10:21:25.672Z</time></trkpt><trkpt lat="43.1667925" lon="12.4474315"><ele>207.66666666666666</ele><time>2026-05-01T10:21:27.696Z</time></trkpt><trkpt lat="43.1667276" lon="12.4474757"><ele>207.83333333333331</ele><time>2026-05-01T10:21:29.666Z</time></trkpt><trkpt lat="43.1666562" lon="12.4475212"><ele>208.0</ele><time>2026-05-01T10:21:31.662Z</time></trkpt><trkpt lat="43.1665893" lon="12.4475714"><ele>208.16666666666666</ele><time>2026-05-01T10:21:33.67Z</time></trkpt><trkpt lat="43.1665152" lon="12.4476184"><ele>208.33333333333331</ele><time>2026-05-01T10:21:35.669Z</time></trkpt><trkpt lat="43.1664439" lon="12.4476719"><ele>208.5</ele><time>2026-05-01T10:21:37.69Z</time></trkpt><trkpt lat="43.1663755" lon="12.447712"><ele>208.66666666666669</ele><time>2026-05-01T10:21:39.659Z</time></trkpt><trkpt lat="43.1663008" lon="12.4477385"><ele>208.83333333333334</ele><time>2026-05-01T10:21:41.668Z</time></trkpt><trkpt lat="43.1662229" lon="12.4477702"><ele>209.0</ele><time>2026-05-01T10:21:43.671Z</time></trkpt><trkpt lat="43.1661444" lon="12.4478163"><ele>209.0</ele><time>2026-05-01T10:21:45.665Z</time></trkpt><trkpt lat="43.166071" lon="12.4478875"><ele>209.0</ele><time>2026-05-01T10:21:47.681Z</time></trkpt><trkpt lat="43.1660123" lon="12.4479829"><ele>209.0</ele><time>2026-05-01T10:21:49.644Z</time></trkpt><trkpt lat="43.1659522" lon="12.4480854"><ele>209.0</ele><time>2026-05-01T10:21:51.666Z</time></trkpt><trkpt lat="43.1659016" lon="12.4481808"><ele>209.0</ele><time>2026-05-01T10:21:53.682Z</time></trkpt><trkpt lat="43.1658513" lon="12.4482849"><ele>208.79999999999998</ele><time>2026-05-01T10:21:55.664Z</time></trkpt><trkpt lat="43.165801" lon="12.4483948"><ele>208.6</ele><time>2026-05-01T10:21:57.642Z</time></trkpt><trkpt lat="43.1657593" lon="12.4485111"><ele>208.4</ele><time>2026-05-01T10:21:59.682Z</time></trkpt><trkpt lat="43.1657382" lon="12.4486379"><ele>208.2</ele><time>2026-05-01T10:22:01.684Z</time></trkpt><trkpt lat="43.1657175" lon="12.4487687"><ele>208.0</ele><time>2026-05-01T10:22:03.686Z</time></trkpt><trkpt lat="43.1657012" lon="12.4489025"><ele>207.66666666666666</ele><time>2026-05-01T10:22:05.683Z</time></trkpt><trkpt lat="43.165679" lon="12.4490076"><ele>207.33333333333331</ele><time>2026-05-01T10:22:07.677Z</time></trkpt><trkpt lat="43.1656548" lon="12.4490914"><ele>207.0</ele><time>2026-05-01T10:22:09.667Z</time></trkpt><trkpt lat="43.1656149" lon="12.4491698"><ele>206.66666666666669</ele><time>2026-05-01T10:22:11.663Z</time></trkpt><trkpt lat="43.1655671" lon="12.4492663"><ele>206.33333333333334</ele><time>2026-05-01T10:22:13.672Z</time></trkpt><trkpt lat="43.1655022" lon="12.449382"><ele>206.0</ele><time>2026-05-01T10:22:15.702Z</time></trkpt><trkpt lat="43.1654179" lon="12.4494687"><ele>206.0</ele><time>2026-05-01T10:22:17.652Z</time></trkpt><trkpt lat="43.1653202" lon="12.4495386"><ele>206.0</ele><time>2026-05-01T10:22:19.722Z</time></trkpt><trkpt lat="43.1652274" lon="12.4495989"><ele>206.0</ele><time>2026-05-01T10:22:21.671Z</time></trkpt><trkpt lat="43.1651293" lon="12.4496546"><ele>206.0</ele><time>2026-05-01T10:22:23.68Z</time></trkpt><trkpt lat="43.1650261" lon="12.4497101"><ele>206.0</ele><time>2026-05-01T10:22:25.791Z</time></trkpt><trkpt lat="43.1649307" lon="12.4497614"><ele>206.4</ele><time>2026-05-01T10:22:27.684Z</time></trkpt><trkpt lat="43.164827" lon="12.4498189"><ele>206.8</ele><time>2026-05-01T10:22:29.777Z</time></trkpt><trkpt lat="43.1647301" lon="12.4498668"><ele>207.20000000000002</ele><time>2026-05-01T10:22:31.654Z</time></trkpt><trkpt lat="43.1646307" lon="12.4499192"><ele>207.60000000000002</ele><time>2026-05-01T10:22:33.674Z</time></trkpt><trkpt lat="43.1645319" lon="12.4499674"><ele>208.0</ele><time>2026-05-01T10:22:35.65Z</time></trkpt><trkpt lat="43.1644266" lon="12.4500146"><ele>208.0</ele><time>2026-05-01T10:22:37.771Z</time></trkpt><trkpt lat="43.1643327" lon="12.4500671"><ele>208.0</ele><time>2026-05-01T10:22:39.651Z</time></trkpt><trkpt lat="43.1642288" lon="12.450121"><ele>208.0</ele><time>2026-05-01T10:22:41.671Z</time></trkpt><trkpt lat="43.164122" lon="12.4501731"><ele>208.0</ele><time>2026-05-01T10:22:43.66Z</time></trkpt><trkpt lat="43.1640148" lon="12.4502232"><ele>208.0</ele><time>2026-05-01T10:22:45.664Z</time></trkpt><trkpt lat="43.163921" lon="12.4503063"><ele>207.75</ele><time>2026-05-01T10:22:47.665Z</time></trkpt><trkpt lat="43.1638491" lon="12.4504287"><ele>207.5</ele><time>2026-05-01T10:22:49.653Z</time></trkpt><trkpt lat="43.1637774" lon="12.4505562"><ele>207.25</ele><time>2026-05-01T10:22:51.647Z</time></trkpt><trkpt lat="43.1637101" lon="12.4506839"><ele>207.0</ele><time>2026-05-01T10:22:53.682Z</time></trkpt><trkpt lat="43.1636423" lon="12.4508047"><ele>207.0</ele><time>2026-05-01T10:22:55.681Z</time></trkpt><trkpt lat="43.1635694" lon="12.4509193"><ele>207.0</ele><time>2026-05-01T10:22:57.659Z</time></trkpt><trkpt lat="43.1634858" lon="12.4510193"><ele>207.0</ele><time>2026-05-01T10:22:59.659Z</time></trkpt><trkpt lat="43.163386" lon="12.4510991"><ele>207.0</ele><time>2026-05-01T10:23:01.688Z</time></trkpt><trkpt lat="43.1632773" lon="12.4511735"><ele>206.6</ele><time>2026-05-01T10:23:03.68Z</time></trkpt><trkpt lat="43.1631699" lon="12.4512461"><ele>206.2</ele><time>2026-05-01T10:23:05.665Z</time></trkpt><trkpt lat="43.1630608" lon="12.4513243"><ele>205.8</ele><time>2026-05-01T10:23:07.677Z</time></trkpt><trkpt lat="43.1629421" lon="12.4513855"><ele>205.4</ele><time>2026-05-01T10:23:09.649Z</time></trkpt><trkpt lat="43.1628729" lon="12.4514057"><ele>205.0</ele><time>2026-05-01T10:23:10.688Z</time></trkpt><trkpt lat="43.1627481" lon="12.4513964"><ele>204.99999999999997</ele><time>2026-05-01T10:23:12.68Z</time></trkpt><trkpt lat="43.1626267" lon="12.4513788"><ele>205.0</ele><time>2026-05-01T10:23:14.616Z</time></trkpt><trkpt lat="43.1625579" lon="12.4513689"><ele>205.0</ele><time>2026-05-01T10:23:15.658Z</time></trkpt><trkpt lat="43.1624943" lon="12.4513584"><ele>205.0</ele><time>2026-05-01T10:23:16.645Z</time></trkpt><trkpt lat="43.1624261" lon="12.4513463"><ele>204.99999999999997</ele><time>2026-05-01T10:23:17.656Z</time></trkpt><trkpt lat="43.1623614" lon="12.4513493"><ele>205.0</ele><time>2026-05-01T10:23:18.65Z</time></trkpt><trkpt lat="43.1622964" lon="12.451365"><ele>204.83333333333331</ele><time>2026-05-01T10:23:19.654Z</time></trkpt><trkpt lat="43.1622332" lon="12.4513957"><ele>204.66666666666666</ele><time>2026-05-01T10:23:20.658Z</time></trkpt><trkpt lat="43.1621696" lon="12.4514355"><ele>204.5</ele><time>2026-05-01T10:23:21.685Z</time></trkpt><trkpt lat="43.1621108" lon="12.4514785"><ele>204.33333333333331</ele><time>2026-05-01T10:23:22.671Z</time></trkpt><trkpt lat="43.1620544" lon="12.4515212"><ele>204.16666666666666</ele><time>2026-05-01T10:23:23.671Z</time></trkpt><trkpt lat="43.1619957" lon="12.4515626"><ele>204.0</ele><time>2026-05-01T10:23:24.676Z</time></trkpt><trkpt lat="43.1618815" lon="12.4516395"><ele>204.0</ele><time>2026-05-01T10:23:26.662Z</time></trkpt><trkpt lat="43.1617755" lon="12.4517234"><ele>204.0</ele><time>2026-05-01T10:23:28.639Z</time></trkpt><trkpt lat="43.1616641" lon="12.4517925"><ele>204.0</ele><time>2026-05-01T10:23:30.668Z</time></trkpt><trkpt lat="43.1615556" lon="12.451859"><ele>204.0</ele><time>2026-05-01T10:23:32.652Z</time></trkpt><trkpt lat="43.1614459" lon="12.4519243"><ele>203.79999999999998</ele><time>2026-05-01T10:23:34.657Z</time></trkpt><trkpt lat="43.1613833" lon="12.4519546"><ele>203.6</ele><time>2026-05-01T10:23:35.76Z</time></trkpt><trkpt lat="43.1612716" lon="12.4520193"><ele>203.4</ele><time>2026-05-01T10:23:37.754Z</time></trkpt><trkpt lat="43.1611653" lon="12.4520812"><ele>203.2</ele><time>2026-05-01T10:23:39.659Z</time></trkpt><trkpt lat="43.1610514" lon="12.4521491"><ele>203.0</ele><time>2026-05-01T10:23:41.659Z</time></trkpt><trkpt lat="43.1609387" lon="12.4522181"><ele>203.25</ele><time>2026-05-01T10:23:43.644Z</time></trkpt><trkpt lat="43.1608255" lon="12.4522882"><ele>203.5</ele><time>2026-05-01T10:23:45.655Z</time></trkpt><trkpt lat="43.1607125" lon="12.4523547"><ele>203.75</ele><time>2026-05-01T10:23:47.654Z</time></trkpt><trkpt lat="43.1606024" lon="12.4524271"><ele>204.0</ele><time>2026-05-01T10:23:49.653Z</time></trkpt><trkpt lat="43.1604876" lon="12.4524984"><ele>204.0</ele><time>2026-05-01T10:23:51.662Z</time></trkpt><trkpt lat="43.1604265" lon="12.4525374"><ele>204.0</ele><time>2026-05-01T10:23:52.669Z</time></trkpt><trkpt lat="43.1603088" lon="12.4526022"><ele>204.0</ele><time>2026-05-01T10:23:54.656Z</time></trkpt><trkpt lat="43.1602502" lon="12.4526392"><ele>204.0</ele><time>2026-05-01T10:23:55.656Z</time></trkpt><trkpt lat="43.1601383" lon="12.4527155"><ele>204.0</ele><time>2026-05-01T10:23:57.668Z</time></trkpt><trkpt lat="43.1600357" lon="12.4528062"><ele>204.0</ele><time>2026-05-01T10:23:59.648Z</time></trkpt><trkpt lat="43.159937" lon="12.4529033"><ele>204.0</ele><time>2026-05-01T10:24:01.644Z</time></trkpt><trkpt lat="43.1598358" lon="12.4529947"><ele>204.0</ele><time>2026-05-01T10:24:03.669Z</time></trkpt><trkpt lat="43.1597241" lon="12.4530562"><ele>204.0</ele><time>2026-05-01T10:24:05.668Z</time></trkpt><trkpt lat="43.1596052" lon="12.4530865"><ele>203.83333333333334</ele><time>2026-05-01T10:24:07.673Z</time></trkpt><trkpt lat="43.1595429" lon="12.4531045"><ele>203.66666666666669</ele><time>2026-05-01T10:24:08.69Z</time></trkpt><trkpt lat="43.1594172" lon="12.4531372"><ele>203.5</ele><time>2026-05-01T10:24:10.806Z</time></trkpt><trkpt lat="43.1593025" lon="12.4531732"><ele>203.33333333333334</ele><time>2026-05-01T10:24:12.664Z</time></trkpt><trkpt lat="43.1592392" lon="12.4531979"><ele>203.16666666666669</ele><time>2026-05-01T10:24:13.675Z</time></trkpt><trkpt lat="43.1591781" lon="12.4532191"><ele>203.0</ele><time>2026-05-01T10:24:14.649Z</time></trkpt><trkpt lat="43.1591119" lon="12.4532355"><ele>203.00000000000003</ele><time>2026-05-01T10:24:15.663Z</time></trkpt><trkpt lat="43.1590496" lon="12.4532573"><ele>203.0</ele><time>2026-05-01T10:24:16.656Z</time></trkpt><trkpt lat="43.1589797" lon="12.453281"><ele>203.0</ele><time>2026-05-01T10:24:17.764Z</time></trkpt><trkpt lat="43.1588613" lon="12.4533029"><ele>203.0</ele><time>2026-05-01T10:24:19.656Z</time></trkpt><trkpt lat="43.158796" lon="12.4533086"><ele>203.00000000000003</ele><time>2026-05-01T10:24:20.667Z</time></trkpt><trkpt lat="43.1586734" lon="12.4533209"><ele>203.0</ele><time>2026-05-01T10:24:22.661Z</time></trkpt><trkpt lat="43.1585507" lon="12.4533352"><ele>202.8</ele><time>2026-05-01T10:24:24.685Z</time></trkpt><trkpt lat="43.1584283" lon="12.4533574"><ele>202.60000000000002</ele><time>2026-05-01T10:24:26.643Z</time></trkpt><trkpt lat="43.1583143" lon="12.4534355"><ele>202.39999999999998</ele><time>2026-05-01T10:24:28.611Z</time></trkpt><trkpt lat="43.1582632" lon="12.4534915"><ele>202.2</ele><time>2026-05-01T10:24:29.626Z</time></trkpt><trkpt lat="43.1582102" lon="12.4535531"><ele>202.0</ele><time>2026-05-01T10:24:30.701Z</time></trkpt><trkpt lat="43.1581058" lon="12.4536579"><ele>202.0</ele><time>2026-05-01T10:24:32.669Z</time></trkpt><trkpt lat="43.1580571" lon="12.4537136"><ele>202.0</ele><time>2026-05-01T10:24:33.695Z</time></trkpt><trkpt lat="43.1579619" lon="12.4538167"><ele>202.0</ele><time>2026-05-01T10:24:35.656Z</time></trkpt><trkpt lat="43.1578602" lon="12.4539073"><ele>202.0</ele><time>2026-05-01T10:24:37.676Z</time></trkpt><trkpt lat="43.1577993" lon="12.4539353"><ele>202.0</ele><time>2026-05-01T10:24:38.67Z</time></trkpt><trkpt lat="43.1576784" lon="12.4539466"><ele>202.0</ele><time>2026-05-01T10:24:40.673Z</time></trkpt><trkpt lat="43.1576167" lon="12.4539254"><ele>202.0</ele><time>2026-05-01T10:24:41.642Z</time></trkpt><trkpt lat="43.1575035" lon="12.4538774"><ele>202.0</ele><time>2026-05-01T10:24:43.64Z</time></trkpt><trkpt lat="43.1573781" lon="12.4537993"><ele>202.0</ele><time>2026-05-01T10:24:45.859Z</time></trkpt><trkpt lat="43.1572833" lon="12.4537212"><ele>202.0</ele><time>2026-05-01T10:24:47.671Z</time></trkpt><trkpt lat="43.1571891" lon="12.4536313"><ele>201.0</ele><time>2026-05-01T10:24:49.648Z</time></trkpt><trkpt lat="43.1571015" lon="12.453539"><ele>200.0</ele><time>2026-05-01T10:24:51.635Z</time></trkpt><trkpt lat="43.1570178" lon="12.4534602"><ele>199.0</ele><time>2026-05-01T10:24:53.649Z</time></trkpt><trkpt lat="43.1569305" lon="12.4533676"><ele>198.0</ele><time>2026-05-01T10:24:55.663Z</time></trkpt><trkpt lat="43.1567933" lon="12.4532831"><ele>198.0</ele><time>2026-05-01T10:24:58.647Z</time></trkpt><trkpt lat="43.1567203" lon="12.4532892"><ele>198.0</ele><time>2026-05-01T10:25:00.699Z</time></trkpt><trkpt lat="43.1566495" lon="12.4532981"><ele>198.0</ele><time>2026-05-01T10:25:03.671Z</time></trkpt><trkpt lat="43.1567058" lon="12.4532562"><ele>198.0</ele><time>2026-05-01T10:25:10.653Z</time></trkpt><trkpt lat="43.1567886" lon="12.4532875"><ele>198.0</ele><time>2026-05-01T10:25:15.666Z</time></trkpt><trkpt lat="43.1566997" lon="12.4532898"><ele>198.0</ele><time>2026-05-01T10:25:22.669Z</time></trkpt><trkpt lat="43.1566324" lon="12.4533312"><ele>198.0</ele><time>2026-05-01T10:25:24.664Z</time></trkpt><trkpt lat="43.1565526" lon="12.4533987"><ele>198.0</ele><time>2026-05-01T10:25:26.754Z</time></trkpt><trkpt lat="43.1564857" lon="12.4534774"><ele>198.0</ele><time>2026-05-01T10:25:28.723Z</time></trkpt><trkpt lat="43.1563916" lon="12.4536045"><ele>198.0</ele><time>2026-05-01T10:25:31.66Z</time></trkpt><trkpt lat="43.1563293" lon="12.4536875"><ele>198.0</ele><time>2026-05-01T10:25:33.649Z</time></trkpt><trkpt lat="43.1562618" lon="12.4537643"><ele>198.0</ele><time>2026-05-01T10:25:35.677Z</time></trkpt><trkpt lat="43.15619" lon="12.4538263"><ele>198.0</ele><time>2026-05-01T10:25:37.648Z</time></trkpt><trkpt lat="43.1561059" lon="12.453867"><ele>198.0</ele><time>2026-05-01T10:25:39.638Z</time></trkpt><trkpt lat="43.1560257" lon="12.4539154"><ele>198.0</ele><time>2026-05-01T10:25:41.642Z</time></trkpt><trkpt lat="43.1559583" lon="12.4539762"><ele>198.0</ele><time>2026-05-01T10:25:43.662Z</time></trkpt><trkpt lat="43.1559057" lon="12.4540694"><ele>198.0</ele><time>2026-05-01T10:25:45.684Z</time></trkpt><trkpt lat="43.1558667" lon="12.4541602"><ele>198.0</ele><time>2026-05-01T10:25:47.69Z</time></trkpt><trkpt lat="43.1558168" lon="12.4542384"><ele>198.0</ele><time>2026-05-01T10:25:49.774Z</time></trkpt><trkpt lat="43.1557672" lon="12.4543252"><ele>198.0</ele><time>2026-05-01T10:25:51.673Z</time></trkpt><trkpt lat="43.1556916" lon="12.4544457"><ele>198.0</ele><time>2026-05-01T10:25:54.656Z</time></trkpt><trkpt lat="43.1556413" lon="12.4545254"><ele>198.0</ele><time>2026-05-01T10:25:56.664Z</time></trkpt><trkpt lat="43.1555949" lon="12.4546003"><ele>198.0</ele><time>2026-05-01T10:25:58.652Z</time></trkpt><trkpt lat="43.1555411" lon="12.4546689"><ele>198.5</ele><time>2026-05-01T10:26:00.688Z</time></trkpt><trkpt lat="43.155477" lon="12.454754"><ele>199.0</ele><time>2026-05-01T10:26:03.669Z</time></trkpt><trkpt lat="43.1554204" lon="12.4548008"><ele>199.5</ele><time>2026-05-01T10:26:06.645Z</time></trkpt><trkpt lat="43.1554579" lon="12.4547226"><ele>200.0</ele><time>2026-05-01T10:26:10.674Z</time></trkpt><trkpt lat="43.1555098" lon="12.4546714"><ele>200.5</ele><time>2026-05-01T10:26:13.67Z</time></trkpt><trkpt lat="43.1555824" lon="12.4545948"><ele>201.0</ele><time>2026-05-01T10:26:17.657Z</time></trkpt><trkpt lat="43.1556481" lon="12.4544859"><ele>201.0</ele><time>2026-05-01T10:26:20.87Z</time></trkpt><trkpt lat="43.1557012" lon="12.4544112"><ele>201.0</ele><time>2026-05-01T10:26:22.636Z</time></trkpt><trkpt lat="43.1557567" lon="12.4543252"><ele>201.0</ele><time>2026-05-01T10:26:24.652Z</time></trkpt><trkpt lat="43.1558115" lon="12.4542314"><ele>201.0</ele><time>2026-05-01T10:26:26.637Z</time></trkpt><trkpt lat="43.1558615" lon="12.4541462"><ele>201.0</ele><time>2026-05-01T10:26:28.673Z</time></trkpt><trkpt lat="43.1559084" lon="12.4540708"><ele>201.0</ele><time>2026-05-01T10:26:30.765Z</time></trkpt><trkpt lat="43.1559716" lon="12.4540727"><ele>200.57142857142856</ele><time>2026-05-01T10:26:32.643Z</time></trkpt><trkpt lat="43.1560143" lon="12.4541483"><ele>200.14285714285717</ele><time>2026-05-01T10:26:37.624Z</time></trkpt><trkpt lat="43.1560803" lon="12.4541815"><ele>199.71428571428572</ele><time>2026-05-01T10:26:44.658Z</time></trkpt><trkpt lat="43.156047" lon="12.4540991"><ele>199.28571428571428</ele><time>2026-05-01T10:27:39.623Z</time></trkpt><trkpt lat="43.156003" lon="12.4540309"><ele>198.85714285714283</ele><time>2026-05-01T10:27:51.799Z</time></trkpt><trkpt lat="43.1559392" lon="12.4539683"><ele>198.42857142857144</ele><time>2026-05-01T10:28:01.694Z</time></trkpt><trkpt lat="43.1558997" lon="12.4538946"><ele>198.0</ele><time>2026-05-01T10:28:06.676Z</time></trkpt><trkpt lat="43.1558577" lon="12.4538133"><ele>198.57142857142858</ele><time>2026-05-01T10:28:11.707Z</time></trkpt><trkpt lat="43.1558101" lon="12.4537318"><ele>199.14285714285714</ele><time>2026-05-01T10:28:16.656Z</time></trkpt><trkpt lat="43.1557623" lon="12.4536638"><ele>199.71428571428572</ele><time>2026-05-01T10:28:20.634Z</time></trkpt><trkpt lat="43.1557129" lon="12.4535847"><ele>200.28571428571428</ele><time>2026-05-01T10:28:25.669Z</time></trkpt><trkpt lat="43.1556607" lon="12.453511"><ele>200.85714285714283</ele><time>2026-05-01T10:28:30.662Z</time></trkpt><trkpt lat="43.1556108" lon="12.4534488"><ele>201.42857142857142</ele><time>2026-05-01T10:28:40.665Z</time></trkpt><trkpt lat="43.1555705" lon="12.4533822"><ele>202.0</ele><time>2026-05-01T10:28:59.649Z</time></trkpt><trkpt lat="43.1555275" lon="12.4533072"><ele>202.33333333333331</ele><time>2026-05-01T10:30:12.662Z</time></trkpt><trkpt lat="43.1554764" lon="12.4532276"><ele>202.66666666666666</ele><time>2026-05-01T10:30:27.653Z</time></trkpt><trkpt lat="43.155493" lon="12.4533241"><ele>203.0</ele><time>2026-05-01T10:30:34.666Z</time></trkpt><trkpt lat="43.1555429" lon="12.4534347"><ele>203.33333333333331</ele><time>2026-05-01T10:30:37.627Z</time></trkpt><trkpt lat="43.1554859" lon="12.4534945"><ele>203.66666666666666</ele><time>2026-05-01T10:30:40.654Z</time></trkpt><trkpt lat="43.1554382" lon="12.4535811"><ele>204.0</ele><time>2026-05-01T10:30:43.651Z</time></trkpt><trkpt lat="43.15538" lon="12.4536544"><ele>204.0</ele><time>2026-05-01T10:30:46.668Z</time></trkpt><trkpt lat="43.1553216" lon="12.4537389"><ele>204.0</ele><time>2026-05-01T10:30:49.892Z</time></trkpt><trkpt lat="43.1552559" lon="12.4538175"><ele>204.0</ele><time>2026-05-01T10:30:52.641Z</time></trkpt><trkpt lat="43.1552032" lon="12.4538726"><ele>204.0</ele><time>2026-05-01T10:30:54.665Z</time></trkpt><trkpt lat="43.1551287" lon="12.4539442"><ele>204.0</ele><time>2026-05-01T10:30:57.702Z</time></trkpt><trkpt lat="43.1550769" lon="12.4540085"><ele>204.0</ele><time>2026-05-01T10:30:59.68Z</time></trkpt><trkpt lat="43.1550138" lon="12.4540763"><ele>204.0</ele><time>2026-05-01T10:31:01.782Z</time></trkpt><trkpt lat="43.1549566" lon="12.4541438"><ele>204.0</ele><time>2026-05-01T10:31:03.673Z</time></trkpt><trkpt lat="43.1548911" lon="12.4542219"><ele>204.0</ele><time>2026-05-01T10:31:05.689Z</time></trkpt><trkpt lat="43.1548324" lon="12.4542921"><ele>204.0</ele><time>2026-05-01T10:31:07.657Z</time></trkpt><trkpt lat="43.1547659" lon="12.4543649"><ele>204.0</ele><time>2026-05-01T10:31:09.692Z</time></trkpt><trkpt lat="43.1547004" lon="12.4544401"><ele>204.0</ele><time>2026-05-01T10:31:11.658Z</time></trkpt><trkpt lat="43.154636" lon="12.4545252"><ele>204.0</ele><time>2026-05-01T10:31:13.652Z</time></trkpt><trkpt lat="43.1545576" lon="12.454611"><ele>204.0</ele><time>2026-05-01T10:31:15.692Z</time></trkpt><trkpt lat="43.154479" lon="12.4547125"><ele>204.0</ele><time>2026-05-01T10:31:17.659Z</time></trkpt><trkpt lat="43.1543988" lon="12.4548179"><ele>204.0</ele><time>2026-05-01T10:31:19.661Z</time></trkpt><trkpt lat="43.1543115" lon="12.4549281"><ele>204.0</ele><time>2026-05-01T10:31:21.675Z</time></trkpt><trkpt lat="43.1542266" lon="12.4550404"><ele>204.0</ele><time>2026-05-01T10:31:23.672Z</time></trkpt><trkpt lat="43.1541439" lon="12.4551565"><ele>204.0</ele><time>2026-05-01T10:31:25.645Z</time></trkpt><trkpt lat="43.1540942" lon="12.4552193"><ele>204.0</ele><time>2026-05-01T10:31:26.79Z</time></trkpt><trkpt lat="43.1540085" lon="12.4553381"><ele>204.0</ele><time>2026-05-01T10:31:28.768Z</time></trkpt><trkpt lat="43.1539264" lon="12.4554499"><ele>204.0</ele><time>2026-05-01T10:31:30.65Z</time></trkpt><trkpt lat="43.1538429" lon="12.4555767"><ele>203.39999999999998</ele><time>2026-05-01T10:31:32.671Z</time></trkpt><trkpt lat="43.1537554" lon="12.455704"><ele>202.8</ele><time>2026-05-01T10:31:34.712Z</time></trkpt><trkpt lat="43.1536765" lon="12.4558222"><ele>202.2</ele><time>2026-05-01T10:31:36.666Z</time></trkpt><trkpt lat="43.1536351" lon="12.455891"><ele>201.60000000000002</ele><time>2026-05-01T10:31:37.769Z</time></trkpt><trkpt lat="43.1535566" lon="12.4560001"><ele>201.0</ele><time>2026-05-01T10:31:39.656Z</time></trkpt><trkpt lat="43.1534697" lon="12.4561155"><ele>201.0</ele><time>2026-05-01T10:31:41.65Z</time></trkpt><trkpt lat="43.1533852" lon="12.4562313"><ele>201.0</ele><time>2026-05-01T10:31:43.651Z</time></trkpt><trkpt lat="43.1532991" lon="12.4563493"><ele>201.0</ele><time>2026-05-01T10:31:45.665Z</time></trkpt><trkpt lat="43.1532147" lon="12.4564681"><ele>201.0</ele><time>2026-05-01T10:31:47.668Z</time></trkpt><trkpt lat="43.1531217" lon="12.4565814"><ele>200.8</ele><time>2026-05-01T10:31:49.674Z</time></trkpt><trkpt lat="43.1530336" lon="12.4566968"><ele>200.60000000000002</ele><time>2026-05-01T10:31:51.664Z</time></trkpt><trkpt lat="43.1529783" lon="12.456765"><ele>200.4</ele><time>2026-05-01T10:31:52.855Z</time></trkpt><trkpt lat="43.1528956" lon="12.4568653"><ele>200.2</ele><time>2026-05-01T10:31:54.669Z</time></trkpt><trkpt lat="43.1528481" lon="12.4569221"><ele>200.0</ele><time>2026-05-01T10:31:55.719Z</time></trkpt><trkpt lat="43.1527548" lon="12.4570286"><ele>200.2</ele><time>2026-05-01T10:31:57.669Z</time></trkpt><trkpt lat="43.152653" lon="12.4571234"><ele>200.4</ele><time>2026-05-01T10:31:59.764Z</time></trkpt><trkpt lat="43.1525762" lon="12.457214"><ele>200.60000000000002</ele><time>2026-05-01T10:32:01.643Z</time></trkpt><trkpt lat="43.1525126" lon="12.4573091"><ele>200.8</ele><time>2026-05-01T10:32:03.662Z</time></trkpt><trkpt lat="43.1524456" lon="12.4573978"><ele>201.0</ele><time>2026-05-01T10:32:05.662Z</time></trkpt><trkpt lat="43.1523707" lon="12.4574882"><ele>201.0</ele><time>2026-05-01T10:32:07.661Z</time></trkpt><trkpt lat="43.1522929" lon="12.4575687"><ele>201.0</ele><time>2026-05-01T10:32:09.673Z</time></trkpt><trkpt lat="43.1522172" lon="12.4576609"><ele>201.0</ele><time>2026-05-01T10:32:11.67Z</time></trkpt><trkpt lat="43.1521409" lon="12.4577553"><ele>201.0</ele><time>2026-05-01T10:32:13.651Z</time></trkpt><trkpt lat="43.1520526" lon="12.4578493"><ele>201.0</ele><time>2026-05-01T10:32:15.649Z</time></trkpt><trkpt lat="43.1519646" lon="12.4579484"><ele>201.0</ele><time>2026-05-01T10:32:17.657Z</time></trkpt><trkpt lat="43.1518694" lon="12.4580249"><ele>201.0</ele><time>2026-05-01T10:32:19.657Z</time></trkpt><trkpt lat="43.1517777" lon="12.4581174"><ele>201.0</ele><time>2026-05-01T10:32:21.661Z</time></trkpt><trkpt lat="43.1516836" lon="12.4582147"><ele>201.0</ele><time>2026-05-01T10:32:23.667Z</time></trkpt><trkpt lat="43.1515956" lon="12.4583151"><ele>200.75</ele><time>2026-05-01T10:32:25.637Z</time></trkpt><trkpt lat="43.1515046" lon="12.4584198"><ele>200.5</ele><time>2026-05-01T10:32:27.66Z</time></trkpt><trkpt lat="43.1514234" lon="12.4585165"><ele>200.25</ele><time>2026-05-01T10:32:29.646Z</time></trkpt><trkpt lat="43.1513372" lon="12.4586172"><ele>200.0</ele><time>2026-05-01T10:32:31.674Z</time></trkpt><trkpt lat="43.1512471" lon="12.4587108"><ele>200.75</ele><time>2026-05-01T10:32:33.664Z</time></trkpt><trkpt lat="43.1511547" lon="12.4588165"><ele>201.5</ele><time>2026-05-01T10:32:35.775Z</time></trkpt><trkpt lat="43.1510731" lon="12.4589118"><ele>202.25</ele><time>2026-05-01T10:32:37.652Z</time></trkpt><trkpt lat="43.1509921" lon="12.4590213"><ele>203.0</ele><time>2026-05-01T10:32:39.674Z</time></trkpt><trkpt lat="43.1509101" lon="12.4591261"><ele>203.0</ele><time>2026-05-01T10:32:41.671Z</time></trkpt><trkpt lat="43.1508303" lon="12.4592386"><ele>203.0</ele><time>2026-05-01T10:32:43.671Z</time></trkpt><trkpt lat="43.1507477" lon="12.4593524"><ele>203.0</ele><time>2026-05-01T10:32:45.685Z</time></trkpt><trkpt lat="43.1506693" lon="12.4594532"><ele>203.0</ele><time>2026-05-01T10:32:47.657Z</time></trkpt><trkpt lat="43.1505846" lon="12.4595562"><ele>202.25</ele><time>2026-05-01T10:32:49.672Z</time></trkpt><trkpt lat="43.1504915" lon="12.4596535"><ele>201.5</ele><time>2026-05-01T10:32:51.665Z</time></trkpt><trkpt lat="43.1503943" lon="12.4597419"><ele>200.75</ele><time>2026-05-01T10:32:53.657Z</time></trkpt><trkpt lat="43.1502991" lon="12.4598384"><ele>200.0</ele><time>2026-05-01T10:32:55.684Z</time></trkpt><trkpt lat="43.150212" lon="12.4599519"><ele>200.0</ele><time>2026-05-01T10:32:57.673Z</time></trkpt><trkpt lat="43.1501233" lon="12.4600619"><ele>200.0</ele><time>2026-05-01T10:32:59.667Z</time></trkpt><trkpt lat="43.1500224" lon="12.4601558"><ele>200.0</ele><time>2026-05-01T10:33:01.668Z</time></trkpt><trkpt lat="43.1499692" lon="12.4602038"><ele>200.0</ele><time>2026-05-01T10:33:02.7Z</time></trkpt><trkpt lat="43.1499134" lon="12.4602568"><ele>200.0</ele><time>2026-05-01T10:33:03.803Z</time></trkpt><trkpt lat="43.1498184" lon="12.4603519"><ele>200.25</ele><time>2026-05-01T10:33:05.674Z</time></trkpt><trkpt lat="43.1497245" lon="12.4604496"><ele>200.5</ele><time>2026-05-01T10:33:07.632Z</time></trkpt><trkpt lat="43.1496243" lon="12.4605421"><ele>200.75</ele><time>2026-05-01T10:33:09.682Z</time></trkpt><trkpt lat="43.1495266" lon="12.4606264"><ele>201.0</ele><time>2026-05-01T10:33:11.66Z</time></trkpt><trkpt lat="43.1494308" lon="12.4607147"><ele>201.0</ele><time>2026-05-01T10:33:13.704Z</time></trkpt><trkpt lat="43.1493388" lon="12.4608007"><ele>201.0</ele><time>2026-05-01T10:33:15.684Z</time></trkpt><trkpt lat="43.1492423" lon="12.4608919"><ele>201.0</ele><time>2026-05-01T10:33:17.653Z</time></trkpt><trkpt lat="43.1491442" lon="12.460984"><ele>201.0</ele><time>2026-05-01T10:33:19.664Z</time></trkpt><trkpt lat="43.1490475" lon="12.4610756"><ele>201.0</ele><time>2026-05-01T10:33:21.67Z</time></trkpt><trkpt lat="43.1489915" lon="12.4611245"><ele>201.0</ele><time>2026-05-01T10:33:22.776Z</time></trkpt><trkpt lat="43.1488972" lon="12.4612101"><ele>201.0</ele><time>2026-05-01T10:33:24.691Z</time></trkpt><trkpt lat="43.1487939" lon="12.4612899"><ele>201.0</ele><time>2026-05-01T10:33:26.653Z</time></trkpt><trkpt lat="43.1486927" lon="12.4613655"><ele>201.0</ele><time>2026-05-01T10:33:28.679Z</time></trkpt><trkpt lat="43.1485893" lon="12.4614401"><ele>201.0</ele><time>2026-05-01T10:33:30.664Z</time></trkpt><trkpt lat="43.1485281" lon="12.4614882"><ele>201.0</ele><time>2026-05-01T10:33:31.874Z</time></trkpt><trkpt lat="43.1484305" lon="12.4615565"><ele>201.0</ele><time>2026-05-01T10:33:33.684Z</time></trkpt><trkpt lat="43.1483183" lon="12.4616248"><ele>201.0</ele><time>2026-05-01T10:33:35.679Z</time></trkpt><trkpt lat="43.1482115" lon="12.4616955"><ele>201.0</ele><time>2026-05-01T10:33:37.671Z</time></trkpt><trkpt lat="43.1480993" lon="12.4617527"><ele>200.60000000000002</ele><time>2026-05-01T10:33:39.661Z</time></trkpt><trkpt lat="43.1480381" lon="12.4617762"><ele>200.2</ele><time>2026-05-01T10:33:40.665Z</time></trkpt><trkpt lat="43.1479329" lon="12.4618325"><ele>199.8</ele><time>2026-05-01T10:33:42.697Z</time></trkpt><trkpt lat="43.1478239" lon="12.4618628"><ele>199.39999999999998</ele><time>2026-05-01T10:33:44.662Z</time></trkpt><trkpt lat="43.1477519" lon="12.4618788"><ele>199.0</ele><time>2026-05-01T10:33:45.876Z</time></trkpt><trkpt lat="43.1476646" lon="12.4619186"><ele>199.0</ele><time>2026-05-01T10:33:47.652Z</time></trkpt><trkpt lat="43.1475515" lon="12.4619729"><ele>199.0</ele><time>2026-05-01T10:33:49.646Z</time></trkpt><trkpt lat="43.1474432" lon="12.4620761"><ele>199.0</ele><time>2026-05-01T10:33:51.833Z</time></trkpt><trkpt lat="43.1473505" lon="12.4621711"><ele>199.0</ele><time>2026-05-01T10:33:53.673Z</time></trkpt><trkpt lat="43.1472931" lon="12.4622219"><ele>199.0</ele><time>2026-05-01T10:33:54.634Z</time></trkpt><trkpt lat="43.1472347" lon="12.4622787"><ele>198.79999999999998</ele><time>2026-05-01T10:33:55.679Z</time></trkpt><trkpt lat="43.1471807" lon="12.4623263"><ele>198.6</ele><time>2026-05-01T10:33:56.697Z</time></trkpt><trkpt lat="43.1471185" lon="12.4623715"><ele>198.4</ele><time>2026-05-01T10:33:57.759Z</time></trkpt><trkpt lat="43.1470194" lon="12.4624512"><ele>198.2</ele><time>2026-05-01T10:33:59.679Z</time></trkpt><trkpt lat="43.1469081" lon="12.4625495"><ele>198.0</ele><time>2026-05-01T10:34:01.669Z</time></trkpt><trkpt lat="43.1467989" lon="12.4625991"><ele>198.0</ele><time>2026-05-01T10:34:03.771Z</time></trkpt><trkpt lat="43.1467347" lon="12.4626203"><ele>198.0</ele><time>2026-05-01T10:34:04.692Z</time></trkpt><trkpt lat="43.1466205" lon="12.4626426"><ele>198.0</ele><time>2026-05-01T10:34:06.672Z</time></trkpt><trkpt lat="43.146513" lon="12.4626554"><ele>198.0</ele><time>2026-05-01T10:34:08.673Z</time></trkpt><trkpt lat="43.1464497" lon="12.4626604"><ele>198.0</ele><time>2026-05-01T10:34:09.661Z</time></trkpt><trkpt lat="43.1463465" lon="12.462626"><ele>198.4</ele><time>2026-05-01T10:34:11.666Z</time></trkpt><trkpt lat="43.1462886" lon="12.4625843"><ele>198.8</ele><time>2026-05-01T10:34:12.661Z</time></trkpt><trkpt lat="43.1462232" lon="12.4625377"><ele>199.2</ele><time>2026-05-01T10:34:13.669Z</time></trkpt><trkpt lat="43.1461209" lon="12.4624651"><ele>199.6</ele><time>2026-05-01T10:34:15.639Z</time></trkpt><trkpt lat="43.1460216" lon="12.4623911"><ele>200.0</ele><time>2026-05-01T10:34:17.612Z</time></trkpt><trkpt lat="43.1459405" lon="12.4622048"><ele>199.25</ele><time>2026-05-01T10:34:20.633Z</time></trkpt><trkpt lat="43.1458914" lon="12.4620565"><ele>198.5</ele><time>2026-05-01T10:34:22.664Z</time></trkpt><trkpt lat="43.1458487" lon="12.46191"><ele>197.75</ele><time>2026-05-01T10:34:24.658Z</time></trkpt><trkpt lat="43.1458118" lon="12.4617643"><ele>197.0</ele><time>2026-05-01T10:34:26.661Z</time></trkpt><trkpt lat="43.1457765" lon="12.4616168"><ele>197.0</ele><time>2026-05-01T10:34:28.629Z</time></trkpt><trkpt lat="43.1457223" lon="12.4614615"><ele>197.0</ele><time>2026-05-01T10:34:30.74Z</time></trkpt><trkpt lat="43.1456738" lon="12.4613287"><ele>197.0</ele><time>2026-05-01T10:34:32.634Z</time></trkpt><trkpt lat="43.1456326" lon="12.4611939"><ele>197.0</ele><time>2026-05-01T10:34:34.638Z</time></trkpt><trkpt lat="43.1455955" lon="12.4611101"><ele>197.0</ele><time>2026-05-01T10:34:35.744Z</time></trkpt><trkpt lat="43.1455309" lon="12.4609878"><ele>197.25</ele><time>2026-05-01T10:34:37.646Z</time></trkpt><trkpt lat="43.14549" lon="12.460839"><ele>197.5</ele><time>2026-05-01T10:34:39.617Z</time></trkpt><trkpt lat="43.145469" lon="12.4606873"><ele>197.75</ele><time>2026-05-01T10:34:41.633Z</time></trkpt><trkpt lat="43.1454464" lon="12.4605285"><ele>198.0</ele><time>2026-05-01T10:34:43.674Z</time></trkpt><trkpt lat="43.1454327" lon="12.4603721"><ele>198.0</ele><time>2026-05-01T10:34:45.647Z</time></trkpt><trkpt lat="43.1454142" lon="12.4602739"><ele>198.0</ele><time>2026-05-01T10:34:46.754Z</time></trkpt><trkpt lat="43.145395" lon="12.4601344"><ele>198.0</ele><time>2026-05-01T10:34:48.665Z</time></trkpt><trkpt lat="43.1453741" lon="12.4599726"><ele>198.0</ele><time>2026-05-01T10:34:50.643Z</time></trkpt><trkpt lat="43.1453546" lon="12.4598192"><ele>198.0</ele><time>2026-05-01T10:34:52.626Z</time></trkpt><trkpt lat="43.1453457" lon="12.4597301"><ele>198.0</ele><time>2026-05-01T10:34:53.66Z</time></trkpt><trkpt lat="43.1453308" lon="12.4595709"><ele>198.0</ele><time>2026-05-01T10:34:55.69Z</time></trkpt><trkpt lat="43.1453024" lon="12.4594152"><ele>198.0</ele><time>2026-05-01T10:34:57.667Z</time></trkpt><trkpt lat="43.1452737" lon="12.4592566"><ele>198.0</ele><time>2026-05-01T10:34:59.683Z</time></trkpt><trkpt lat="43.14525" lon="12.4591724"><ele>198.0</ele><time>2026-05-01T10:35:00.693Z</time></trkpt><trkpt lat="43.145218" lon="12.4590262"><ele>198.0</ele><time>2026-05-01T10:35:02.668Z</time></trkpt><trkpt lat="43.1452057" lon="12.4589415"><ele>198.0</ele><time>2026-05-01T10:35:03.665Z</time></trkpt><trkpt lat="43.1451747" lon="12.458783"><ele>198.0</ele><time>2026-05-01T10:35:05.661Z</time></trkpt><trkpt lat="43.1451497" lon="12.4586251"><ele>198.0</ele><time>2026-05-01T10:35:07.669Z</time></trkpt><trkpt lat="43.1451219" lon="12.4584752"><ele>198.0</ele><time>2026-05-01T10:35:09.661Z</time></trkpt><trkpt lat="43.1450828" lon="12.4583267"><ele>198.0</ele><time>2026-05-01T10:35:11.66Z</time></trkpt><trkpt lat="43.1450296" lon="12.4582111"><ele>198.0</ele><time>2026-05-01T10:35:13.643Z</time></trkpt><trkpt lat="43.14495" lon="12.458108"><ele>198.0</ele><time>2026-05-01T10:35:15.678Z</time></trkpt><trkpt lat="43.1448602" lon="12.4580203"><ele>198.0</ele><time>2026-05-01T10:35:17.695Z</time></trkpt><trkpt lat="43.1447724" lon="12.4579355"><ele>198.0</ele><time>2026-05-01T10:35:19.672Z</time></trkpt><trkpt lat="43.1446884" lon="12.4578511"><ele>198.2</ele><time>2026-05-01T10:35:21.671Z</time></trkpt><trkpt lat="43.1446155" lon="12.4577622"><ele>198.4</ele><time>2026-05-01T10:35:23.637Z</time></trkpt><trkpt lat="43.1445453" lon="12.4576696"><ele>198.6</ele><time>2026-05-01T10:35:25.682Z</time></trkpt><trkpt lat="43.1444741" lon="12.4576075"><ele>198.79999999999998</ele><time>2026-05-01T10:35:27.664Z</time></trkpt><trkpt lat="43.1443717" lon="12.4575762"><ele>199.0</ele><time>2026-05-01T10:35:29.677Z</time></trkpt><trkpt lat="43.1442732" lon="12.4575269"><ele>199.0</ele><time>2026-05-01T10:35:31.658Z</time></trkpt><trkpt lat="43.1441774" lon="12.4574502"><ele>199.0</ele><time>2026-05-01T10:35:33.648Z</time></trkpt><trkpt lat="43.1440827" lon="12.4573584"><ele>199.0</ele><time>2026-05-01T10:35:35.67Z</time></trkpt><trkpt lat="43.1439858" lon="12.4572693"><ele>199.0</ele><time>2026-05-01T10:35:37.68Z</time></trkpt><trkpt lat="43.1438941" lon="12.4571755"><ele>198.25</ele><time>2026-05-01T10:35:39.656Z</time></trkpt><trkpt lat="43.1438129" lon="12.4570675"><ele>197.5</ele><time>2026-05-01T10:35:41.646Z</time></trkpt><trkpt lat="43.1438181" lon="12.4569189"><ele>196.75</ele><time>2026-05-01T10:35:43.672Z</time></trkpt><trkpt lat="43.1438857" lon="12.45679"><ele>196.0</ele><time>2026-05-01T10:35:45.669Z</time></trkpt><trkpt lat="43.143948" lon="12.4566597"><ele>196.0</ele><time>2026-05-01T10:35:47.677Z</time></trkpt><trkpt lat="43.1439982" lon="12.4565398"><ele>196.0</ele><time>2026-05-01T10:35:49.655Z</time></trkpt><trkpt lat="43.1440775" lon="12.4564489"><ele>196.0</ele><time>2026-05-01T10:35:51.638Z</time></trkpt><trkpt lat="43.1441239" lon="12.4563255"><ele>196.0</ele><time>2026-05-01T10:35:53.636Z</time></trkpt><trkpt lat="43.1440855" lon="12.4562002"><ele>196.0</ele><time>2026-05-01T10:35:55.652Z</time></trkpt><trkpt lat="43.1440078" lon="12.4561271"><ele>197.0</ele><time>2026-05-01T10:35:57.718Z</time></trkpt><trkpt lat="43.1439326" lon="12.4560553"><ele>198.0</ele><time>2026-05-01T10:35:59.673Z</time></trkpt><trkpt lat="43.1438558" lon="12.4559777"><ele>199.0</ele><time>2026-05-01T10:36:01.701Z</time></trkpt><trkpt lat="43.1437771" lon="12.455926"><ele>200.0</ele><time>2026-05-01T10:36:03.633Z</time></trkpt><trkpt lat="43.1436888" lon="12.4558638"><ele>201.0</ele><time>2026-05-01T10:36:05.666Z</time></trkpt><trkpt lat="43.1436014" lon="12.4557932"><ele>201.0</ele><time>2026-05-01T10:36:07.663Z</time></trkpt><trkpt lat="43.1435051" lon="12.4557285"><ele>201.0</ele><time>2026-05-01T10:36:09.742Z</time></trkpt><trkpt lat="43.1434085" lon="12.4556698"><ele>201.0</ele><time>2026-05-01T10:36:11.682Z</time></trkpt><trkpt lat="43.1433109" lon="12.4556058"><ele>201.0</ele><time>2026-05-01T10:36:13.679Z</time></trkpt><trkpt lat="43.1432096" lon="12.4555312"><ele>201.0</ele><time>2026-05-01T10:36:15.797Z</time></trkpt><trkpt lat="43.1431183" lon="12.4554865"><ele>200.33333333333334</ele><time>2026-05-01T10:36:17.684Z</time></trkpt><trkpt lat="43.1430296" lon="12.4554861"><ele>199.66666666666669</ele><time>2026-05-01T10:36:19.656Z</time></trkpt><trkpt lat="43.1429894" lon="12.4556194"><ele>199.0</ele><time>2026-05-01T10:36:21.683Z</time></trkpt><trkpt lat="43.1429745" lon="12.4557459"><ele>198.33333333333334</ele><time>2026-05-01T10:36:23.655Z</time></trkpt><trkpt lat="43.1429424" lon="12.4558401"><ele>197.66666666666669</ele><time>2026-05-01T10:36:25.685Z</time></trkpt><trkpt lat="43.1428694" lon="12.4558907"><ele>197.0</ele><time>2026-05-01T10:36:27.689Z</time></trkpt><trkpt lat="43.1427737" lon="12.4558129"><ele>197.0</ele><time>2026-05-01T10:36:29.669Z</time></trkpt><trkpt lat="43.1426763" lon="12.455725"><ele>197.0</ele><time>2026-05-01T10:36:31.681Z</time></trkpt><trkpt lat="43.1425792" lon="12.4556482"><ele>197.0</ele><time>2026-05-01T10:36:33.656Z</time></trkpt><trkpt lat="43.1424832" lon="12.4555655"><ele>197.0</ele><time>2026-05-01T10:36:35.686Z</time></trkpt><trkpt lat="43.1423796" lon="12.4555061"><ele>197.16666666666669</ele><time>2026-05-01T10:36:37.661Z</time></trkpt><trkpt lat="43.1422812" lon="12.4554531"><ele>197.33333333333334</ele><time>2026-05-01T10:36:39.668Z</time></trkpt><trkpt lat="43.1422093" lon="12.45536"><ele>197.5</ele><time>2026-05-01T10:36:41.674Z</time></trkpt><trkpt lat="43.1421317" lon="12.4553174"><ele>197.66666666666669</ele><time>2026-05-01T10:36:43.845Z</time></trkpt><trkpt lat="43.1420911" lon="12.4553973"><ele>197.83333333333334</ele><time>2026-05-01T10:36:45.729Z</time></trkpt><trkpt lat="43.1420595" lon="12.4555008"><ele>198.0</ele><time>2026-05-01T10:36:47.671Z</time></trkpt><trkpt lat="43.1420363" lon="12.4556281"><ele>198.0</ele><time>2026-05-01T10:36:49.684Z</time></trkpt><trkpt lat="43.1419857" lon="12.455747"><ele>198.0</ele><time>2026-05-01T10:36:51.657Z</time></trkpt><trkpt lat="43.1419562" lon="12.4558392"><ele>198.0</ele><time>2026-05-01T10:36:53.671Z</time></trkpt><trkpt lat="43.141888" lon="12.455859"><ele>198.0</ele><time>2026-05-01T10:36:56.661Z</time></trkpt><trkpt lat="43.1418264" lon="12.4558261"><ele>198.0</ele><time>2026-05-01T10:36:58.646Z</time></trkpt><trkpt lat="43.1417539" lon="12.4557917"><ele>198.0</ele><time>2026-05-01T10:37:00.672Z</time></trkpt><trkpt lat="43.1416909" lon="12.4557639"><ele>198.0</ele><time>2026-05-01T10:37:04.665Z</time></trkpt><trkpt lat="43.1415902" lon="12.4557223"><ele>198.0</ele><time>2026-05-01T10:37:06.658Z</time></trkpt><trkpt lat="43.1414541" lon="12.4556748"><ele>198.0</ele><time>2026-05-01T10:37:08.641Z</time></trkpt><trkpt lat="43.1413862" lon="12.4556444"><ele>198.0</ele><time>2026-05-01T10:37:09.634Z</time></trkpt><trkpt lat="43.1413128" lon="12.4556054"><ele>198.0</ele><time>2026-05-01T10:37:10.635Z</time></trkpt><trkpt lat="43.1412005" lon="12.4555388"><ele>198.60000000000002</ele><time>2026-05-01T10:37:12.656Z</time></trkpt><trkpt lat="43.1410836" lon="12.4554561"><ele>199.20000000000002</ele><time>2026-05-01T10:37:14.767Z</time></trkpt><trkpt lat="43.1409792" lon="12.4553478"><ele>199.8</ele><time>2026-05-01T10:37:16.633Z</time></trkpt><trkpt lat="43.1409216" lon="12.4552934"><ele>200.4</ele><time>2026-05-01T10:37:17.643Z</time></trkpt><trkpt lat="43.140862" lon="12.4552491"><ele>201.0</ele><time>2026-05-01T10:37:18.639Z</time></trkpt><trkpt lat="43.1408014" lon="12.4551997"><ele>201.0</ele><time>2026-05-01T10:37:19.617Z</time></trkpt><trkpt lat="43.1407441" lon="12.4551608"><ele>201.0</ele><time>2026-05-01T10:37:20.628Z</time></trkpt><trkpt lat="43.140685" lon="12.4551238"><ele>201.0</ele><time>2026-05-01T10:37:21.749Z</time></trkpt><trkpt lat="43.1405813" lon="12.4550316"><ele>201.0</ele><time>2026-05-01T10:37:23.624Z</time></trkpt><trkpt lat="43.1405196" lon="12.4549722"><ele>201.0</ele><time>2026-05-01T10:37:24.754Z</time></trkpt><trkpt lat="43.1404551" lon="12.4549166"><ele>201.0</ele><time>2026-05-01T10:37:25.887Z</time></trkpt><trkpt lat="43.1403604" lon="12.4548415"><ele>200.83333333333334</ele><time>2026-05-01T10:37:27.676Z</time></trkpt><trkpt lat="43.1403044" lon="12.4547915"><ele>200.66666666666669</ele><time>2026-05-01T10:37:28.621Z</time></trkpt><trkpt lat="43.1402453" lon="12.4547416"><ele>200.5</ele><time>2026-05-01T10:37:29.64Z</time></trkpt><trkpt lat="43.1401833" lon="12.4546896"><ele>200.33333333333334</ele><time>2026-05-01T10:37:30.739Z</time></trkpt><trkpt lat="43.1400807" lon="12.4545946"><ele>200.16666666666669</ele><time>2026-05-01T10:37:32.646Z</time></trkpt><trkpt lat="43.1400244" lon="12.4545432"><ele>200.0</ele><time>2026-05-01T10:37:33.634Z</time></trkpt><trkpt lat="43.1399176" lon="12.4544433"><ele>200.0</ele><time>2026-05-01T10:37:35.637Z</time></trkpt><trkpt lat="43.1398185" lon="12.4543521"><ele>200.0</ele><time>2026-05-01T10:37:37.654Z</time></trkpt><trkpt lat="43.1397155" lon="12.4542506"><ele>200.0</ele><time>2026-05-01T10:37:39.766Z</time></trkpt><trkpt lat="43.1396577" lon="12.4541975"><ele>200.0</ele><time>2026-05-01T10:37:40.727Z</time></trkpt><trkpt lat="43.1395666" lon="12.4541054"><ele>200.0</ele><time>2026-05-01T10:37:42.665Z</time></trkpt><trkpt lat="43.139498" lon="12.4540516"><ele>200.0</ele><time>2026-05-01T10:37:43.672Z</time></trkpt><trkpt lat="43.1394013" lon="12.4539636"><ele>200.0</ele><time>2026-05-01T10:37:45.667Z</time></trkpt><trkpt lat="43.1393002" lon="12.4538732"><ele>200.0</ele><time>2026-05-01T10:37:47.647Z</time></trkpt><trkpt lat="43.1392463" lon="12.453828"><ele>200.0</ele><time>2026-05-01T10:37:48.646Z</time></trkpt><trkpt lat="43.1391492" lon="12.4537563"><ele>200.0</ele><time>2026-05-01T10:37:50.692Z</time></trkpt><trkpt lat="43.1390715" lon="12.4536835"><ele>199.50000000000003</ele><time>2026-05-01T10:37:52.685Z</time></trkpt><trkpt lat="43.1390189" lon="12.4536348"><ele>199.0</ele><time>2026-05-01T10:37:53.762Z</time></trkpt><trkpt lat="43.1389309" lon="12.4535672"><ele>198.5</ele><time>2026-05-01T10:37:55.645Z</time></trkpt><trkpt lat="43.1388776" lon="12.4535204"><ele>198.0</ele><time>2026-05-01T10:37:56.656Z</time></trkpt><trkpt lat="43.138821" lon="12.4534753"><ele>197.50000000000003</ele><time>2026-05-01T10:37:57.665Z</time></trkpt><trkpt lat="43.1387272" lon="12.4533824"><ele>197.0</ele><time>2026-05-01T10:37:59.637Z</time></trkpt><trkpt lat="43.1386717" lon="12.4533406"><ele>197.00000000000003</ele><time>2026-05-01T10:38:00.66Z</time></trkpt><trkpt lat="43.1386186" lon="12.4532934"><ele>197.0</ele><time>2026-05-01T10:38:01.638Z</time></trkpt><trkpt lat="43.1385595" lon="12.4532386"><ele>197.0</ele><time>2026-05-01T10:38:02.673Z</time></trkpt><trkpt lat="43.1384616" lon="12.4531544"><ele>197.0</ele><time>2026-05-01T10:38:04.642Z</time></trkpt><trkpt lat="43.1383536" lon="12.4530611"><ele>197.00000000000003</ele><time>2026-05-01T10:38:06.643Z</time></trkpt><trkpt lat="43.1382951" lon="12.4530188"><ele>197.0</ele><time>2026-05-01T10:38:07.661Z</time></trkpt><trkpt lat="43.1382016" lon="12.4529387"><ele>197.0</ele><time>2026-05-01T10:38:09.697Z</time></trkpt><trkpt lat="43.138104" lon="12.4528324"><ele>197.0</ele><time>2026-05-01T10:38:11.649Z</time></trkpt><trkpt lat="43.1380174" lon="12.4527577"><ele>197.0</ele><time>2026-05-01T10:38:13.649Z</time></trkpt><trkpt lat="43.1379629" lon="12.4527123"><ele>197.0</ele><time>2026-05-01T10:38:16.67Z</time></trkpt><trkpt lat="43.1378711" lon="12.4526297"><ele>197.0</ele><time>2026-05-01T10:38:20.653Z</time></trkpt><trkpt lat="43.1377838" lon="12.4525648"><ele>197.0</ele><time>2026-05-01T10:38:22.671Z</time></trkpt><trkpt lat="43.1377151" lon="12.4524978"><ele>197.0</ele><time>2026-05-01T10:38:24.636Z</time></trkpt><trkpt lat="43.137627" lon="12.4523969"><ele>197.0</ele><time>2026-05-01T10:38:27.681Z</time></trkpt><trkpt lat="43.1376601" lon="12.4522442"><ele>197.0</ele><time>2026-05-01T10:38:30.664Z</time></trkpt><trkpt lat="43.1376737" lon="12.4521209"><ele>197.0</ele><time>2026-05-01T10:38:32.685Z</time></trkpt><trkpt lat="43.137634" lon="12.4520504"><ele>197.33333333333334</ele><time>2026-05-01T10:38:34.666Z</time></trkpt><trkpt lat="43.1375939" lon="12.4519648"><ele>197.66666666666669</ele><time>2026-05-01T10:38:36.671Z</time></trkpt><trkpt lat="43.1375485" lon="12.4518849"><ele>198.0</ele><time>2026-05-01T10:38:38.689Z</time></trkpt><trkpt lat="43.1374929" lon="12.4517676"><ele>198.33333333333331</ele><time>2026-05-01T10:38:40.672Z</time></trkpt><trkpt lat="43.1374274" lon="12.4516412"><ele>198.66666666666666</ele><time>2026-05-01T10:38:42.634Z</time></trkpt><trkpt lat="43.1373956" lon="12.451565"><ele>199.0</ele><time>2026-05-01T10:38:43.669Z</time></trkpt><trkpt lat="43.1373306" lon="12.4514229"><ele>198.6</ele><time>2026-05-01T10:38:45.664Z</time></trkpt><trkpt lat="43.1372973" lon="12.4513473"><ele>198.2</ele><time>2026-05-01T10:38:46.637Z</time></trkpt><trkpt lat="43.1372328" lon="12.4512056"><ele>197.79999999999998</ele><time>2026-05-01T10:38:48.667Z</time></trkpt><trkpt lat="43.1371785" lon="12.4510711"><ele>197.39999999999998</ele><time>2026-05-01T10:38:50.672Z</time></trkpt><trkpt lat="43.1371295" lon="12.4509506"><ele>197.0</ele><time>2026-05-01T10:38:52.657Z</time></trkpt><trkpt lat="43.1370367" lon="12.4508855"><ele>197.00000000000003</ele><time>2026-05-01T10:38:54.658Z</time></trkpt><trkpt lat="43.1369707" lon="12.4508696"><ele>197.0</ele><time>2026-05-01T10:38:55.673Z</time></trkpt><trkpt lat="43.1368795" lon="12.4507697"><ele>197.0</ele><time>2026-05-01T10:38:57.676Z</time></trkpt><trkpt lat="43.1368503" lon="12.4506924"><ele>197.0</ele><time>2026-05-01T10:38:58.667Z</time></trkpt><trkpt lat="43.1367858" lon="12.4505421"><ele>197.00000000000003</ele><time>2026-05-01T10:39:00.764Z</time></trkpt><trkpt lat="43.1367498" lon="12.4504651"><ele>197.0</ele><time>2026-05-01T10:39:01.844Z</time></trkpt><trkpt lat="43.1366827" lon="12.4503025"><ele>196.85714285714286</ele><time>2026-05-01T10:39:03.895Z</time></trkpt><trkpt lat="43.1366259" lon="12.4501621"><ele>196.71428571428572</ele><time>2026-05-01T10:39:05.673Z</time></trkpt><trkpt lat="43.1365932" lon="12.4500876"><ele>196.57142857142856</ele><time>2026-05-01T10:39:06.671Z</time></trkpt><trkpt lat="43.136557" lon="12.4500107"><ele>196.42857142857144</ele><time>2026-05-01T10:39:07.681Z</time></trkpt><trkpt lat="43.1365218" lon="12.4499331"><ele>196.28571428571428</ele><time>2026-05-01T10:39:08.672Z</time></trkpt><trkpt lat="43.1364828" lon="12.4498594"><ele>196.14285714285714</ele><time>2026-05-01T10:39:09.662Z</time></trkpt><trkpt lat="43.136445" lon="12.4497831"><ele>196.0</ele><time>2026-05-01T10:39:10.668Z</time></trkpt><trkpt lat="43.1364099" lon="12.4497077"><ele>196.0</ele><time>2026-05-01T10:39:11.663Z</time></trkpt><trkpt lat="43.1363703" lon="12.4496304"><ele>196.0</ele><time>2026-05-01T10:39:12.689Z</time></trkpt><trkpt lat="43.1363318" lon="12.4495484"><ele>196.0</ele><time>2026-05-01T10:39:13.666Z</time></trkpt><trkpt lat="43.136303" lon="12.4494709"><ele>196.0</ele><time>2026-05-01T10:39:14.665Z</time></trkpt><trkpt lat="43.136272" lon="12.4493897"><ele>196.0</ele><time>2026-05-01T10:39:15.665Z</time></trkpt><trkpt lat="43.1362361" lon="12.4493046"><ele>196.0</ele><time>2026-05-01T10:39:16.672Z</time></trkpt><trkpt lat="43.1362048" lon="12.4492244"><ele>196.0</ele><time>2026-05-01T10:39:17.67Z</time></trkpt><trkpt lat="43.1361726" lon="12.4491426"><ele>195.99999999999997</ele><time>2026-05-01T10:39:18.667Z</time></trkpt><trkpt lat="43.1361427" lon="12.4490633"><ele>196.0</ele><time>2026-05-01T10:39:19.675Z</time></trkpt><trkpt lat="43.1361147" lon="12.4489852"><ele>196.0</ele><time>2026-05-01T10:39:20.693Z</time></trkpt><trkpt lat="43.1360799" lon="12.4489057"><ele>196.0</ele><time>2026-05-01T10:39:21.747Z</time></trkpt><trkpt lat="43.1360176" lon="12.4487591"><ele>195.99999999999997</ele><time>2026-05-01T10:39:23.664Z</time></trkpt><trkpt lat="43.1359823" lon="12.4486785"><ele>196.0</ele><time>2026-05-01T10:39:24.683Z</time></trkpt><trkpt lat="43.1359192" lon="12.4485356"><ele>195.99999999999997</ele><time>2026-05-01T10:39:26.674Z</time></trkpt><trkpt lat="43.135865" lon="12.4484374"><ele>196.0</ele><time>2026-05-01T10:39:28.66Z</time></trkpt><trkpt lat="43.1358216" lon="12.448365"><ele>196.0</ele><time>2026-05-01T10:39:31.671Z</time></trkpt><trkpt lat="43.1357695" lon="12.4484516"><ele>196.0</ele><time>2026-05-01T10:39:33.689Z</time></trkpt><trkpt lat="43.135687" lon="12.44852"><ele>195.99999999999997</ele><time>2026-05-01T10:39:35.681Z</time></trkpt><trkpt lat="43.1356109" lon="12.4486122"><ele>196.0</ele><time>2026-05-01T10:39:37.634Z</time></trkpt><trkpt lat="43.135536" lon="12.448723"><ele>195.4</ele><time>2026-05-01T10:39:39.654Z</time></trkpt><trkpt lat="43.1354653" lon="12.4488285"><ele>194.8</ele><time>2026-05-01T10:39:41.645Z</time></trkpt><trkpt lat="43.1353717" lon="12.4489108"><ele>194.20000000000002</ele><time>2026-05-01T10:39:43.667Z</time></trkpt><trkpt lat="43.1352678" lon="12.4489116"><ele>193.60000000000002</ele><time>2026-05-01T10:39:45.678Z</time></trkpt><trkpt lat="43.1352079" lon="12.4488694"><ele>193.0</ele><time>2026-05-01T10:39:46.679Z</time></trkpt><trkpt lat="43.1351625" lon="12.448797"><ele>193.16666666666666</ele><time>2026-05-01T10:39:47.749Z</time></trkpt><trkpt lat="43.135105" lon="12.4487204"><ele>193.33333333333331</ele><time>2026-05-01T10:39:48.674Z</time></trkpt><trkpt lat="43.1350531" lon="12.4486451"><ele>193.5</ele><time>2026-05-01T10:39:49.658Z</time></trkpt><trkpt lat="43.1350014" lon="12.4485701"><ele>193.66666666666669</ele><time>2026-05-01T10:39:50.667Z</time></trkpt><trkpt lat="43.1349524" lon="12.4485032"><ele>193.83333333333334</ele><time>2026-05-01T10:39:51.65Z</time></trkpt><trkpt lat="43.1348724" lon="12.4484143"><ele>194.0</ele><time>2026-05-01T10:39:53.262Z</time></trkpt><trkpt lat="43.1348285" lon="12.4483431"><ele>194.16666666666669</ele><time>2026-05-01T10:39:54.262Z</time></trkpt><trkpt lat="43.1347421" lon="12.4482224"><ele>194.33333333333334</ele><time>2026-05-01T10:39:56.262Z</time></trkpt><trkpt lat="43.1346992" lon="12.448139"><ele>194.5</ele><time>2026-05-01T10:39:57.637Z</time></trkpt><trkpt lat="43.1346517" lon="12.4480563"><ele>194.66666666666669</ele><time>2026-05-01T10:39:58.644Z</time></trkpt><trkpt lat="43.1346089" lon="12.4479788"><ele>194.83333333333334</ele><time>2026-05-01T10:39:59.639Z</time></trkpt><trkpt lat="43.1345658" lon="12.4479116"><ele>195.0</ele><time>2026-05-01T10:40:00.669Z</time></trkpt><trkpt lat="43.1344848" lon="12.4477857"><ele>195.33333333333334</ele><time>2026-05-01T10:40:02.667Z</time></trkpt><trkpt lat="43.1344487" lon="12.4477066"><ele>195.66666666666669</ele><time>2026-05-01T10:40:03.668Z</time></trkpt><trkpt lat="43.1344111" lon="12.4475622"><ele>196.0</ele><time>2026-05-01T10:40:05.645Z</time></trkpt><trkpt lat="43.1344037" lon="12.4474405"><ele>196.33333333333334</ele><time>2026-05-01T10:40:07.637Z</time></trkpt><trkpt lat="43.1344009" lon="12.4473385"><ele>196.66666666666669</ele><time>2026-05-01T10:40:09.668Z</time></trkpt><trkpt lat="43.1344009" lon="12.4472398"><ele>197.0</ele><time>2026-05-01T10:40:11.673Z</time></trkpt><trkpt lat="43.1343497" lon="12.4471138"><ele>197.00000000000003</ele><time>2026-05-01T10:40:14.705Z</time></trkpt><trkpt lat="43.1342809" lon="12.4471122"><ele>197.0</ele><time>2026-05-01T10:40:16.693Z</time></trkpt><trkpt lat="43.1341942" lon="12.4471561"><ele>197.0</ele><time>2026-05-01T10:40:19.695Z</time></trkpt><trkpt lat="43.1340909" lon="12.4472011"><ele>197.0</ele><time>2026-05-01T10:40:22.694Z</time></trkpt><trkpt lat="43.1340275" lon="12.4472239"><ele>197.00000000000003</ele><time>2026-05-01T10:40:24.679Z</time></trkpt><trkpt lat="43.1339654" lon="12.447253"><ele>197.0</ele><time>2026-05-01T10:40:26.79Z</time></trkpt><trkpt lat="43.1338853" lon="12.4472882"><ele>196.66666666666669</ele><time>2026-05-01T10:40:29.67Z</time></trkpt><trkpt lat="43.1338212" lon="12.4473186"><ele>196.33333333333334</ele><time>2026-05-01T10:40:31.781Z</time></trkpt><trkpt lat="43.1337556" lon="12.4473526"><ele>196.0</ele><time>2026-05-01T10:40:33.664Z</time></trkpt><trkpt lat="43.1336813" lon="12.4473898"><ele>195.66666666666669</ele><time>2026-05-01T10:40:35.681Z</time></trkpt><trkpt lat="43.1336008" lon="12.4474271"><ele>195.33333333333334</ele><time>2026-05-01T10:40:37.667Z</time></trkpt><trkpt lat="43.1334975" lon="12.4474746"><ele>195.0</ele><time>2026-05-01T10:40:39.686Z</time></trkpt><trkpt lat="43.1333793" lon="12.4475005"><ele>195.0</ele><time>2026-05-01T10:40:41.677Z</time></trkpt><trkpt lat="43.1333001" lon="12.4473644"><ele>195.0</ele><time>2026-05-01T10:40:43.679Z</time></trkpt><trkpt lat="43.1333302" lon="12.4472319"><ele>195.0</ele><time>2026-05-01T10:40:44.676Z</time></trkpt><trkpt lat="43.1333312" lon="12.4471104"><ele>195.0</ele><time>2026-05-01T10:40:45.678Z</time></trkpt><trkpt lat="43.1333108" lon="12.446992"><ele>195.0</ele><time>2026-05-01T10:40:46.648Z</time></trkpt><trkpt lat="43.133289" lon="12.4468677"><ele>195.5</ele><time>2026-05-01T10:40:47.648Z</time></trkpt><trkpt lat="43.1332581" lon="12.4467399"><ele>196.0</ele><time>2026-05-01T10:40:48.666Z</time></trkpt><trkpt lat="43.1332255" lon="12.4466164"><ele>196.5</ele><time>2026-05-01T10:40:49.652Z</time></trkpt><trkpt lat="43.1332032" lon="12.4465112"><ele>197.0</ele><time>2026-05-01T10:40:50.62Z</time></trkpt><trkpt lat="43.1331837" lon="12.4463956"><ele>197.5</ele><time>2026-05-01T10:40:51.66Z</time></trkpt><trkpt lat="43.133172" lon="12.446283"><ele>198.0</ele><time>2026-05-01T10:40:52.642Z</time></trkpt><trkpt lat="43.1331544" lon="12.4461576"><ele>198.33333333333334</ele><time>2026-05-01T10:40:53.666Z</time></trkpt><trkpt lat="43.1331404" lon="12.4460452"><ele>198.66666666666669</ele><time>2026-05-01T10:40:54.631Z</time></trkpt><trkpt lat="43.1331382" lon="12.4459324"><ele>199.0</ele><time>2026-05-01T10:40:55.657Z</time></trkpt><trkpt lat="43.1331436" lon="12.4458122"><ele>199.33333333333334</ele><time>2026-05-01T10:40:56.659Z</time></trkpt><trkpt lat="43.1331561" lon="12.445696"><ele>199.66666666666669</ele><time>2026-05-01T10:40:57.707Z</time></trkpt><trkpt lat="43.1331728" lon="12.4455853"><ele>200.0</ele><time>2026-05-01T10:40:58.642Z</time></trkpt><trkpt lat="43.1331913" lon="12.4454711"><ele>199.83333333333334</ele><time>2026-05-01T10:40:59.625Z</time></trkpt><trkpt lat="43.1332139" lon="12.4453508"><ele>199.66666666666669</ele><time>2026-05-01T10:41:00.645Z</time></trkpt><trkpt lat="43.1332326" lon="12.445234"><ele>199.5</ele><time>2026-05-01T10:41:01.656Z</time></trkpt><trkpt lat="43.1332447" lon="12.4451187"><ele>199.33333333333331</ele><time>2026-05-01T10:41:02.66Z</time></trkpt><trkpt lat="43.13326" lon="12.4450076"><ele>199.16666666666666</ele><time>2026-05-01T10:41:03.639Z</time></trkpt><trkpt lat="43.1332743" lon="12.4448936"><ele>199.0</ele><time>2026-05-01T10:41:04.642Z</time></trkpt><trkpt lat="43.1332919" lon="12.4447799"><ele>198.83333333333331</ele><time>2026-05-01T10:41:05.67Z</time></trkpt><trkpt lat="43.1333129" lon="12.4446718"><ele>198.66666666666666</ele><time>2026-05-01T10:41:06.669Z</time></trkpt><trkpt lat="43.1333376" lon="12.4445651"><ele>198.5</ele><time>2026-05-01T10:41:07.658Z</time></trkpt><trkpt lat="43.1333639" lon="12.4444647"><ele>198.33333333333331</ele><time>2026-05-01T10:41:08.637Z</time></trkpt><trkpt lat="43.1333934" lon="12.4443602"><ele>198.16666666666666</ele><time>2026-05-01T10:41:09.657Z</time></trkpt><trkpt lat="43.1334254" lon="12.444263"><ele>198.0</ele><time>2026-05-01T10:41:10.643Z</time></trkpt><trkpt lat="43.1334514" lon="12.4441615"><ele>198.0</ele><time>2026-05-01T10:41:11.645Z</time></trkpt><trkpt lat="43.1334754" lon="12.4440576"><ele>198.0</ele><time>2026-05-01T10:41:12.648Z</time></trkpt><trkpt lat="43.1334919" lon="12.4439535"><ele>198.0</ele><time>2026-05-01T10:41:13.629Z</time></trkpt><trkpt lat="43.1334993" lon="12.4438468"><ele>198.0</ele><time>2026-05-01T10:41:14.623Z</time></trkpt><trkpt lat="43.1334976" lon="12.4437406"><ele>198.0</ele><time>2026-05-01T10:41:15.636Z</time></trkpt><trkpt lat="43.1334878" lon="12.4436393"><ele>198.0</ele><time>2026-05-01T10:41:16.619Z</time></trkpt><trkpt lat="43.1334731" lon="12.4435394"><ele>198.33333333333334</ele><time>2026-05-01T10:41:17.635Z</time></trkpt><trkpt lat="43.1334569" lon="12.4434486"><ele>198.66666666666669</ele><time>2026-05-01T10:41:18.63Z</time></trkpt><trkpt lat="43.1334434" lon="12.4433638"><ele>199.0</ele><time>2026-05-01T10:41:19.629Z</time></trkpt><trkpt lat="43.1334069" lon="12.4431874"><ele>199.33333333333334</ele><time>2026-05-01T10:41:21.661Z</time></trkpt><trkpt lat="43.1333907" lon="12.4430979"><ele>199.66666666666669</ele><time>2026-05-01T10:41:22.678Z</time></trkpt><trkpt lat="43.1333698" lon="12.4430149"><ele>200.0</ele><time>2026-05-01T10:41:23.677Z</time></trkpt><trkpt lat="43.1332892" lon="12.4429099"><ele>200.0</ele><time>2026-05-01T10:41:25.624Z</time></trkpt><trkpt lat="43.1331864" lon="12.4428961"><ele>200.0</ele><time>2026-05-01T10:41:27.62Z</time></trkpt><trkpt lat="43.1331053" lon="12.4429072"><ele>200.0</ele><time>2026-05-01T10:41:29.657Z</time></trkpt><trkpt lat="43.1330313" lon="12.4429029"><ele>200.0</ele><time>2026-05-01T10:41:31.632Z</time></trkpt><trkpt lat="43.1329707" lon="12.4428414"><ele>200.0</ele><time>2026-05-01T10:41:33.647Z</time></trkpt><trkpt lat="43.1328886" lon="12.4427287"><ele>200.0</ele><time>2026-05-01T10:41:35.634Z</time></trkpt><trkpt lat="43.1328456" lon="12.4426148"><ele>200.0</ele><time>2026-05-01T10:41:37.634Z</time></trkpt><trkpt lat="43.1327914" lon="12.4425199"><ele>200.0</ele><time>2026-05-01T10:41:39.625Z</time></trkpt><trkpt lat="43.1327417" lon="12.4424275"><ele>200.0</ele><time>2026-05-01T10:41:41.725Z</time></trkpt><trkpt lat="43.1326667" lon="12.4423471"><ele>200.0</ele><time>2026-05-01T10:41:43.626Z</time></trkpt><trkpt lat="43.1325907" lon="12.4422529"><ele>200.0</ele><time>2026-05-01T10:41:45.616Z</time></trkpt><trkpt lat="43.1325266" lon="12.4421546"><ele>200.0</ele><time>2026-05-01T10:41:47.646Z</time></trkpt><trkpt lat="43.1324746" lon="12.4420485"><ele>200.0</ele><time>2026-05-01T10:41:49.666Z</time></trkpt><trkpt lat="43.1324115" lon="12.4419431"><ele>200.0</ele><time>2026-05-01T10:41:51.642Z</time></trkpt><trkpt lat="43.1323405" lon="12.4418361"><ele>200.0</ele><time>2026-05-01T10:41:53.671Z</time></trkpt><trkpt lat="43.1322686" lon="12.4417241"><ele>200.0</ele><time>2026-05-01T10:41:55.646Z</time></trkpt><trkpt lat="43.1322057" lon="12.4416053"><ele>200.0</ele><time>2026-05-01T10:41:57.657Z</time></trkpt><trkpt lat="43.1321471" lon="12.4414944"><ele>200.0</ele><time>2026-05-01T10:41:59.646Z</time></trkpt><trkpt lat="43.1320929" lon="12.4413732"><ele>200.0</ele><time>2026-05-01T10:42:01.642Z</time></trkpt><trkpt lat="43.1320417" lon="12.4412627"><ele>200.0</ele><time>2026-05-01T10:42:03.665Z</time></trkpt><trkpt lat="43.1319935" lon="12.4411791"><ele>200.00000000000003</ele><time>2026-05-01T10:42:05.667Z</time></trkpt><trkpt lat="43.1319405" lon="12.4410806"><ele>200.0</ele><time>2026-05-01T10:42:07.666Z</time></trkpt><trkpt lat="43.1319034" lon="12.4410082"><ele>200.0</ele><time>2026-05-01T10:42:09.676Z</time></trkpt><trkpt lat="43.1318683" lon="12.4409318"><ele>200.0</ele><time>2026-05-01T10:42:11.686Z</time></trkpt><trkpt lat="43.1318139" lon="12.4408637"><ele>200.00000000000003</ele><time>2026-05-01T10:42:13.655Z</time></trkpt><trkpt lat="43.1317526" lon="12.4407862"><ele>200.0</ele><time>2026-05-01T10:42:15.689Z</time></trkpt><trkpt lat="43.1316951" lon="12.4406986"><ele>200.0</ele><time>2026-05-01T10:42:17.673Z</time></trkpt><trkpt lat="43.1316329" lon="12.4406097"><ele>200.0</ele><time>2026-05-01T10:42:19.675Z</time></trkpt><trkpt lat="43.1315744" lon="12.4405103"><ele>200.0</ele><time>2026-05-01T10:42:21.638Z</time></trkpt><trkpt lat="43.1315044" lon="12.440409"><ele>200.0</ele><time>2026-05-01T10:42:23.636Z</time></trkpt><trkpt lat="43.1314182" lon="12.4403141"><ele>200.0</ele><time>2026-05-01T10:42:25.659Z</time></trkpt><trkpt lat="43.1313364" lon="12.4402012"><ele>200.0</ele><time>2026-05-01T10:42:27.647Z</time></trkpt><trkpt lat="43.1312649" lon="12.440078"><ele>200.0</ele><time>2026-05-01T10:42:29.673Z</time></trkpt><trkpt lat="43.1311888" lon="12.4399529"><ele>200.0</ele><time>2026-05-01T10:42:31.674Z</time></trkpt><trkpt lat="43.1311184" lon="12.4398294"><ele>200.0</ele><time>2026-05-01T10:42:33.65Z</time></trkpt><trkpt lat="43.1310703" lon="12.4397591"><ele>200.0</ele><time>2026-05-01T10:42:34.851Z</time></trkpt><trkpt lat="43.1310035" lon="12.4396391"><ele>199.6</ele><time>2026-05-01T10:42:36.666Z</time></trkpt><trkpt lat="43.1309328" lon="12.4395019"><ele>199.2</ele><time>2026-05-01T10:42:38.646Z</time></trkpt><trkpt lat="43.1308703" lon="12.4393707"><ele>198.8</ele><time>2026-05-01T10:42:40.651Z</time></trkpt><trkpt lat="43.1308378" lon="12.4392923"><ele>198.4</ele><time>2026-05-01T10:42:41.689Z</time></trkpt><trkpt lat="43.1307812" lon="12.4391551"><ele>198.0</ele><time>2026-05-01T10:42:43.677Z</time></trkpt><trkpt lat="43.1307115" lon="12.4390231"><ele>198.0</ele><time>2026-05-01T10:42:45.665Z</time></trkpt><trkpt lat="43.130637" lon="12.4388973"><ele>198.0</ele><time>2026-05-01T10:42:47.676Z</time></trkpt><trkpt lat="43.130566" lon="12.4387626"><ele>198.0</ele><time>2026-05-01T10:42:49.669Z</time></trkpt><trkpt lat="43.1304928" lon="12.4386291"><ele>198.0</ele><time>2026-05-01T10:42:51.646Z</time></trkpt><trkpt lat="43.1304612" lon="12.4385526"><ele>198.0</ele><time>2026-05-01T10:42:52.669Z</time></trkpt><trkpt lat="43.130399" lon="12.4384013"><ele>198.0</ele><time>2026-05-01T10:42:54.639Z</time></trkpt><trkpt lat="43.1303586" lon="12.438329"><ele>198.0</ele><time>2026-05-01T10:42:55.655Z</time></trkpt><trkpt lat="43.1303136" lon="12.4382533"><ele>198.0</ele><time>2026-05-01T10:42:56.671Z</time></trkpt><trkpt lat="43.1302649" lon="12.4381843"><ele>198.0</ele><time>2026-05-01T10:42:57.647Z</time></trkpt><trkpt lat="43.1302158" lon="12.4381157"><ele>198.0</ele><time>2026-05-01T10:42:58.666Z</time></trkpt><trkpt lat="43.130167" lon="12.4380499"><ele>198.0</ele><time>2026-05-01T10:42:59.634Z</time></trkpt><trkpt lat="43.1301163" lon="12.4379828"><ele>198.0</ele><time>2026-05-01T10:43:00.676Z</time></trkpt><trkpt lat="43.1300598" lon="12.4379199"><ele>198.0</ele><time>2026-05-01T10:43:01.643Z</time></trkpt><trkpt lat="43.1300079" lon="12.4378533"><ele>198.0</ele><time>2026-05-01T10:43:02.633Z</time></trkpt><trkpt lat="43.129954" lon="12.4377849"><ele>198.0</ele><time>2026-05-01T10:43:03.673Z</time></trkpt><trkpt lat="43.1299004" lon="12.4377204"><ele>198.0</ele><time>2026-05-01T10:43:04.663Z</time></trkpt><trkpt lat="43.1298477" lon="12.437657"><ele>198.0</ele><time>2026-05-01T10:43:05.634Z</time></trkpt><trkpt lat="43.1297908" lon="12.4375917"><ele>198.0</ele><time>2026-05-01T10:43:06.656Z</time></trkpt><trkpt lat="43.1297315" lon="12.4375345"><ele>198.0</ele><time>2026-05-01T10:43:07.684Z</time></trkpt><trkpt lat="43.1296765" lon="12.4374738"><ele>197.66666666666666</ele><time>2026-05-01T10:43:08.676Z</time></trkpt><trkpt lat="43.1296253" lon="12.4374131"><ele>197.33333333333331</ele><time>2026-05-01T10:43:09.673Z</time></trkpt><trkpt lat="43.1295752" lon="12.4373578"><ele>197.0</ele><time>2026-05-01T10:43:10.647Z</time></trkpt><trkpt lat="43.1295273" lon="12.4373018"><ele>196.66666666666666</ele><time>2026-05-01T10:43:11.669Z</time></trkpt><trkpt lat="43.1294706" lon="12.4372625"><ele>196.33333333333331</ele><time>2026-05-01T10:43:12.784Z</time></trkpt><trkpt lat="43.1293714" lon="12.4371872"><ele>196.0</ele><time>2026-05-01T10:43:14.636Z</time></trkpt><trkpt lat="43.1292815" lon="12.4371142"><ele>196.0</ele><time>2026-05-01T10:43:16.63Z</time></trkpt><trkpt lat="43.1291943" lon="12.4370307"><ele>196.0</ele><time>2026-05-01T10:43:18.673Z</time></trkpt><trkpt lat="43.1291095" lon="12.4369337"><ele>196.0</ele><time>2026-05-01T10:43:20.654Z</time></trkpt><trkpt lat="43.1290046" lon="12.4368484"><ele>196.0</ele><time>2026-05-01T10:43:22.867Z</time></trkpt><trkpt lat="43.1289152" lon="12.4367736"><ele>196.0</ele><time>2026-05-01T10:43:24.734Z</time></trkpt><trkpt lat="43.1288285" lon="12.4367036"><ele>196.0</ele><time>2026-05-01T10:43:26.63Z</time></trkpt><trkpt lat="43.1287404" lon="12.4366264"><ele>196.0</ele><time>2026-05-01T10:43:28.62Z</time></trkpt><trkpt lat="43.1286493" lon="12.436541"><ele>196.0</ele><time>2026-05-01T10:43:30.662Z</time></trkpt><trkpt lat="43.1285624" lon="12.4364759"><ele>196.0</ele><time>2026-05-01T10:43:32.647Z</time></trkpt><trkpt lat="43.128473" lon="12.4364103"><ele>196.0</ele><time>2026-05-01T10:43:34.629Z</time></trkpt><trkpt lat="43.1283882" lon="12.4363341"><ele>196.0</ele><time>2026-05-01T10:43:36.673Z</time></trkpt><trkpt lat="43.1283037" lon="12.4362736"><ele>196.0</ele><time>2026-05-01T10:43:38.654Z</time></trkpt><trkpt lat="43.1282163" lon="12.4362243"><ele>196.0</ele><time>2026-05-01T10:43:40.63Z</time></trkpt><trkpt lat="43.1281268" lon="12.4361681"><ele>196.0</ele><time>2026-05-01T10:43:42.643Z</time></trkpt><trkpt lat="43.1280315" lon="12.4360978"><ele>196.0</ele><time>2026-05-01T10:43:44.664Z</time></trkpt><trkpt lat="43.1279434" lon="12.4360274"><ele>196.20000000000002</ele><time>2026-05-01T10:43:46.648Z</time></trkpt><trkpt lat="43.1278529" lon="12.435949"><ele>196.4</ele><time>2026-05-01T10:43:48.672Z</time></trkpt><trkpt lat="43.1277656" lon="12.4358703"><ele>196.6</ele><time>2026-05-01T10:43:50.672Z</time></trkpt><trkpt lat="43.1276745" lon="12.4357944"><ele>196.8</ele><time>2026-05-01T10:43:52.67Z</time></trkpt><trkpt lat="43.1275836" lon="12.4357119"><ele>197.0</ele><time>2026-05-01T10:43:54.639Z</time></trkpt><trkpt lat="43.1274941" lon="12.4356219"><ele>197.0</ele><time>2026-05-01T10:43:56.663Z</time></trkpt><trkpt lat="43.1274048" lon="12.4355285"><ele>197.0</ele><time>2026-05-01T10:43:58.629Z</time></trkpt><trkpt lat="43.1273516" lon="12.4354757"><ele>197.0</ele><time>2026-05-01T10:43:59.661Z</time></trkpt><trkpt lat="43.1272955" lon="12.4354272"><ele>197.0</ele><time>2026-05-01T10:44:00.654Z</time></trkpt><trkpt lat="43.1271851" lon="12.4353664"><ele>197.0</ele><time>2026-05-01T10:44:02.667Z</time></trkpt><trkpt lat="43.12707" lon="12.4353154"><ele>196.39999999999998</ele><time>2026-05-01T10:44:04.636Z</time></trkpt><trkpt lat="43.1270071" lon="12.4352893"><ele>195.79999999999998</ele><time>2026-05-01T10:44:05.635Z</time></trkpt><trkpt lat="43.1268873" lon="12.4352228"><ele>195.2</ele><time>2026-05-01T10:44:07.643Z</time></trkpt><trkpt lat="43.1267446" lon="12.4351123"><ele>194.6</ele><time>2026-05-01T10:44:09.68Z</time></trkpt><trkpt lat="43.1266677" lon="12.4350648"><ele>194.0</ele><time>2026-05-01T10:44:10.63Z</time></trkpt><trkpt lat="43.1265749" lon="12.4351407"><ele>194.66666666666669</ele><time>2026-05-01T10:44:13.634Z</time></trkpt><trkpt lat="43.1265066" lon="12.435191"><ele>195.33333333333334</ele><time>2026-05-01T10:44:15.645Z</time></trkpt><trkpt lat="43.1264544" lon="12.4352855"><ele>196.0</ele><time>2026-05-01T10:44:17.657Z</time></trkpt><trkpt lat="43.126397" lon="12.4353504"><ele>196.66666666666669</ele><time>2026-05-01T10:44:19.653Z</time></trkpt><trkpt lat="43.1263127" lon="12.4353221"><ele>197.33333333333334</ele><time>2026-05-01T10:44:21.637Z</time></trkpt><trkpt lat="43.1262218" lon="12.435271"><ele>198.0</ele><time>2026-05-01T10:44:23.647Z</time></trkpt><trkpt lat="43.1261249" lon="12.4352862"><ele>198.0</ele><time>2026-05-01T10:44:25.643Z</time></trkpt><trkpt lat="43.1260242" lon="12.4352861"><ele>198.0</ele><time>2026-05-01T10:44:27.638Z</time></trkpt><trkpt lat="43.125914" lon="12.4352986"><ele>198.0</ele><time>2026-05-01T10:44:29.638Z</time></trkpt><trkpt lat="43.1258004" lon="12.4353157"><ele>198.0</ele><time>2026-05-01T10:44:31.652Z</time></trkpt><trkpt lat="43.1256917" lon="12.4353309"><ele>198.0</ele><time>2026-05-01T10:44:33.646Z</time></trkpt><trkpt lat="43.1255513" lon="12.4354024"><ele>198.0</ele><time>2026-05-01T10:44:36.626Z</time></trkpt><trkpt lat="43.1255026" lon="12.4354687"><ele>198.0</ele><time>2026-05-01T10:44:37.854Z</time></trkpt><trkpt lat="43.125436" lon="12.4355643"><ele>198.0</ele><time>2026-05-01T10:44:39.686Z</time></trkpt><trkpt lat="43.1253506" lon="12.4356578"><ele>198.0</ele><time>2026-05-01T10:44:41.672Z</time></trkpt><trkpt lat="43.1252406" lon="12.4357166"><ele>198.0</ele><time>2026-05-01T10:44:43.756Z</time></trkpt><trkpt lat="43.1251308" lon="12.435733"><ele>197.75</ele><time>2026-05-01T10:44:45.667Z</time></trkpt><trkpt lat="43.1249602" lon="12.4357545"><ele>197.5</ele><time>2026-05-01T10:44:48.682Z</time></trkpt><trkpt lat="43.1248435" lon="12.435763"><ele>197.25</ele><time>2026-05-01T10:44:50.711Z</time></trkpt><trkpt lat="43.1247294" lon="12.4357717"><ele>197.0</ele><time>2026-05-01T10:44:52.668Z</time></trkpt><trkpt lat="43.1246631" lon="12.4357756"><ele>196.6</ele><time>2026-05-01T10:44:53.778Z</time></trkpt><trkpt lat="43.1245547" lon="12.4357871"><ele>196.2</ele><time>2026-05-01T10:44:55.701Z</time></trkpt><trkpt lat="43.1244418" lon="12.4358004"><ele>195.8</ele><time>2026-05-01T10:44:57.685Z</time></trkpt><trkpt lat="43.1243311" lon="12.4358162"><ele>195.4</ele><time>2026-05-01T10:44:59.699Z</time></trkpt><trkpt lat="43.1242256" lon="12.435829"><ele>195.0</ele><time>2026-05-01T10:45:01.669Z</time></trkpt><trkpt lat="43.1241307" lon="12.4357868"><ele>195.0</ele><time>2026-05-01T10:45:04.666Z</time></trkpt><trkpt lat="43.1241345" lon="12.4356661"><ele>195.0</ele><time>2026-05-01T10:45:06.711Z</time></trkpt><trkpt lat="43.124153" lon="12.4355207"><ele>195.0</ele><time>2026-05-01T10:45:08.705Z</time></trkpt><trkpt lat="43.1241782" lon="12.435369"><ele>195.0</ele><time>2026-05-01T10:45:10.677Z</time></trkpt><trkpt lat="43.1242052" lon="12.4352176"><ele>195.0</ele><time>2026-05-01T10:45:12.672Z</time></trkpt><trkpt lat="43.1242383" lon="12.4350782"><ele>194.6</ele><time>2026-05-01T10:45:14.789Z</time></trkpt><trkpt lat="43.124265" lon="12.4349483"><ele>194.2</ele><time>2026-05-01T10:45:16.784Z</time></trkpt><trkpt lat="43.12423" lon="12.4348309"><ele>193.8</ele><time>2026-05-01T10:45:18.7Z</time></trkpt><trkpt lat="43.1241305" lon="12.4347538"><ele>193.4</ele><time>2026-05-01T10:45:20.705Z</time></trkpt><trkpt lat="43.1240642" lon="12.434735"><ele>193.0</ele><time>2026-05-01T10:45:21.693Z</time></trkpt><trkpt lat="43.1239417" lon="12.4347598"><ele>193.0</ele><time>2026-05-01T10:45:23.681Z</time></trkpt><trkpt lat="43.1238223" lon="12.4348013"><ele>193.0</ele><time>2026-05-01T10:45:25.683Z</time></trkpt><trkpt lat="43.1237129" lon="12.4348552"><ele>193.0</ele><time>2026-05-01T10:45:27.672Z</time></trkpt><trkpt lat="43.1236058" lon="12.4349086"><ele>193.0</ele><time>2026-05-01T10:45:29.667Z</time></trkpt><trkpt lat="43.1234972" lon="12.4349539"><ele>193.0</ele><time>2026-05-01T10:45:31.692Z</time></trkpt><trkpt lat="43.1233825" lon="12.4349883"><ele>193.0</ele><time>2026-05-01T10:45:33.702Z</time></trkpt><trkpt lat="43.1232678" lon="12.4350124"><ele>193.0</ele><time>2026-05-01T10:45:35.779Z</time></trkpt><trkpt lat="43.1231646" lon="12.4350493"><ele>193.0</ele><time>2026-05-01T10:45:37.71Z</time></trkpt><trkpt lat="43.1230525" lon="12.4351011"><ele>193.0</ele><time>2026-05-01T10:45:39.675Z</time></trkpt><trkpt lat="43.1229464" lon="12.4351521"><ele>193.0</ele><time>2026-05-01T10:45:41.686Z</time></trkpt><trkpt lat="43.1228388" lon="12.435218"><ele>193.0</ele><time>2026-05-01T10:45:43.685Z</time></trkpt><trkpt lat="43.1226763" lon="12.4353133"><ele>193.0</ele><time>2026-05-01T10:45:46.677Z</time></trkpt><trkpt lat="43.1225599" lon="12.435363"><ele>193.0</ele><time>2026-05-01T10:45:48.685Z</time></trkpt><trkpt lat="43.1224918" lon="12.4353837"><ele>193.0</ele><time>2026-05-01T10:45:49.694Z</time></trkpt><trkpt lat="43.1223719" lon="12.4354076"><ele>193.0</ele><time>2026-05-01T10:45:51.686Z</time></trkpt><trkpt lat="43.1222541" lon="12.4354323"><ele>193.0</ele><time>2026-05-01T10:45:53.702Z</time></trkpt><trkpt lat="43.1221285" lon="12.4354566"><ele>193.0</ele><time>2026-05-01T10:45:55.649Z</time></trkpt><trkpt lat="43.1220069" lon="12.4354949"><ele>193.0</ele><time>2026-05-01T10:45:57.656Z</time></trkpt><trkpt lat="43.1218774" lon="12.4355477"><ele>193.0</ele><time>2026-05-01T10:45:59.697Z</time></trkpt><trkpt lat="43.121758" lon="12.435585"><ele>193.0</ele><time>2026-05-01T10:46:01.684Z</time></trkpt><trkpt lat="43.1216489" lon="12.4356325"><ele>193.0</ele><time>2026-05-01T10:46:03.662Z</time></trkpt><trkpt lat="43.1215355" lon="12.4356745"><ele>192.75</ele><time>2026-05-01T10:46:05.674Z</time></trkpt><trkpt lat="43.1214227" lon="12.4356871"><ele>192.5</ele><time>2026-05-01T10:46:07.679Z</time></trkpt><trkpt lat="43.1212473" lon="12.4356679"><ele>192.25</ele><time>2026-05-01T10:46:10.674Z</time></trkpt><trkpt lat="43.1211306" lon="12.4356305"><ele>192.0</ele><time>2026-05-01T10:46:12.677Z</time></trkpt><trkpt lat="43.1210118" lon="12.4355938"><ele>192.0</ele><time>2026-05-01T10:46:14.724Z</time></trkpt><trkpt lat="43.1209493" lon="12.4355758"><ele>192.0</ele><time>2026-05-01T10:46:15.786Z</time></trkpt><trkpt lat="43.1208322" lon="12.4355313"><ele>192.0</ele><time>2026-05-01T10:46:17.683Z</time></trkpt><trkpt lat="43.1207683" lon="12.4355129"><ele>192.0</ele><time>2026-05-01T10:46:18.687Z</time></trkpt><trkpt lat="43.1206945" lon="12.4354943"><ele>192.0</ele><time>2026-05-01T10:46:19.993Z</time></trkpt><trkpt lat="43.1205959" lon="12.4354486"><ele>192.0</ele><time>2026-05-01T10:46:21.64Z</time></trkpt><trkpt lat="43.1204762" lon="12.4353846"><ele>192.0</ele><time>2026-05-01T10:46:23.682Z</time></trkpt><trkpt lat="43.1204143" lon="12.4353522"><ele>192.0</ele><time>2026-05-01T10:46:24.689Z</time></trkpt><trkpt lat="43.1203075" lon="12.4353182"><ele>192.0</ele><time>2026-05-01T10:46:26.697Z</time></trkpt><trkpt lat="43.120245" lon="12.4353287"><ele>192.0</ele><time>2026-05-01T10:46:27.691Z</time></trkpt><trkpt lat="43.1201832" lon="12.4353516"><ele>192.0</ele><time>2026-05-01T10:46:28.704Z</time></trkpt><trkpt lat="43.1200784" lon="12.4354175"><ele>192.0</ele><time>2026-05-01T10:46:30.682Z</time></trkpt><trkpt lat="43.119962" lon="12.4354793"><ele>192.25</ele><time>2026-05-01T10:46:32.778Z</time></trkpt><trkpt lat="43.1198499" lon="12.4355162"><ele>192.5</ele><time>2026-05-01T10:46:34.673Z</time></trkpt><trkpt lat="43.1197343" lon="12.4355425"><ele>192.75</ele><time>2026-05-01T10:46:36.689Z</time></trkpt><trkpt lat="43.1196233" lon="12.4355694"><ele>193.0</ele><time>2026-05-01T10:46:38.761Z</time></trkpt><trkpt lat="43.1195178" lon="12.4355558"><ele>193.0</ele><time>2026-05-01T10:46:40.703Z</time></trkpt><trkpt lat="43.1194087" lon="12.435499"><ele>193.0</ele><time>2026-05-01T10:46:42.699Z</time></trkpt><trkpt lat="43.1193085" lon="12.4355064"><ele>193.0</ele><time>2026-05-01T10:46:44.656Z</time></trkpt><trkpt lat="43.1191906" lon="12.4355385"><ele>193.0</ele><time>2026-05-01T10:46:46.689Z</time></trkpt><trkpt lat="43.1190821" lon="12.4355631"><ele>193.0</ele><time>2026-05-01T10:46:48.685Z</time></trkpt><trkpt lat="43.1189682" lon="12.4356009"><ele>192.75</ele><time>2026-05-01T10:46:50.675Z</time></trkpt><trkpt lat="43.1188568" lon="12.4356488"><ele>192.5</ele><time>2026-05-01T10:46:52.653Z</time></trkpt><trkpt lat="43.118747" lon="12.4356987"><ele>192.25</ele><time>2026-05-01T10:46:54.67Z</time></trkpt><trkpt lat="43.1186364" lon="12.4357428"><ele>192.0</ele><time>2026-05-01T10:46:56.683Z</time></trkpt><trkpt lat="43.1185215" lon="12.4357958"><ele>192.0</ele><time>2026-05-01T10:46:58.686Z</time></trkpt><trkpt lat="43.1184586" lon="12.4358203"><ele>192.0</ele><time>2026-05-01T10:46:59.808Z</time></trkpt><trkpt lat="43.1183554" lon="12.435892"><ele>192.0</ele><time>2026-05-01T10:47:01.688Z</time></trkpt><trkpt lat="43.1182876" lon="12.4359088"><ele>192.0</ele><time>2026-05-01T10:47:02.791Z</time></trkpt><trkpt lat="43.1181686" lon="12.4358901"><ele>192.0</ele><time>2026-05-01T10:47:04.691Z</time></trkpt><trkpt lat="43.1181085" lon="12.4358593"><ele>192.0</ele><time>2026-05-01T10:47:05.673Z</time></trkpt><trkpt lat="43.1179897" lon="12.435845"><ele>192.0</ele><time>2026-05-01T10:47:07.657Z</time></trkpt><trkpt lat="43.1179283" lon="12.4358894"><ele>192.0</ele><time>2026-05-01T10:47:08.695Z</time></trkpt><trkpt lat="43.1178282" lon="12.4359766"><ele>192.0</ele><time>2026-05-01T10:47:10.67Z</time></trkpt><trkpt lat="43.1177331" lon="12.4360773"><ele>192.0</ele><time>2026-05-01T10:47:12.69Z</time></trkpt><trkpt lat="43.1176828" lon="12.4361329"><ele>192.0</ele><time>2026-05-01T10:47:13.675Z</time></trkpt><trkpt lat="43.1176018" lon="12.4362498"><ele>191.75</ele><time>2026-05-01T10:47:15.679Z</time></trkpt><trkpt lat="43.1175201" lon="12.436363"><ele>191.5</ele><time>2026-05-01T10:47:17.667Z</time></trkpt><trkpt lat="43.1174291" lon="12.4364639"><ele>191.25</ele><time>2026-05-01T10:47:19.657Z</time></trkpt><trkpt lat="43.1173349" lon="12.4365622"><ele>191.0</ele><time>2026-05-01T10:47:21.654Z</time></trkpt><trkpt lat="43.1172443" lon="12.436671"><ele>191.20000000000002</ele><time>2026-05-01T10:47:23.687Z</time></trkpt><trkpt lat="43.1171549" lon="12.4367854"><ele>191.4</ele><time>2026-05-01T10:47:25.733Z</time></trkpt><trkpt lat="43.1170665" lon="12.4368928"><ele>191.6</ele><time>2026-05-01T10:47:27.656Z</time></trkpt><trkpt lat="43.1170212" lon="12.4369577"><ele>191.8</ele><time>2026-05-01T10:47:28.683Z</time></trkpt><trkpt lat="43.1169443" lon="12.4370829"><ele>192.0</ele><time>2026-05-01T10:47:30.69Z</time></trkpt><trkpt lat="43.1169065" lon="12.4371537"><ele>192.0</ele><time>2026-05-01T10:47:31.679Z</time></trkpt><trkpt lat="43.116845" lon="12.4373012"><ele>192.0</ele><time>2026-05-01T10:47:33.694Z</time></trkpt><trkpt lat="43.1167861" lon="12.4374508"><ele>192.0</ele><time>2026-05-01T10:47:35.664Z</time></trkpt><trkpt lat="43.1167536" lon="12.4375266"><ele>192.0</ele><time>2026-05-01T10:47:36.697Z</time></trkpt><trkpt lat="43.1167032" lon="12.437683"><ele>192.0</ele><time>2026-05-01T10:47:38.681Z</time></trkpt><trkpt lat="43.1166771" lon="12.4377667"><ele>192.0</ele><time>2026-05-01T10:47:39.701Z</time></trkpt><trkpt lat="43.1166366" lon="12.4379221"><ele>192.0</ele><time>2026-05-01T10:47:41.683Z</time></trkpt><trkpt lat="43.1166335" lon="12.4381095"><ele>192.0</ele><time>2026-05-01T10:47:43.692Z</time></trkpt><trkpt lat="43.1166521" lon="12.4382559"><ele>192.0</ele><time>2026-05-01T10:47:45.704Z</time></trkpt><trkpt lat="43.1166403" lon="12.4384727"><ele>191.8</ele><time>2026-05-01T10:47:48.687Z</time></trkpt><trkpt lat="43.1165982" lon="12.4385949"><ele>191.6</ele><time>2026-05-01T10:47:50.664Z</time></trkpt><trkpt lat="43.1165619" lon="12.4387184"><ele>191.4</ele><time>2026-05-01T10:47:52.668Z</time></trkpt><trkpt lat="43.1165168" lon="12.4388554"><ele>191.20000000000002</ele><time>2026-05-01T10:47:54.683Z</time></trkpt><trkpt lat="43.116471" lon="12.4389882"><ele>191.0</ele><time>2026-05-01T10:47:56.667Z</time></trkpt><trkpt lat="43.11642" lon="12.4391204"><ele>190.8</ele><time>2026-05-01T10:47:58.677Z</time></trkpt><trkpt lat="43.1163732" lon="12.4392575"><ele>190.60000000000002</ele><time>2026-05-01T10:48:00.676Z</time></trkpt><trkpt lat="43.1163442" lon="12.4394073"><ele>190.4</ele><time>2026-05-01T10:48:02.808Z</time></trkpt><trkpt lat="43.1163281" lon="12.4395378"><ele>190.2</ele><time>2026-05-01T10:48:04.673Z</time></trkpt><trkpt lat="43.116307" lon="12.4396846"><ele>190.0</ele><time>2026-05-01T10:48:06.697Z</time></trkpt><trkpt lat="43.1162736" lon="12.439825"><ele>190.0</ele><time>2026-05-01T10:48:08.685Z</time></trkpt><trkpt lat="43.116254" lon="12.4399621"><ele>190.0</ele><time>2026-05-01T10:48:10.687Z</time></trkpt><trkpt lat="43.1162401" lon="12.4400985"><ele>190.0</ele><time>2026-05-01T10:48:12.693Z</time></trkpt><trkpt lat="43.1162418" lon="12.4402326"><ele>190.0</ele><time>2026-05-01T10:48:14.671Z</time></trkpt><trkpt lat="43.1162553" lon="12.4403585"><ele>190.0</ele><time>2026-05-01T10:48:16.704Z</time></trkpt><trkpt lat="43.1162492" lon="12.4404583"><ele>190.16666666666669</ele><time>2026-05-01T10:48:18.694Z</time></trkpt><trkpt lat="43.1162208" lon="12.4405362"><ele>190.33333333333334</ele><time>2026-05-01T10:48:20.681Z</time></trkpt><trkpt lat="43.116187" lon="12.4406166"><ele>190.5</ele><time>2026-05-01T10:48:22.687Z</time></trkpt><trkpt lat="43.1161285" lon="12.4407289"><ele>190.66666666666666</ele><time>2026-05-01T10:48:25.693Z</time></trkpt><trkpt lat="43.1160787" lon="12.4408048"><ele>190.83333333333331</ele><time>2026-05-01T10:48:27.725Z</time></trkpt><trkpt lat="43.1160348" lon="12.4409067"><ele>191.0</ele><time>2026-05-01T10:48:29.863Z</time></trkpt><trkpt lat="43.115966" lon="12.4410601"><ele>191.0</ele><time>2026-05-01T10:48:32.673Z</time></trkpt><trkpt lat="43.1159275" lon="12.4411751"><ele>191.0</ele><time>2026-05-01T10:48:34.688Z</time></trkpt><trkpt lat="43.1158867" lon="12.4412829"><ele>191.0</ele><time>2026-05-01T10:48:36.686Z</time></trkpt><trkpt lat="43.1158424" lon="12.4413788"><ele>191.0</ele><time>2026-05-01T10:48:38.711Z</time></trkpt><trkpt lat="43.1157966" lon="12.441486"><ele>191.0</ele><time>2026-05-01T10:48:40.716Z</time></trkpt><trkpt lat="43.1157511" lon="12.4415858"><ele>191.0</ele><time>2026-05-01T10:48:42.679Z</time></trkpt><trkpt lat="43.1157148" lon="12.4417"><ele>191.0</ele><time>2026-05-01T10:48:44.69Z</time></trkpt><trkpt lat="43.1156766" lon="12.441821"><ele>191.0</ele><time>2026-05-01T10:48:46.691Z</time></trkpt><trkpt lat="43.1156546" lon="12.4419587"><ele>191.0</ele><time>2026-05-01T10:48:48.698Z</time></trkpt><trkpt lat="43.1156352" lon="12.4420992"><ele>191.0</ele><time>2026-05-01T10:48:50.705Z</time></trkpt><trkpt lat="43.1156005" lon="12.4422195"><ele>191.0</ele><time>2026-05-01T10:48:52.699Z</time></trkpt><trkpt lat="43.1155422" lon="12.4423201"><ele>190.60000000000002</ele><time>2026-05-01T10:48:54.697Z</time></trkpt><trkpt lat="43.1154525" lon="12.4424548"><ele>190.2</ele><time>2026-05-01T10:48:57.69Z</time></trkpt><trkpt lat="43.1153636" lon="12.4425741"><ele>189.8</ele><time>2026-05-01T10:49:00.686Z</time></trkpt><trkpt lat="43.1153057" lon="12.4426551"><ele>189.39999999999998</ele><time>2026-05-01T10:49:02.708Z</time></trkpt><trkpt lat="43.1152544" lon="12.4427394"><ele>189.0</ele><time>2026-05-01T10:49:04.72Z</time></trkpt><trkpt lat="43.1152022" lon="12.4428254"><ele>189.0</ele><time>2026-05-01T10:49:06.695Z</time></trkpt><trkpt lat="43.1151513" lon="12.4429054"><ele>189.0</ele><time>2026-05-01T10:49:08.7Z</time></trkpt><trkpt lat="43.115088" lon="12.4429953"><ele>189.0</ele><time>2026-05-01T10:49:10.793Z</time></trkpt><trkpt lat="43.1150313" lon="12.4430782"><ele>189.0</ele><time>2026-05-01T10:49:12.695Z</time></trkpt><trkpt lat="43.1149948" lon="12.443177"><ele>189.0</ele><time>2026-05-01T10:49:14.714Z</time></trkpt><trkpt lat="43.1149445" lon="12.4432823"><ele>189.0</ele><time>2026-05-01T10:49:16.689Z</time></trkpt><trkpt lat="43.1149037" lon="12.4433786"><ele>189.39999999999998</ele><time>2026-05-01T10:49:18.661Z</time></trkpt><trkpt lat="43.1148528" lon="12.4434971"><ele>189.8</ele><time>2026-05-01T10:49:20.708Z</time></trkpt><trkpt lat="43.1147939" lon="12.4436043"><ele>190.2</ele><time>2026-05-01T10:49:22.689Z</time></trkpt><trkpt lat="43.1147342" lon="12.4437108"><ele>190.60000000000002</ele><time>2026-05-01T10:49:24.678Z</time></trkpt><trkpt lat="43.114666" lon="12.4437997"><ele>191.0</ele><time>2026-05-01T10:49:26.706Z</time></trkpt><trkpt lat="43.1146004" lon="12.4438945"><ele>191.0</ele><time>2026-05-01T10:49:28.684Z</time></trkpt><trkpt lat="43.1145352" lon="12.4439915"><ele>191.0</ele><time>2026-05-01T10:49:30.674Z</time></trkpt><trkpt lat="43.1144745" lon="12.4440926"><ele>191.0</ele><time>2026-05-01T10:49:32.708Z</time></trkpt><trkpt lat="43.1144085" lon="12.4441844"><ele>191.0</ele><time>2026-05-01T10:49:34.7Z</time></trkpt><trkpt lat="43.114349" lon="12.4442779"><ele>191.0</ele><time>2026-05-01T10:49:36.785Z</time></trkpt><trkpt lat="43.1142946" lon="12.4443635"><ele>191.0</ele><time>2026-05-01T10:49:38.686Z</time></trkpt><trkpt lat="43.1142248" lon="12.4444364"><ele>191.0</ele><time>2026-05-01T10:49:40.69Z</time></trkpt><trkpt lat="43.114147" lon="12.4445072"><ele>191.0</ele><time>2026-05-01T10:49:42.706Z</time></trkpt><trkpt lat="43.1140672" lon="12.4445845"><ele>191.0</ele><time>2026-05-01T10:49:44.673Z</time></trkpt><trkpt lat="43.1139909" lon="12.4446565"><ele>191.0</ele><time>2026-05-01T10:49:46.678Z</time></trkpt><trkpt lat="43.1139018" lon="12.4447374"><ele>190.8</ele><time>2026-05-01T10:49:48.783Z</time></trkpt><trkpt lat="43.1138135" lon="12.4447971"><ele>190.60000000000002</ele><time>2026-05-01T10:49:50.692Z</time></trkpt><trkpt lat="43.1137313" lon="12.444854"><ele>190.4</ele><time>2026-05-01T10:49:52.475Z</time></trkpt><trkpt lat="43.1136336" lon="12.4449083"><ele>190.2</ele><time>2026-05-01T10:49:54.33Z</time></trkpt><trkpt lat="43.1135409" lon="12.4449257"><ele>190.0</ele><time>2026-05-01T10:49:56.33Z</time></trkpt><trkpt lat="43.1134247" lon="12.4449282"><ele>190.0</ele><time>2026-05-01T10:49:58.702Z</time></trkpt><trkpt lat="43.1133145" lon="12.4449301"><ele>190.0</ele><time>2026-05-01T10:50:00.693Z</time></trkpt><trkpt lat="43.1132087" lon="12.4449305"><ele>190.0</ele><time>2026-05-01T10:50:02.69Z</time></trkpt><trkpt lat="43.1130966" lon="12.4449254"><ele>190.0</ele><time>2026-05-01T10:50:04.675Z</time></trkpt><trkpt lat="43.1129875" lon="12.44491"><ele>190.0</ele><time>2026-05-01T10:50:06.706Z</time></trkpt><trkpt lat="43.1128846" lon="12.4448848"><ele>190.4</ele><time>2026-05-01T10:50:08.694Z</time></trkpt><trkpt lat="43.1127706" lon="12.4448417"><ele>190.8</ele><time>2026-05-01T10:50:10.809Z</time></trkpt><trkpt lat="43.1126689" lon="12.4447877"><ele>191.2</ele><time>2026-05-01T10:50:12.667Z</time></trkpt><trkpt lat="43.1125644" lon="12.4447426"><ele>191.6</ele><time>2026-05-01T10:50:14.681Z</time></trkpt><trkpt lat="43.1124619" lon="12.4446873"><ele>192.0</ele><time>2026-05-01T10:50:16.692Z</time></trkpt><trkpt lat="43.1123645" lon="12.4446219"><ele>192.0</ele><time>2026-05-01T10:50:18.676Z</time></trkpt><trkpt lat="43.1122698" lon="12.4445403"><ele>192.0</ele><time>2026-05-01T10:50:20.708Z</time></trkpt><trkpt lat="43.1121993" lon="12.4444539"><ele>192.0</ele><time>2026-05-01T10:50:22.66Z</time></trkpt><trkpt lat="43.1121375" lon="12.4444075"><ele>192.0</ele><time>2026-05-01T10:50:25.697Z</time></trkpt><trkpt lat="43.1120942" lon="12.4444971"><ele>192.0</ele><time>2026-05-01T10:50:27.683Z</time></trkpt><trkpt lat="43.1120439" lon="12.4445659"><ele>192.0</ele><time>2026-05-01T10:50:29.7Z</time></trkpt><trkpt lat="43.1119749" lon="12.4446103"><ele>192.2</ele><time>2026-05-01T10:50:31.778Z</time></trkpt><trkpt lat="43.1119079" lon="12.4446794"><ele>192.39999999999998</ele><time>2026-05-01T10:50:33.694Z</time></trkpt><trkpt lat="43.1118354" lon="12.4447539"><ele>192.60000000000002</ele><time>2026-05-01T10:50:35.666Z</time></trkpt><trkpt lat="43.1117642" lon="12.4448316"><ele>192.8</ele><time>2026-05-01T10:50:37.686Z</time></trkpt><trkpt lat="43.1116876" lon="12.4448991"><ele>193.0</ele><time>2026-05-01T10:50:39.706Z</time></trkpt><trkpt lat="43.1116031" lon="12.4449659"><ele>193.0</ele><time>2026-05-01T10:50:41.652Z</time></trkpt><trkpt lat="43.1115133" lon="12.4450197"><ele>193.0</ele><time>2026-05-01T10:50:43.707Z</time></trkpt><trkpt lat="43.1114231" lon="12.4450745"><ele>193.0</ele><time>2026-05-01T10:50:45.678Z</time></trkpt><trkpt lat="43.1113313" lon="12.4451391"><ele>193.0</ele><time>2026-05-01T10:50:47.795Z</time></trkpt><trkpt lat="43.1112664" lon="12.4451637"><ele>193.0</ele><time>2026-05-01T10:50:49.691Z</time></trkpt><trkpt lat="43.1111422" lon="12.4452668"><ele>192.99999999999997</ele><time>2026-05-01T10:50:52.704Z</time></trkpt><trkpt lat="43.1110604" lon="12.4453012"><ele>193.0</ele><time>2026-05-01T10:50:54.703Z</time></trkpt><trkpt lat="43.1109967" lon="12.4453185"><ele>193.0</ele><time>2026-05-01T10:50:56.694Z</time></trkpt><trkpt lat="43.1110837" lon="12.445296"><ele>193.0</ele><time>2026-05-01T10:51:02.713Z</time></trkpt><trkpt lat="43.1111506" lon="12.4452317"><ele>192.99999999999997</ele><time>2026-05-01T10:51:05.715Z</time></trkpt><trkpt lat="43.1111602" lon="12.4451294"><ele>193.0</ele><time>2026-05-01T10:51:08.806Z</time></trkpt><trkpt lat="43.1110871" lon="12.4450693"><ele>193.00000000000003</ele><time>2026-05-01T10:51:12.699Z</time></trkpt><trkpt lat="43.1111343" lon="12.4450112"><ele>193.0</ele><time>2026-05-01T10:51:17.681Z</time></trkpt><trkpt lat="43.1111603" lon="12.4451253"><ele>193.0</ele><time>2026-05-01T10:51:20.684Z</time></trkpt><trkpt lat="43.1111528" lon="12.4452136"><ele>193.0</ele><time>2026-05-01T10:51:22.722Z</time></trkpt><trkpt lat="43.1110855" lon="12.4452928"><ele>193.0</ele><time>2026-05-01T10:51:25.7Z</time></trkpt><trkpt lat="43.1110291" lon="12.4453357"><ele>193.00000000000003</ele><time>2026-05-01T10:51:27.674Z</time></trkpt><trkpt lat="43.1109584" lon="12.4453836"><ele>193.0</ele><time>2026-05-01T10:51:29.699Z</time></trkpt><trkpt lat="43.110882" lon="12.4454266"><ele>193.0</ele><time>2026-05-01T10:51:31.698Z</time></trkpt><trkpt lat="43.1108076" lon="12.4454496"><ele>193.0</ele><time>2026-05-01T10:51:33.758Z</time></trkpt><trkpt lat="43.1107217" lon="12.4454885"><ele>193.0</ele><time>2026-05-01T10:51:35.726Z</time></trkpt><trkpt lat="43.1106362" lon="12.445545"><ele>193.0</ele><time>2026-05-01T10:51:37.704Z</time></trkpt><trkpt lat="43.1105501" lon="12.445602"><ele>193.0</ele><time>2026-05-01T10:51:39.706Z</time></trkpt><trkpt lat="43.110465" lon="12.4456624"><ele>193.0</ele><time>2026-05-01T10:51:41.694Z</time></trkpt><trkpt lat="43.1103702" lon="12.4457239"><ele>193.0</ele><time>2026-05-01T10:51:43.715Z</time></trkpt><trkpt lat="43.1102913" lon="12.4457949"><ele>193.0</ele><time>2026-05-01T10:51:45.68Z</time></trkpt><trkpt lat="43.1101953" lon="12.4458657"><ele>193.0</ele><time>2026-05-01T10:51:47.694Z</time></trkpt><trkpt lat="43.1101074" lon="12.4459429"><ele>193.0</ele><time>2026-05-01T10:51:49.682Z</time></trkpt><trkpt lat="43.1100242" lon="12.4460385"><ele>192.99999999999997</ele><time>2026-05-01T10:51:51.666Z</time></trkpt><trkpt lat="43.1099466" lon="12.4460933"><ele>193.0</ele><time>2026-05-01T10:51:53.702Z</time></trkpt><trkpt lat="43.1098784" lon="12.446179"><ele>193.0</ele><time>2026-05-01T10:51:55.677Z</time></trkpt><trkpt lat="43.1098257" lon="12.4462588"><ele>193.0</ele><time>2026-05-01T10:51:57.662Z</time></trkpt><trkpt lat="43.1097587" lon="12.4462601"><ele>192.99999999999997</ele><time>2026-05-01T10:52:00.689Z</time></trkpt><trkpt lat="43.1097107" lon="12.4461927"><ele>193.0</ele><time>2026-05-01T10:52:03.667Z</time></trkpt><trkpt lat="43.10967" lon="12.4461149"><ele>192.99999999999997</ele><time>2026-05-01T10:52:06.697Z</time></trkpt><trkpt lat="43.1096187" lon="12.4460145"><ele>193.0</ele><time>2026-05-01T10:52:09.713Z</time></trkpt><trkpt lat="43.1095556" lon="12.4459441"><ele>193.0</ele><time>2026-05-01T10:52:12.692Z</time></trkpt><trkpt lat="43.1094896" lon="12.4458743"><ele>193.0</ele><time>2026-05-01T10:52:15.698Z</time></trkpt><trkpt lat="43.1094198" lon="12.4458065"><ele>192.99999999999997</ele><time>2026-05-01T10:52:18.707Z</time></trkpt><trkpt lat="43.109344" lon="12.4457473"><ele>193.0</ele><time>2026-05-01T10:52:21.702Z</time></trkpt><trkpt lat="43.1092679" lon="12.4456931"><ele>192.99999999999997</ele><time>2026-05-01T10:52:24.707Z</time></trkpt><trkpt lat="43.1091925" lon="12.4456212"><ele>193.0</ele><time>2026-05-01T10:52:28.812Z</time></trkpt><trkpt lat="43.1091223" lon="12.4455722"><ele>193.0</ele><time>2026-05-01T10:52:32.705Z</time></trkpt><trkpt lat="43.1090652" lon="12.4455222"><ele>193.0</ele><time>2026-05-01T10:52:35.733Z</time></trkpt><trkpt lat="43.1090127" lon="12.4454746"><ele>192.99999999999997</ele><time>2026-05-01T10:52:38.698Z</time></trkpt><trkpt lat="43.1089568" lon="12.4454269"><ele>193.0</ele><time>2026-05-01T10:52:41.712Z</time></trkpt><trkpt lat="43.1088847" lon="12.4453604"><ele>192.85714285714286</ele><time>2026-05-01T10:52:45.802Z</time></trkpt><trkpt lat="43.1088286" lon="12.4453181"><ele>192.71428571428572</ele><time>2026-05-01T10:52:48.662Z</time></trkpt><trkpt lat="43.1087717" lon="12.4452671"><ele>192.57142857142856</ele><time>2026-05-01T10:52:51.693Z</time></trkpt><trkpt lat="43.1087167" lon="12.4452221"><ele>192.42857142857144</ele><time>2026-05-01T10:52:54.707Z</time></trkpt><trkpt lat="43.1086608" lon="12.4451777"><ele>192.28571428571428</ele><time>2026-05-01T10:52:57.735Z</time></trkpt><trkpt lat="43.1086064" lon="12.4451268"><ele>192.14285714285714</ele><time>2026-05-01T10:53:00.692Z</time></trkpt><trkpt lat="43.1085476" lon="12.4450858"><ele>192.0</ele><time>2026-05-01T10:53:03.702Z</time></trkpt><trkpt lat="43.10849" lon="12.4450311"><ele>191.99999999999997</ele><time>2026-05-01T10:53:06.709Z</time></trkpt><trkpt lat="43.1084315" lon="12.4449805"><ele>192.0</ele><time>2026-05-01T10:53:09.703Z</time></trkpt><trkpt lat="43.1083752" lon="12.444936"><ele>192.0</ele><time>2026-05-01T10:53:12.712Z</time></trkpt><trkpt lat="43.1083215" lon="12.4448867"><ele>192.0</ele><time>2026-05-01T10:53:15.796Z</time></trkpt><trkpt lat="43.1082567" lon="12.4448298"><ele>192.0</ele><time>2026-05-01T10:53:19.708Z</time></trkpt><trkpt lat="43.1081887" lon="12.4447894"><ele>191.99999999999997</ele><time>2026-05-01T10:53:23.726Z</time></trkpt><trkpt lat="43.1081311" lon="12.4447494"><ele>192.0</ele><time>2026-05-01T10:53:26.714Z</time></trkpt><trkpt lat="43.1080802" lon="12.4446984"><ele>192.85714285714283</ele><time>2026-05-01T10:53:29.713Z</time></trkpt><trkpt lat="43.1080161" lon="12.4446476"><ele>193.71428571428572</ele><time>2026-05-01T10:53:33.718Z</time></trkpt><trkpt lat="43.1079654" lon="12.4445903"><ele>194.57142857142856</ele><time>2026-05-01T10:53:37.681Z</time></trkpt><trkpt lat="43.1079088" lon="12.4445344"><ele>195.42857142857142</ele><time>2026-05-01T10:53:41.607Z</time></trkpt><trkpt lat="43.1078459" lon="12.4444853"><ele>196.28571428571428</ele><time>2026-05-01T10:53:46.696Z</time></trkpt><trkpt lat="43.1077766" lon="12.4444272"><ele>197.14285714285714</ele><time>2026-05-01T10:53:50.798Z</time></trkpt><trkpt lat="43.107728" lon="12.4443631"><ele>198.0</ele><time>2026-05-01T10:53:55.713Z</time></trkpt><trkpt lat="43.1076833" lon="12.4443001"><ele>199.2857142857143</ele><time>2026-05-01T10:53:59.703Z</time></trkpt><trkpt lat="43.1076272" lon="12.444249"><ele>200.57142857142856</ele><time>2026-05-01T10:54:04.688Z</time></trkpt><trkpt lat="43.1075908" lon="12.4441745"><ele>201.85714285714286</ele><time>2026-05-01T10:54:09.679Z</time></trkpt><trkpt lat="43.1075723" lon="12.4440813"><ele>203.14285714285717</ele><time>2026-05-01T10:54:14.702Z</time></trkpt><trkpt lat="43.1075519" lon="12.4439932"><ele>204.42857142857144</ele><time>2026-05-01T10:54:19.803Z</time></trkpt><trkpt lat="43.107539" lon="12.4439036"><ele>205.71428571428572</ele><time>2026-05-01T10:54:24.663Z</time></trkpt><trkpt lat="43.1075222" lon="12.4438198"><ele>207.0</ele><time>2026-05-01T10:54:28.67Z</time></trkpt><trkpt lat="43.1075286" lon="12.4437323"><ele>208.71428571428572</ele><time>2026-05-01T10:54:33.786Z</time></trkpt><trkpt lat="43.1075066" lon="12.4436507"><ele>210.42857142857144</ele><time>2026-05-01T10:54:38.702Z</time></trkpt><trkpt lat="43.1075046" lon="12.4435462"><ele>212.14285714285717</ele><time>2026-05-01T10:54:43.673Z</time></trkpt><trkpt lat="43.1075117" lon="12.4434559"><ele>213.85714285714286</ele><time>2026-05-01T10:54:49.692Z</time></trkpt><trkpt lat="43.1075079" lon="12.4433509"><ele>215.57142857142856</ele><time>2026-05-01T10:54:55.734Z</time></trkpt><trkpt lat="43.107522" lon="12.4432528"><ele>217.2857142857143</ele><time>2026-05-01T10:55:01.688Z</time></trkpt><trkpt lat="43.1075433" lon="12.4431654"><ele>219.0</ele><time>2026-05-01T10:55:06.687Z</time></trkpt><trkpt lat="43.1075669" lon="12.4430683"><ele>219.0</ele><time>2026-05-01T10:55:11.685Z</time></trkpt><trkpt lat="43.1075938" lon="12.4429834"><ele>219.0</ele><time>2026-05-01T10:55:16.676Z</time></trkpt><trkpt lat="43.1076327" lon="12.4428959"><ele>219.0</ele><time>2026-05-01T10:55:22.723Z</time></trkpt><trkpt lat="43.1076826" lon="12.4428208"><ele>219.0</ele><time>2026-05-01T10:55:28.665Z</time></trkpt><trkpt lat="43.1077326" lon="12.4427423"><ele>219.0</ele><time>2026-05-01T10:55:34.692Z</time></trkpt><trkpt lat="43.1077728" lon="12.4426686"><ele>219.0</ele><time>2026-05-01T10:55:39.705Z</time></trkpt><trkpt lat="43.1078198" lon="12.442607"><ele>219.0</ele><time>2026-05-01T10:55:44.715Z</time></trkpt><trkpt lat="43.107868" lon="12.4425436"><ele>221.14285714285717</ele><time>2026-05-01T10:55:49.679Z</time></trkpt><trkpt lat="43.1079164" lon="12.442485"><ele>223.28571428571428</ele><time>2026-05-01T10:55:55.69Z</time></trkpt><trkpt lat="43.1079635" lon="12.4424101"><ele>225.42857142857144</ele><time>2026-05-01T10:56:01.683Z</time></trkpt><trkpt lat="43.1080045" lon="12.4423378"><ele>227.57142857142858</ele><time>2026-05-01T10:56:06.697Z</time></trkpt><trkpt lat="43.1080632" lon="12.4422912"><ele>229.71428571428572</ele><time>2026-05-01T10:56:11.676Z</time></trkpt><trkpt lat="43.1081138" lon="12.4422318"><ele>231.85714285714286</ele><time>2026-05-01T10:56:16.691Z</time></trkpt><trkpt lat="43.1081569" lon="12.4421626"><ele>234.0</ele><time>2026-05-01T10:56:21.655Z</time></trkpt><trkpt lat="43.1081823" lon="12.4420796"><ele>233.14285714285717</ele><time>2026-05-01T10:56:25.687Z</time></trkpt><trkpt lat="43.1082505" lon="12.4420546"><ele>232.2857142857143</ele><time>2026-05-01T10:56:32.76Z</time></trkpt><trkpt lat="43.1082796" lon="12.4419574"><ele>231.42857142857144</ele><time>2026-05-01T10:56:39.688Z</time></trkpt><trkpt lat="43.1083434" lon="12.4419475"><ele>230.57142857142856</ele><time>2026-05-01T10:56:45.713Z</time></trkpt><trkpt lat="43.1084051" lon="12.4419836"><ele>229.7142857142857</ele><time>2026-05-01T10:57:08.673Z</time></trkpt><trkpt lat="43.1084339" lon="12.4420615"><ele>228.85714285714283</ele><time>2026-05-01T10:57:14.664Z</time></trkpt><trkpt lat="43.1084686" lon="12.4421372"><ele>228.0</ele><time>2026-05-01T10:57:21.687Z</time></trkpt><trkpt lat="43.1084155" lon="12.442083"><ele>228.0</ele><time>2026-05-01T10:57:33.706Z</time></trkpt><trkpt lat="43.1084647" lon="12.4421436"><ele>227.99999999999997</ele><time>2026-05-01T10:57:43.73Z</time></trkpt><trkpt lat="43.1084563" lon="12.4420479"><ele>228.0</ele><time>2026-05-01T10:57:50.66Z</time></trkpt><trkpt lat="43.1084012" lon="12.4420012"><ele>228.0</ele><time>2026-05-01T10:58:02.736Z</time></trkpt><trkpt lat="43.1084623" lon="12.4420559"><ele>227.99999999999997</ele><time>2026-05-01T10:58:15.716Z</time></trkpt><trkpt lat="43.1085015" lon="12.4421241"><ele>228.0</ele><time>2026-05-01T10:58:20.697Z</time></trkpt><trkpt lat="43.1085629" lon="12.4420788"><ele>228.0</ele><time>2026-05-01T10:58:26.677Z</time></trkpt><trkpt lat="43.1086065" lon="12.441999"><ele>230.14285714285714</ele><time>2026-05-01T10:58:31.696Z</time></trkpt><trkpt lat="43.1086245" lon="12.4419159"><ele>232.28571428571428</ele><time>2026-05-01T10:58:36.681Z</time></trkpt><trkpt lat="43.1086091" lon="12.4418023"><ele>234.42857142857142</ele><time>2026-05-01T10:58:42.698Z</time></trkpt><trkpt lat="43.1085431" lon="12.4418101"><ele>236.57142857142856</ele><time>2026-05-01T10:58:47.694Z</time></trkpt><trkpt lat="43.108487" lon="12.4417565"><ele>238.71428571428572</ele><time>2026-05-01T10:58:55.684Z</time></trkpt><trkpt lat="43.108561" lon="12.4417964"><ele>240.85714285714283</ele><time>2026-05-01T10:59:07.699Z</time></trkpt><trkpt lat="43.1086235" lon="12.4418187"><ele>243.0</ele><time>2026-05-01T10:59:09.709Z</time></trkpt><trkpt lat="43.1086234" lon="12.4419252"><ele>243.0</ele><time>2026-05-01T10:59:12.71Z</time></trkpt><trkpt lat="43.1086045" lon="12.4420386"><ele>243.0</ele><time>2026-05-01T10:59:14.704Z</time></trkpt><trkpt lat="43.1085449" lon="12.4420952"><ele>243.0</ele><time>2026-05-01T10:59:16.662Z</time></trkpt><trkpt lat="43.1084882" lon="12.4420485"><ele>243.0</ele><time>2026-05-01T10:59:21.691Z</time></trkpt><trkpt lat="43.1085421" lon="12.4419994"><ele>243.0</ele><time>2026-05-01T10:59:25.65Z</time></trkpt><trkpt lat="43.1085788" lon="12.4419222"><ele>243.0</ele><time>2026-05-01T11:00:35.59Z</time></trkpt><trkpt lat="43.1084433" lon="12.4418901"><ele>243.0</ele><time>2026-05-01T11:00:58.908Z</time></trkpt><trkpt lat="43.1084921" lon="12.4419769"><ele>243.0</ele><time>2026-05-01T11:01:21.807Z</time></trkpt><trkpt lat="43.1085179" lon="12.4420713"><ele>243.0</ele><time>2026-05-01T11:01:28.29Z</time></trkpt><trkpt lat="43.1084293" lon="12.4419827"><ele>243.0</ele><time>2026-05-01T11:01:40.613Z</time></trkpt><trkpt lat="43.1084336" lon="12.4418899"><ele>243.0</ele><time>2026-05-01T11:01:56.594Z</time></trkpt><trkpt lat="43.1084821" lon="12.441828"><ele>243.0</ele><time>2026-05-01T11:02:07.738Z</time></trkpt><trkpt lat="43.1084926" lon="12.4419152"><ele>243.0</ele><time>2026-05-01T11:02:25.606Z</time></trkpt><trkpt lat="43.1085176" lon="12.4419999"><ele>243.0</ele><time>2026-05-01T11:02:31.598Z</time></trkpt><trkpt lat="43.1084687" lon="12.4419373"><ele>243.0</ele><time>2026-05-01T11:02:55.608Z</time></trkpt><trkpt lat="43.10853" lon="12.4419172"><ele>243.0</ele><time>2026-05-01T11:03:20.614Z</time></trkpt><trkpt lat="43.1084714" lon="12.4419527"><ele>243.0</ele><time>2026-05-01T11:04:06.568Z</time></trkpt></trkseg></trk></gpx>